<?xml version="1.0" encoding="UTF-8" standalone="no" ?>
<gpx xmlns="http://www.topografix.com/GPX/1/1" xmlns:xsi="http://www.w3.org/2001/XMLSchema-instance" xsi:schemaLocation="http://www.topografix.com/GPX/1/1 http://www.topografix.com/GPX/1/1/gpx.xsd" version="1.1" creator="VisuGPX - https://www.visugpx.com">
  <metadata>
    <name>Maintenon-Petit mont Chauvet</name>
    <desc><![CDATA[Boucle au départ de la maison forestière de Maintenon, en passant par le rocher d'Avon, le rocher de Bouligny et le Petit Mont Chauvet.Plusieurs passage entre les rochers, sans grande difficulté.]]></desc>
  </metadata>
  <trk>
    <name><![CDATA[15/10/2020 14:01:52]]></name>
    <trkseg>
      <trkpt lat="48.39656" lon="2.70271">
        <ele>64</ele>
        <time>2020-10-15T12:01:52Z</time>
      </trkpt>
      <trkpt lat="48.39655" lon="2.70277">
        <ele>64.199996948242</ele>
        <time>2020-10-15T12:01:57Z</time>
      </trkpt>
      <trkpt lat="48.39653" lon="2.70283">
        <ele>64.199996948242</ele>
        <time>2020-10-15T12:02:02Z</time>
      </trkpt>
      <trkpt lat="48.3965" lon="2.70289">
        <ele>64</ele>
        <time>2020-10-15T12:02:07Z</time>
      </trkpt>
      <trkpt lat="48.39646" lon="2.70293">
        <ele>64</ele>
        <time>2020-10-15T12:02:12Z</time>
      </trkpt>
      <trkpt lat="48.39644" lon="2.70297">
        <ele>64</ele>
        <time>2020-10-15T12:02:17Z</time>
      </trkpt>
      <trkpt lat="48.39643" lon="2.703">
        <ele>63.799999237061</ele>
        <time>2020-10-15T12:02:22Z</time>
      </trkpt>
      <trkpt lat="48.39641" lon="2.70304">
        <ele>63.799999237061</ele>
        <time>2020-10-15T12:02:27Z</time>
      </trkpt>
      <trkpt lat="48.39637" lon="2.7031">
        <ele>63.599998474121</ele>
        <time>2020-10-15T12:02:32Z</time>
      </trkpt>
      <trkpt lat="48.39636" lon="2.70314">
        <ele>63.599998474121</ele>
        <time>2020-10-15T12:02:37Z</time>
      </trkpt>
      <trkpt lat="48.39634" lon="2.70318">
        <ele>63.799999237061</ele>
        <time>2020-10-15T12:02:42Z</time>
      </trkpt>
      <trkpt lat="48.39634" lon="2.70326">
        <ele>63.799999237061</ele>
        <time>2020-10-15T12:02:47Z</time>
      </trkpt>
      <trkpt lat="48.39631" lon="2.70334">
        <ele>64.199996948242</ele>
        <time>2020-10-15T12:02:52Z</time>
      </trkpt>
      <trkpt lat="48.39626" lon="2.70347">
        <ele>64.400001525879</ele>
        <time>2020-10-15T12:02:57Z</time>
      </trkpt>
      <trkpt lat="48.39622" lon="2.70355">
        <ele>64.400001525879</ele>
        <time>2020-10-15T12:03:02Z</time>
      </trkpt>
      <trkpt lat="48.39619" lon="2.70362">
        <ele>64.400001525879</ele>
        <time>2020-10-15T12:03:07Z</time>
      </trkpt>
      <trkpt lat="48.39614" lon="2.70371">
        <ele>64.400001525879</ele>
        <time>2020-10-15T12:03:12Z</time>
      </trkpt>
      <trkpt lat="48.3961" lon="2.70378">
        <ele>64.599998474121</ele>
        <time>2020-10-15T12:03:17Z</time>
      </trkpt>
      <trkpt lat="48.39607" lon="2.70386">
        <ele>64.599998474121</ele>
        <time>2020-10-15T12:03:22Z</time>
      </trkpt>
      <trkpt lat="48.39604" lon="2.70393">
        <ele>64.199996948242</ele>
        <time>2020-10-15T12:03:27Z</time>
      </trkpt>
      <trkpt lat="48.39601" lon="2.704">
        <ele>64.199996948242</ele>
        <time>2020-10-15T12:03:32Z</time>
      </trkpt>
      <trkpt lat="48.39598" lon="2.70408">
        <ele>64.400001525879</ele>
        <time>2020-10-15T12:03:37Z</time>
      </trkpt>
      <trkpt lat="48.39594" lon="2.70415">
        <ele>64.400001525879</ele>
        <time>2020-10-15T12:03:42Z</time>
      </trkpt>
      <trkpt lat="48.39591" lon="2.70422">
        <ele>64.400001525879</ele>
        <time>2020-10-15T12:03:47Z</time>
      </trkpt>
      <trkpt lat="48.39588" lon="2.70428">
        <ele>64.400001525879</ele>
        <time>2020-10-15T12:03:52Z</time>
      </trkpt>
      <trkpt lat="48.39585" lon="2.70436">
        <ele>64.800003051758</ele>
        <time>2020-10-15T12:03:57Z</time>
      </trkpt>
      <trkpt lat="48.39581" lon="2.70443">
        <ele>65</ele>
        <time>2020-10-15T12:04:02Z</time>
      </trkpt>
      <trkpt lat="48.39579" lon="2.70448">
        <ele>65</ele>
        <time>2020-10-15T12:04:07Z</time>
      </trkpt>
      <trkpt lat="48.39577" lon="2.70454">
        <ele>65</ele>
        <time>2020-10-15T12:04:12Z</time>
      </trkpt>
      <trkpt lat="48.39574" lon="2.70459">
        <ele>65.199996948242</ele>
        <time>2020-10-15T12:04:17Z</time>
      </trkpt>
      <trkpt lat="48.39572" lon="2.70466">
        <ele>65.400001525879</ele>
        <time>2020-10-15T12:04:22Z</time>
      </trkpt>
      <trkpt lat="48.39571" lon="2.70473">
        <ele>65.400001525879</ele>
        <time>2020-10-15T12:04:27Z</time>
      </trkpt>
      <trkpt lat="48.39568" lon="2.70475">
        <ele>65.400001525879</ele>
        <time>2020-10-15T12:04:32Z</time>
      </trkpt>
      <trkpt lat="48.39573" lon="2.70494">
        <ele>65.400001525879</ele>
        <time>2020-10-15T12:04:57Z</time>
      </trkpt>
      <trkpt lat="48.39576" lon="2.70498">
        <ele>65.199996948242</ele>
        <time>2020-10-15T12:05:02Z</time>
      </trkpt>
      <trkpt lat="48.39578" lon="2.70504">
        <ele>65.199996948242</ele>
        <time>2020-10-15T12:05:07Z</time>
      </trkpt>
      <trkpt lat="48.39578" lon="2.7051">
        <ele>65.199996948242</ele>
        <time>2020-10-15T12:05:12Z</time>
      </trkpt>
      <trkpt lat="48.3958" lon="2.70518">
        <ele>65.199996948242</ele>
        <time>2020-10-15T12:05:17Z</time>
      </trkpt>
      <trkpt lat="48.39582" lon="2.70526">
        <ele>65.400001525879</ele>
        <time>2020-10-15T12:05:22Z</time>
      </trkpt>
      <trkpt lat="48.39582" lon="2.70534">
        <ele>65.400001525879</ele>
        <time>2020-10-15T12:05:27Z</time>
      </trkpt>
      <trkpt lat="48.39583" lon="2.70542">
        <ele>65.599998474121</ele>
        <time>2020-10-15T12:05:32Z</time>
      </trkpt>
      <trkpt lat="48.39583" lon="2.70549">
        <ele>65.599998474121</ele>
        <time>2020-10-15T12:05:37Z</time>
      </trkpt>
      <trkpt lat="48.39585" lon="2.70559">
        <ele>65.599998474121</ele>
        <time>2020-10-15T12:05:42Z</time>
      </trkpt>
      <trkpt lat="48.39586" lon="2.70568">
        <ele>65.599998474121</ele>
        <time>2020-10-15T12:05:47Z</time>
      </trkpt>
      <trkpt lat="48.39587" lon="2.70576">
        <ele>65.599998474121</ele>
        <time>2020-10-15T12:05:52Z</time>
      </trkpt>
      <trkpt lat="48.39588" lon="2.70585">
        <ele>65.599998474121</ele>
        <time>2020-10-15T12:05:57Z</time>
      </trkpt>
      <trkpt lat="48.39589" lon="2.70595">
        <ele>65.599998474121</ele>
        <time>2020-10-15T12:06:02Z</time>
      </trkpt>
      <trkpt lat="48.39589" lon="2.70602">
        <ele>65.599998474121</ele>
        <time>2020-10-15T12:06:07Z</time>
      </trkpt>
      <trkpt lat="48.39589" lon="2.7061">
        <ele>65.599998474121</ele>
        <time>2020-10-15T12:06:12Z</time>
      </trkpt>
      <trkpt lat="48.3959" lon="2.70617">
        <ele>65.599998474121</ele>
        <time>2020-10-15T12:06:17Z</time>
      </trkpt>
      <trkpt lat="48.39589" lon="2.70624">
        <ele>65.800003051758</ele>
        <time>2020-10-15T12:06:22Z</time>
      </trkpt>
      <trkpt lat="48.3959" lon="2.70633">
        <ele>66</ele>
        <time>2020-10-15T12:06:27Z</time>
      </trkpt>
      <trkpt lat="48.39592" lon="2.70641">
        <ele>65.800003051758</ele>
        <time>2020-10-15T12:06:32Z</time>
      </trkpt>
      <trkpt lat="48.39592" lon="2.7065">
        <ele>66</ele>
        <time>2020-10-15T12:06:37Z</time>
      </trkpt>
      <trkpt lat="48.39593" lon="2.70658">
        <ele>66</ele>
        <time>2020-10-15T12:06:42Z</time>
      </trkpt>
      <trkpt lat="48.39593" lon="2.70668">
        <ele>66.199996948242</ele>
        <time>2020-10-15T12:06:47Z</time>
      </trkpt>
      <trkpt lat="48.39593" lon="2.70676">
        <ele>66.400001525879</ele>
        <time>2020-10-15T12:06:52Z</time>
      </trkpt>
      <trkpt lat="48.39593" lon="2.70684">
        <ele>66.199996948242</ele>
        <time>2020-10-15T12:06:57Z</time>
      </trkpt>
      <trkpt lat="48.39593" lon="2.70692">
        <ele>66.199996948242</ele>
        <time>2020-10-15T12:07:02Z</time>
      </trkpt>
      <trkpt lat="48.39592" lon="2.70701">
        <ele>66.199996948242</ele>
        <time>2020-10-15T12:07:07Z</time>
      </trkpt>
      <trkpt lat="48.39591" lon="2.70709">
        <ele>66.400001525879</ele>
        <time>2020-10-15T12:07:12Z</time>
      </trkpt>
      <trkpt lat="48.39591" lon="2.70718">
        <ele>66.599998474121</ele>
        <time>2020-10-15T12:07:17Z</time>
      </trkpt>
      <trkpt lat="48.39591" lon="2.70728">
        <ele>66.400001525879</ele>
        <time>2020-10-15T12:07:22Z</time>
      </trkpt>
      <trkpt lat="48.39591" lon="2.70736">
        <ele>66.400001525879</ele>
        <time>2020-10-15T12:07:27Z</time>
      </trkpt>
      <trkpt lat="48.3959" lon="2.70745">
        <ele>66.400001525879</ele>
        <time>2020-10-15T12:07:32Z</time>
      </trkpt>
      <trkpt lat="48.3959" lon="2.70753">
        <ele>66.599998474121</ele>
        <time>2020-10-15T12:07:37Z</time>
      </trkpt>
      <trkpt lat="48.3959" lon="2.70762">
        <ele>66.800003051758</ele>
        <time>2020-10-15T12:07:42Z</time>
      </trkpt>
      <trkpt lat="48.39588" lon="2.70771">
        <ele>66.800003051758</ele>
        <time>2020-10-15T12:07:47Z</time>
      </trkpt>
      <trkpt lat="48.39587" lon="2.70778">
        <ele>67.199996948242</ele>
        <time>2020-10-15T12:07:52Z</time>
      </trkpt>
      <trkpt lat="48.39586" lon="2.70785">
        <ele>67.400001525879</ele>
        <time>2020-10-15T12:07:57Z</time>
      </trkpt>
      <trkpt lat="48.39584" lon="2.70792">
        <ele>67.400001525879</ele>
        <time>2020-10-15T12:08:02Z</time>
      </trkpt>
      <trkpt lat="48.39582" lon="2.70798">
        <ele>67.400001525879</ele>
        <time>2020-10-15T12:08:07Z</time>
      </trkpt>
      <trkpt lat="48.39582" lon="2.70805">
        <ele>67.599998474121</ele>
        <time>2020-10-15T12:08:12Z</time>
      </trkpt>
      <trkpt lat="48.39581" lon="2.70811">
        <ele>67.199996948242</ele>
        <time>2020-10-15T12:08:17Z</time>
      </trkpt>
      <trkpt lat="48.39579" lon="2.70821">
        <ele>67.199996948242</ele>
        <time>2020-10-15T12:08:22Z</time>
      </trkpt>
      <trkpt lat="48.39576" lon="2.7083">
        <ele>67.199996948242</ele>
        <time>2020-10-15T12:08:27Z</time>
      </trkpt>
      <trkpt lat="48.39575" lon="2.7084">
        <ele>67.400001525879</ele>
        <time>2020-10-15T12:08:32Z</time>
      </trkpt>
      <trkpt lat="48.39575" lon="2.70848">
        <ele>67.400001525879</ele>
        <time>2020-10-15T12:08:37Z</time>
      </trkpt>
      <trkpt lat="48.39577" lon="2.70855">
        <ele>67.400001525879</ele>
        <time>2020-10-15T12:08:42Z</time>
      </trkpt>
      <trkpt lat="48.39576" lon="2.70865">
        <ele>67.400001525879</ele>
        <time>2020-10-15T12:08:47Z</time>
      </trkpt>
      <trkpt lat="48.39576" lon="2.70873">
        <ele>67.199996948242</ele>
        <time>2020-10-15T12:08:52Z</time>
      </trkpt>
      <trkpt lat="48.39576" lon="2.70881">
        <ele>67.199996948242</ele>
        <time>2020-10-15T12:08:57Z</time>
      </trkpt>
      <trkpt lat="48.39575" lon="2.70892">
        <ele>67.199996948242</ele>
        <time>2020-10-15T12:09:02Z</time>
      </trkpt>
      <trkpt lat="48.39573" lon="2.709">
        <ele>67.199996948242</ele>
        <time>2020-10-15T12:09:07Z</time>
      </trkpt>
      <trkpt lat="48.39571" lon="2.70911">
        <ele>67.199996948242</ele>
        <time>2020-10-15T12:09:12Z</time>
      </trkpt>
      <trkpt lat="48.39571" lon="2.70918">
        <ele>67.199996948242</ele>
        <time>2020-10-15T12:09:17Z</time>
      </trkpt>
      <trkpt lat="48.39572" lon="2.70926">
        <ele>67.199996948242</ele>
        <time>2020-10-15T12:09:22Z</time>
      </trkpt>
      <trkpt lat="48.39572" lon="2.70932">
        <ele>67.199996948242</ele>
        <time>2020-10-15T12:09:27Z</time>
      </trkpt>
      <trkpt lat="48.39573" lon="2.7094">
        <ele>67.199996948242</ele>
        <time>2020-10-15T12:09:32Z</time>
      </trkpt>
      <trkpt lat="48.39572" lon="2.7095">
        <ele>67.199996948242</ele>
        <time>2020-10-15T12:09:37Z</time>
      </trkpt>
      <trkpt lat="48.39571" lon="2.70959">
        <ele>67.199996948242</ele>
        <time>2020-10-15T12:09:42Z</time>
      </trkpt>
      <trkpt lat="48.39569" lon="2.70967">
        <ele>67.199996948242</ele>
        <time>2020-10-15T12:09:47Z</time>
      </trkpt>
      <trkpt lat="48.39568" lon="2.70975">
        <ele>67.199996948242</ele>
        <time>2020-10-15T12:09:52Z</time>
      </trkpt>
      <trkpt lat="48.39567" lon="2.70983">
        <ele>67.199996948242</ele>
        <time>2020-10-15T12:09:57Z</time>
      </trkpt>
      <trkpt lat="48.39566" lon="2.7099">
        <ele>67.199996948242</ele>
        <time>2020-10-15T12:10:02Z</time>
      </trkpt>
      <trkpt lat="48.39567" lon="2.70997">
        <ele>67.199996948242</ele>
        <time>2020-10-15T12:10:07Z</time>
      </trkpt>
      <trkpt lat="48.39567" lon="2.71003">
        <ele>67.199996948242</ele>
        <time>2020-10-15T12:10:12Z</time>
      </trkpt>
      <trkpt lat="48.39565" lon="2.71013">
        <ele>67.199996948242</ele>
        <time>2020-10-15T12:10:17Z</time>
      </trkpt>
      <trkpt lat="48.39565" lon="2.71022">
        <ele>67.199996948242</ele>
        <time>2020-10-15T12:10:22Z</time>
      </trkpt>
      <trkpt lat="48.39564" lon="2.71032">
        <ele>67.199996948242</ele>
        <time>2020-10-15T12:10:27Z</time>
      </trkpt>
      <trkpt lat="48.39563" lon="2.71045">
        <ele>67.199996948242</ele>
        <time>2020-10-15T12:10:32Z</time>
      </trkpt>
      <trkpt lat="48.39564" lon="2.71051">
        <ele>67.400001525879</ele>
        <time>2020-10-15T12:10:37Z</time>
      </trkpt>
      <trkpt lat="48.39565" lon="2.71057">
        <ele>67.400001525879</ele>
        <time>2020-10-15T12:10:42Z</time>
      </trkpt>
      <trkpt lat="48.39565" lon="2.71064">
        <ele>67.400001525879</ele>
        <time>2020-10-15T12:10:47Z</time>
      </trkpt>
      <trkpt lat="48.39566" lon="2.7107">
        <ele>67.400001525879</ele>
        <time>2020-10-15T12:10:52Z</time>
      </trkpt>
      <trkpt lat="48.39565" lon="2.71077">
        <ele>67.400001525879</ele>
        <time>2020-10-15T12:10:57Z</time>
      </trkpt>
      <trkpt lat="48.39564" lon="2.71084">
        <ele>67.400001525879</ele>
        <time>2020-10-15T12:11:02Z</time>
      </trkpt>
      <trkpt lat="48.39564" lon="2.71092">
        <ele>67.400001525879</ele>
        <time>2020-10-15T12:11:07Z</time>
      </trkpt>
      <trkpt lat="48.39563" lon="2.7111">
        <ele>67.599998474121</ele>
        <time>2020-10-15T12:11:12Z</time>
      </trkpt>
      <trkpt lat="48.39561" lon="2.7112">
        <ele>67.599998474121</ele>
        <time>2020-10-15T12:11:17Z</time>
      </trkpt>
      <trkpt lat="48.39562" lon="2.71127">
        <ele>67.400001525879</ele>
        <time>2020-10-15T12:11:22Z</time>
      </trkpt>
      <trkpt lat="48.3956" lon="2.71131">
        <ele>67.199996948242</ele>
        <time>2020-10-15T12:11:27Z</time>
      </trkpt>
      <trkpt lat="48.3956" lon="2.71136">
        <ele>67.199996948242</ele>
        <time>2020-10-15T12:11:32Z</time>
      </trkpt>
      <trkpt lat="48.39559" lon="2.71137">
        <ele>67.199996948242</ele>
        <time>2020-10-15T12:11:37Z</time>
      </trkpt>
      <trkpt lat="48.39555" lon="2.71141">
        <ele>67.199996948242</ele>
        <time>2020-10-15T12:11:42Z</time>
      </trkpt>
      <trkpt lat="48.39552" lon="2.71145">
        <ele>67.400001525879</ele>
        <time>2020-10-15T12:11:47Z</time>
      </trkpt>
      <trkpt lat="48.39552" lon="2.71146">
        <ele>67.599998474121</ele>
        <time>2020-10-15T12:11:52Z</time>
      </trkpt>
      <trkpt lat="48.39552" lon="2.71148">
        <ele>67.800003051758</ele>
        <time>2020-10-15T12:11:57Z</time>
      </trkpt>
      <trkpt lat="48.39549" lon="2.71153">
        <ele>68</ele>
        <time>2020-10-15T12:12:02Z</time>
      </trkpt>
      <trkpt lat="48.39545" lon="2.71159">
        <ele>68</ele>
        <time>2020-10-15T12:12:07Z</time>
      </trkpt>
      <trkpt lat="48.39543" lon="2.7116">
        <ele>68.199996948242</ele>
        <time>2020-10-15T12:12:12Z</time>
      </trkpt>
      <trkpt lat="48.3954" lon="2.71163">
        <ele>68.199996948242</ele>
        <time>2020-10-15T12:12:17Z</time>
      </trkpt>
      <trkpt lat="48.39536" lon="2.71168">
        <ele>68</ele>
        <time>2020-10-15T12:12:22Z</time>
      </trkpt>
      <trkpt lat="48.39533" lon="2.7117">
        <ele>68.199996948242</ele>
        <time>2020-10-15T12:12:27Z</time>
      </trkpt>
      <trkpt lat="48.39527" lon="2.71178">
        <ele>68.199996948242</ele>
        <time>2020-10-15T12:12:32Z</time>
      </trkpt>
      <trkpt lat="48.39522" lon="2.71186">
        <ele>68.199996948242</ele>
        <time>2020-10-15T12:12:37Z</time>
      </trkpt>
      <trkpt lat="48.39515" lon="2.71197">
        <ele>68.400001525879</ele>
        <time>2020-10-15T12:12:42Z</time>
      </trkpt>
      <trkpt lat="48.39511" lon="2.71205">
        <ele>68.400001525879</ele>
        <time>2020-10-15T12:12:47Z</time>
      </trkpt>
      <trkpt lat="48.3951" lon="2.7121">
        <ele>68.199996948242</ele>
        <time>2020-10-15T12:12:52Z</time>
      </trkpt>
      <trkpt lat="48.3951" lon="2.71217">
        <ele>68.400001525879</ele>
        <time>2020-10-15T12:12:57Z</time>
      </trkpt>
      <trkpt lat="48.39508" lon="2.71226">
        <ele>68.199996948242</ele>
        <time>2020-10-15T12:13:02Z</time>
      </trkpt>
      <trkpt lat="48.39507" lon="2.71234">
        <ele>68</ele>
        <time>2020-10-15T12:13:07Z</time>
      </trkpt>
      <trkpt lat="48.39506" lon="2.71238">
        <ele>68.199996948242</ele>
        <time>2020-10-15T12:13:12Z</time>
      </trkpt>
      <trkpt lat="48.39506" lon="2.71244">
        <ele>68.800003051758</ele>
        <time>2020-10-15T12:13:17Z</time>
      </trkpt>
      <trkpt lat="48.39506" lon="2.71247">
        <ele>68.599998474121</ele>
        <time>2020-10-15T12:13:22Z</time>
      </trkpt>
      <trkpt lat="48.39509" lon="2.7125">
        <ele>68.800003051758</ele>
        <time>2020-10-15T12:13:27Z</time>
      </trkpt>
      <trkpt lat="48.39513" lon="2.71253">
        <ele>69.199996948242</ele>
        <time>2020-10-15T12:13:32Z</time>
      </trkpt>
      <trkpt lat="48.39516" lon="2.71256">
        <ele>69.400001525879</ele>
        <time>2020-10-15T12:13:37Z</time>
      </trkpt>
      <trkpt lat="48.39513" lon="2.71258">
        <ele>69.800003051758</ele>
        <time>2020-10-15T12:13:42Z</time>
      </trkpt>
      <trkpt lat="48.39512" lon="2.71266">
        <ele>70.199996948242</ele>
        <time>2020-10-15T12:13:47Z</time>
      </trkpt>
      <trkpt lat="48.39513" lon="2.7127">
        <ele>71</ele>
        <time>2020-10-15T12:13:52Z</time>
      </trkpt>
      <trkpt lat="48.39515" lon="2.71274">
        <ele>71.400001525879</ele>
        <time>2020-10-15T12:13:57Z</time>
      </trkpt>
      <trkpt lat="48.39514" lon="2.71281">
        <ele>71.400001525879</ele>
        <time>2020-10-15T12:14:02Z</time>
      </trkpt>
      <trkpt lat="48.39516" lon="2.71287">
        <ele>71.800003051758</ele>
        <time>2020-10-15T12:14:07Z</time>
      </trkpt>
      <trkpt lat="48.39512" lon="2.71291">
        <ele>72.199996948242</ele>
        <time>2020-10-15T12:14:12Z</time>
      </trkpt>
      <trkpt lat="48.39508" lon="2.71295">
        <ele>72.400001525879</ele>
        <time>2020-10-15T12:14:17Z</time>
      </trkpt>
      <trkpt lat="48.39504" lon="2.713">
        <ele>72.400001525879</ele>
        <time>2020-10-15T12:14:22Z</time>
      </trkpt>
      <trkpt lat="48.395" lon="2.71309">
        <ele>72.400001525879</ele>
        <time>2020-10-15T12:14:27Z</time>
      </trkpt>
      <trkpt lat="48.39496" lon="2.71313">
        <ele>72.599998474121</ele>
        <time>2020-10-15T12:14:32Z</time>
      </trkpt>
      <trkpt lat="48.39494" lon="2.71316">
        <ele>72.599998474121</ele>
        <time>2020-10-15T12:14:37Z</time>
      </trkpt>
      <trkpt lat="48.39493" lon="2.71329">
        <ele>72.800003051758</ele>
        <time>2020-10-15T12:14:42Z</time>
      </trkpt>
      <trkpt lat="48.3949" lon="2.71342">
        <ele>73</ele>
        <time>2020-10-15T12:14:47Z</time>
      </trkpt>
      <trkpt lat="48.39487" lon="2.71352">
        <ele>73.199996948242</ele>
        <time>2020-10-15T12:14:52Z</time>
      </trkpt>
      <trkpt lat="48.39484" lon="2.71361">
        <ele>73.400001525879</ele>
        <time>2020-10-15T12:14:57Z</time>
      </trkpt>
      <trkpt lat="48.39482" lon="2.71365">
        <ele>73.800003051758</ele>
        <time>2020-10-15T12:15:02Z</time>
      </trkpt>
      <trkpt lat="48.39479" lon="2.71375">
        <ele>74.199996948242</ele>
        <time>2020-10-15T12:15:07Z</time>
      </trkpt>
      <trkpt lat="48.39477" lon="2.71387">
        <ele>74.800003051758</ele>
        <time>2020-10-15T12:15:12Z</time>
      </trkpt>
      <trkpt lat="48.39479" lon="2.71396">
        <ele>75.800003051758</ele>
        <time>2020-10-15T12:15:17Z</time>
      </trkpt>
      <trkpt lat="48.39476" lon="2.71402">
        <ele>76.199996948242</ele>
        <time>2020-10-15T12:15:22Z</time>
      </trkpt>
      <trkpt lat="48.3947" lon="2.71406">
        <ele>76</ele>
        <time>2020-10-15T12:15:27Z</time>
      </trkpt>
      <trkpt lat="48.39461" lon="2.71416">
        <ele>75.800003051758</ele>
        <time>2020-10-15T12:15:32Z</time>
      </trkpt>
      <trkpt lat="48.39459" lon="2.71418">
        <ele>75.800003051758</ele>
        <time>2020-10-15T12:15:37Z</time>
      </trkpt>
      <trkpt lat="48.39457" lon="2.71421">
        <ele>76.400001525879</ele>
        <time>2020-10-15T12:15:42Z</time>
      </trkpt>
      <trkpt lat="48.39454" lon="2.71425">
        <ele>76.800003051758</ele>
        <time>2020-10-15T12:15:47Z</time>
      </trkpt>
      <trkpt lat="48.39445" lon="2.71438">
        <ele>77</ele>
        <time>2020-10-15T12:15:52Z</time>
      </trkpt>
      <trkpt lat="48.39437" lon="2.71441">
        <ele>77</ele>
        <time>2020-10-15T12:15:57Z</time>
      </trkpt>
      <trkpt lat="48.3943" lon="2.71445">
        <ele>77</ele>
        <time>2020-10-15T12:16:02Z</time>
      </trkpt>
      <trkpt lat="48.39424" lon="2.71449">
        <ele>77.400001525879</ele>
        <time>2020-10-15T12:16:07Z</time>
      </trkpt>
      <trkpt lat="48.39419" lon="2.71449">
        <ele>77.599998474121</ele>
        <time>2020-10-15T12:16:12Z</time>
      </trkpt>
      <trkpt lat="48.39416" lon="2.71451">
        <ele>77.800003051758</ele>
        <time>2020-10-15T12:16:17Z</time>
      </trkpt>
      <trkpt lat="48.39412" lon="2.71454">
        <ele>78</ele>
        <time>2020-10-15T12:16:22Z</time>
      </trkpt>
      <trkpt lat="48.3941" lon="2.71455">
        <ele>78.199996948242</ele>
        <time>2020-10-15T12:16:27Z</time>
      </trkpt>
      <trkpt lat="48.39409" lon="2.71456">
        <ele>78.599998474121</ele>
        <time>2020-10-15T12:16:32Z</time>
      </trkpt>
      <trkpt lat="48.39407" lon="2.7146">
        <ele>79</ele>
        <time>2020-10-15T12:16:37Z</time>
      </trkpt>
      <trkpt lat="48.39402" lon="2.71466">
        <ele>79.199996948242</ele>
        <time>2020-10-15T12:16:42Z</time>
      </trkpt>
      <trkpt lat="48.39398" lon="2.71482">
        <ele>79.599998474121</ele>
        <time>2020-10-15T12:16:47Z</time>
      </trkpt>
      <trkpt lat="48.39388" lon="2.71496">
        <ele>80.199996948242</ele>
        <time>2020-10-15T12:16:52Z</time>
      </trkpt>
      <trkpt lat="48.3938" lon="2.71507">
        <ele>80.599998474121</ele>
        <time>2020-10-15T12:16:57Z</time>
      </trkpt>
      <trkpt lat="48.39378" lon="2.71514">
        <ele>81.199996948242</ele>
        <time>2020-10-15T12:17:02Z</time>
      </trkpt>
      <trkpt lat="48.39375" lon="2.7152">
        <ele>81.800003051758</ele>
        <time>2020-10-15T12:17:07Z</time>
      </trkpt>
      <trkpt lat="48.39372" lon="2.71523">
        <ele>82.400001525879</ele>
        <time>2020-10-15T12:17:12Z</time>
      </trkpt>
      <trkpt lat="48.3937" lon="2.71526">
        <ele>83.199996948242</ele>
        <time>2020-10-15T12:17:17Z</time>
      </trkpt>
      <trkpt lat="48.39369" lon="2.71527">
        <ele>84</ele>
        <time>2020-10-15T12:17:22Z</time>
      </trkpt>
      <trkpt lat="48.39367" lon="2.7153">
        <ele>84.800003051758</ele>
        <time>2020-10-15T12:17:27Z</time>
      </trkpt>
      <trkpt lat="48.39364" lon="2.71537">
        <ele>85.400001525879</ele>
        <time>2020-10-15T12:17:32Z</time>
      </trkpt>
      <trkpt lat="48.39362" lon="2.71543">
        <ele>85.800003051758</ele>
        <time>2020-10-15T12:17:37Z</time>
      </trkpt>
      <trkpt lat="48.39362" lon="2.71549">
        <ele>86.400001525879</ele>
        <time>2020-10-15T12:17:42Z</time>
      </trkpt>
      <trkpt lat="48.39363" lon="2.71554">
        <ele>87</ele>
        <time>2020-10-15T12:17:47Z</time>
      </trkpt>
      <trkpt lat="48.39364" lon="2.71557">
        <ele>88</ele>
        <time>2020-10-15T12:17:52Z</time>
      </trkpt>
      <trkpt lat="48.39367" lon="2.71558">
        <ele>88.199996948242</ele>
        <time>2020-10-15T12:17:57Z</time>
      </trkpt>
      <trkpt lat="48.3937" lon="2.71562">
        <ele>88.599998474121</ele>
        <time>2020-10-15T12:18:02Z</time>
      </trkpt>
      <trkpt lat="48.39373" lon="2.71565">
        <ele>89.400001525879</ele>
        <time>2020-10-15T12:18:07Z</time>
      </trkpt>
      <trkpt lat="48.39376" lon="2.71566">
        <ele>90</ele>
        <time>2020-10-15T12:18:12Z</time>
      </trkpt>
      <trkpt lat="48.39378" lon="2.71569">
        <ele>90.400001525879</ele>
        <time>2020-10-15T12:18:17Z</time>
      </trkpt>
      <trkpt lat="48.39379" lon="2.71572">
        <ele>90.599998474121</ele>
        <time>2020-10-15T12:18:37Z</time>
      </trkpt>
      <trkpt lat="48.3938" lon="2.71571">
        <ele>90.599998474121</ele>
        <time>2020-10-15T12:18:42Z</time>
      </trkpt>
      <trkpt lat="48.39379" lon="2.71572">
        <ele>90.599998474121</ele>
        <time>2020-10-15T12:18:47Z</time>
      </trkpt>
      <trkpt lat="48.39379" lon="2.7157">
        <ele>89.800003051758</ele>
        <time>2020-10-15T12:19:12Z</time>
      </trkpt>
      <trkpt lat="48.3938" lon="2.71576">
        <ele>89.800003051758</ele>
        <time>2020-10-15T12:21:17Z</time>
      </trkpt>
      <trkpt lat="48.39384" lon="2.71577">
        <ele>89.800003051758</ele>
        <time>2020-10-15T12:21:22Z</time>
      </trkpt>
      <trkpt lat="48.39388" lon="2.71578">
        <ele>89.800003051758</ele>
        <time>2020-10-15T12:21:27Z</time>
      </trkpt>
      <trkpt lat="48.39392" lon="2.71576">
        <ele>89.800003051758</ele>
        <time>2020-10-15T12:21:32Z</time>
      </trkpt>
      <trkpt lat="48.39394" lon="2.71573">
        <ele>89.599998474121</ele>
        <time>2020-10-15T12:21:37Z</time>
      </trkpt>
      <trkpt lat="48.39395" lon="2.71572">
        <ele>87</ele>
        <time>2020-10-15T12:21:42Z</time>
      </trkpt>
      <trkpt lat="48.39402" lon="2.71575">
        <ele>87</ele>
        <time>2020-10-15T12:21:47Z</time>
      </trkpt>
      <trkpt lat="48.3941" lon="2.71579">
        <ele>86.199996948242</ele>
        <time>2020-10-15T12:21:52Z</time>
      </trkpt>
      <trkpt lat="48.39409" lon="2.71585">
        <ele>85.599998474121</ele>
        <time>2020-10-15T12:21:57Z</time>
      </trkpt>
      <trkpt lat="48.39406" lon="2.71589">
        <ele>85.199996948242</ele>
        <time>2020-10-15T12:22:02Z</time>
      </trkpt>
      <trkpt lat="48.39406" lon="2.71591">
        <ele>85</ele>
        <time>2020-10-15T12:22:07Z</time>
      </trkpt>
      <trkpt lat="48.39404" lon="2.71591">
        <ele>85.199996948242</ele>
        <time>2020-10-15T12:22:12Z</time>
      </trkpt>
      <trkpt lat="48.39403" lon="2.71591">
        <ele>85.599998474121</ele>
        <time>2020-10-15T12:22:17Z</time>
      </trkpt>
      <trkpt lat="48.39401" lon="2.71593">
        <ele>85.599998474121</ele>
        <time>2020-10-15T12:22:22Z</time>
      </trkpt>
      <trkpt lat="48.39397" lon="2.71599">
        <ele>86</ele>
        <time>2020-10-15T12:22:27Z</time>
      </trkpt>
      <trkpt lat="48.39394" lon="2.71601">
        <ele>86</ele>
        <time>2020-10-15T12:22:32Z</time>
      </trkpt>
      <trkpt lat="48.39393" lon="2.71602">
        <ele>86</ele>
        <time>2020-10-15T12:22:37Z</time>
      </trkpt>
      <trkpt lat="48.39385" lon="2.71607">
        <ele>85.800003051758</ele>
        <time>2020-10-15T12:22:42Z</time>
      </trkpt>
      <trkpt lat="48.39378" lon="2.71612">
        <ele>85.599998474121</ele>
        <time>2020-10-15T12:22:47Z</time>
      </trkpt>
      <trkpt lat="48.39372" lon="2.71618">
        <ele>85.800003051758</ele>
        <time>2020-10-15T12:22:52Z</time>
      </trkpt>
      <trkpt lat="48.39369" lon="2.71626">
        <ele>86.199996948242</ele>
        <time>2020-10-15T12:22:57Z</time>
      </trkpt>
      <trkpt lat="48.39365" lon="2.71632">
        <ele>86.199996948242</ele>
        <time>2020-10-15T12:23:02Z</time>
      </trkpt>
      <trkpt lat="48.39362" lon="2.71637">
        <ele>86.400001525879</ele>
        <time>2020-10-15T12:23:07Z</time>
      </trkpt>
      <trkpt lat="48.39359" lon="2.71638">
        <ele>86.400001525879</ele>
        <time>2020-10-15T12:23:12Z</time>
      </trkpt>
      <trkpt lat="48.39354" lon="2.71642">
        <ele>86.599998474121</ele>
        <time>2020-10-15T12:23:17Z</time>
      </trkpt>
      <trkpt lat="48.39352" lon="2.71648">
        <ele>87.199996948242</ele>
        <time>2020-10-15T12:23:22Z</time>
      </trkpt>
      <trkpt lat="48.3935" lon="2.71655">
        <ele>87.400001525879</ele>
        <time>2020-10-15T12:23:27Z</time>
      </trkpt>
      <trkpt lat="48.39349" lon="2.71662">
        <ele>87.199996948242</ele>
        <time>2020-10-15T12:23:32Z</time>
      </trkpt>
      <trkpt lat="48.39348" lon="2.71667">
        <ele>87.199996948242</ele>
        <time>2020-10-15T12:23:37Z</time>
      </trkpt>
      <trkpt lat="48.39347" lon="2.71672">
        <ele>87</ele>
        <time>2020-10-15T12:23:42Z</time>
      </trkpt>
      <trkpt lat="48.39343" lon="2.71676">
        <ele>87</ele>
        <time>2020-10-15T12:23:47Z</time>
      </trkpt>
      <trkpt lat="48.3934" lon="2.71681">
        <ele>87.400001525879</ele>
        <time>2020-10-15T12:23:52Z</time>
      </trkpt>
      <trkpt lat="48.39337" lon="2.71687">
        <ele>87.599998474121</ele>
        <time>2020-10-15T12:23:57Z</time>
      </trkpt>
      <trkpt lat="48.39336" lon="2.71694">
        <ele>87.599998474121</ele>
        <time>2020-10-15T12:24:02Z</time>
      </trkpt>
      <trkpt lat="48.39333" lon="2.71703">
        <ele>87.599998474121</ele>
        <time>2020-10-15T12:24:07Z</time>
      </trkpt>
      <trkpt lat="48.39331" lon="2.71711">
        <ele>87.800003051758</ele>
        <time>2020-10-15T12:24:12Z</time>
      </trkpt>
      <trkpt lat="48.39331" lon="2.71716">
        <ele>88</ele>
        <time>2020-10-15T12:24:17Z</time>
      </trkpt>
      <trkpt lat="48.39336" lon="2.71716">
        <ele>87.800003051758</ele>
        <time>2020-10-15T12:24:22Z</time>
      </trkpt>
      <trkpt lat="48.39341" lon="2.71716">
        <ele>88</ele>
        <time>2020-10-15T12:24:27Z</time>
      </trkpt>
      <trkpt lat="48.39344" lon="2.71715">
        <ele>88</ele>
        <time>2020-10-15T12:24:32Z</time>
      </trkpt>
      <trkpt lat="48.3935" lon="2.71711">
        <ele>87.800003051758</ele>
        <time>2020-10-15T12:24:37Z</time>
      </trkpt>
      <trkpt lat="48.39352" lon="2.71711">
        <ele>88</ele>
        <time>2020-10-15T12:24:42Z</time>
      </trkpt>
      <trkpt lat="48.39355" lon="2.71708">
        <ele>88</ele>
        <time>2020-10-15T12:24:47Z</time>
      </trkpt>
      <trkpt lat="48.3936" lon="2.71705">
        <ele>88</ele>
        <time>2020-10-15T12:25:17Z</time>
      </trkpt>
      <trkpt lat="48.39364" lon="2.71702">
        <ele>88.800003051758</ele>
        <time>2020-10-15T12:25:22Z</time>
      </trkpt>
      <trkpt lat="48.39365" lon="2.71705">
        <ele>89.199996948242</ele>
        <time>2020-10-15T12:25:27Z</time>
      </trkpt>
      <trkpt lat="48.39367" lon="2.71707">
        <ele>89.400001525879</ele>
        <time>2020-10-15T12:25:32Z</time>
      </trkpt>
      <trkpt lat="48.39369" lon="2.71711">
        <ele>88.800003051758</ele>
        <time>2020-10-15T12:25:37Z</time>
      </trkpt>
      <trkpt lat="48.3937" lon="2.71716">
        <ele>88.199996948242</ele>
        <time>2020-10-15T12:25:42Z</time>
      </trkpt>
      <trkpt lat="48.39371" lon="2.71721">
        <ele>87.800003051758</ele>
        <time>2020-10-15T12:25:47Z</time>
      </trkpt>
      <trkpt lat="48.3937" lon="2.71726">
        <ele>87.400001525879</ele>
        <time>2020-10-15T12:25:52Z</time>
      </trkpt>
      <trkpt lat="48.39371" lon="2.71734">
        <ele>86.599998474121</ele>
        <time>2020-10-15T12:25:57Z</time>
      </trkpt>
      <trkpt lat="48.39369" lon="2.7174">
        <ele>86.400001525879</ele>
        <time>2020-10-15T12:26:02Z</time>
      </trkpt>
      <trkpt lat="48.39368" lon="2.71744">
        <ele>86.599998474121</ele>
        <time>2020-10-15T12:26:07Z</time>
      </trkpt>
      <trkpt lat="48.39367" lon="2.71746">
        <ele>87</ele>
        <time>2020-10-15T12:26:12Z</time>
      </trkpt>
      <trkpt lat="48.39366" lon="2.71749">
        <ele>87.199996948242</ele>
        <time>2020-10-15T12:26:17Z</time>
      </trkpt>
      <trkpt lat="48.39362" lon="2.71756">
        <ele>87.599998474121</ele>
        <time>2020-10-15T12:26:22Z</time>
      </trkpt>
      <trkpt lat="48.39361" lon="2.71761">
        <ele>87.800003051758</ele>
        <time>2020-10-15T12:26:27Z</time>
      </trkpt>
      <trkpt lat="48.3936" lon="2.71764">
        <ele>88.199996948242</ele>
        <time>2020-10-15T12:26:32Z</time>
      </trkpt>
      <trkpt lat="48.39358" lon="2.71764">
        <ele>88.599998474121</ele>
        <time>2020-10-15T12:26:37Z</time>
      </trkpt>
      <trkpt lat="48.39355" lon="2.71766">
        <ele>88.599998474121</ele>
        <time>2020-10-15T12:26:42Z</time>
      </trkpt>
      <trkpt lat="48.39351" lon="2.71767">
        <ele>88.599998474121</ele>
        <time>2020-10-15T12:26:47Z</time>
      </trkpt>
      <trkpt lat="48.3935" lon="2.71767">
        <ele>88.599998474121</ele>
        <time>2020-10-15T12:26:52Z</time>
      </trkpt>
      <trkpt lat="48.39347" lon="2.71768">
        <ele>88.599998474121</ele>
        <time>2020-10-15T12:26:57Z</time>
      </trkpt>
      <trkpt lat="48.39343" lon="2.71769">
        <ele>88.599998474121</ele>
        <time>2020-10-15T12:27:02Z</time>
      </trkpt>
      <trkpt lat="48.39339" lon="2.7177">
        <ele>88.599998474121</ele>
        <time>2020-10-15T12:27:07Z</time>
      </trkpt>
      <trkpt lat="48.39335" lon="2.71772">
        <ele>88.599998474121</ele>
        <time>2020-10-15T12:27:12Z</time>
      </trkpt>
      <trkpt lat="48.39331" lon="2.71775">
        <ele>88.599998474121</ele>
        <time>2020-10-15T12:27:17Z</time>
      </trkpt>
      <trkpt lat="48.39328" lon="2.7178">
        <ele>88.599998474121</ele>
        <time>2020-10-15T12:27:22Z</time>
      </trkpt>
      <trkpt lat="48.39326" lon="2.71785">
        <ele>88.599998474121</ele>
        <time>2020-10-15T12:27:27Z</time>
      </trkpt>
      <trkpt lat="48.39323" lon="2.7179">
        <ele>88.599998474121</ele>
        <time>2020-10-15T12:27:32Z</time>
      </trkpt>
      <trkpt lat="48.39322" lon="2.71797">
        <ele>94</ele>
        <time>2020-10-15T12:27:37Z</time>
      </trkpt>
      <trkpt lat="48.39319" lon="2.71805">
        <ele>94.199996948242</ele>
        <time>2020-10-15T12:27:42Z</time>
      </trkpt>
      <trkpt lat="48.39318" lon="2.71811">
        <ele>94.599998474121</ele>
        <time>2020-10-15T12:27:47Z</time>
      </trkpt>
      <trkpt lat="48.39317" lon="2.71817">
        <ele>95</ele>
        <time>2020-10-15T12:27:52Z</time>
      </trkpt>
      <trkpt lat="48.39315" lon="2.71823">
        <ele>95.400001525879</ele>
        <time>2020-10-15T12:27:57Z</time>
      </trkpt>
      <trkpt lat="48.39315" lon="2.71829">
        <ele>95.599998474121</ele>
        <time>2020-10-15T12:28:02Z</time>
      </trkpt>
      <trkpt lat="48.39313" lon="2.71837">
        <ele>95.800003051758</ele>
        <time>2020-10-15T12:28:07Z</time>
      </trkpt>
      <trkpt lat="48.39311" lon="2.71844">
        <ele>96.400001525879</ele>
        <time>2020-10-15T12:28:12Z</time>
      </trkpt>
      <trkpt lat="48.39311" lon="2.7185">
        <ele>96.800003051758</ele>
        <time>2020-10-15T12:28:17Z</time>
      </trkpt>
      <trkpt lat="48.3931" lon="2.71858">
        <ele>97.199996948242</ele>
        <time>2020-10-15T12:28:22Z</time>
      </trkpt>
      <trkpt lat="48.39309" lon="2.71863">
        <ele>97.599998474121</ele>
        <time>2020-10-15T12:28:27Z</time>
      </trkpt>
      <trkpt lat="48.39308" lon="2.71869">
        <ele>98.199996948242</ele>
        <time>2020-10-15T12:28:32Z</time>
      </trkpt>
      <trkpt lat="48.39305" lon="2.71875">
        <ele>98.599998474121</ele>
        <time>2020-10-15T12:28:37Z</time>
      </trkpt>
      <trkpt lat="48.39301" lon="2.71881">
        <ele>99.199996948242</ele>
        <time>2020-10-15T12:28:42Z</time>
      </trkpt>
      <trkpt lat="48.39303" lon="2.71887">
        <ele>99.400001525879</ele>
        <time>2020-10-15T12:28:47Z</time>
      </trkpt>
      <trkpt lat="48.39303" lon="2.71888">
        <ele>99.400001525879</ele>
        <time>2020-10-15T12:28:52Z</time>
      </trkpt>
      <trkpt lat="48.39304" lon="2.71889">
        <ele>99.400001525879</ele>
        <time>2020-10-15T12:28:57Z</time>
      </trkpt>
      <trkpt lat="48.39304" lon="2.71889">
        <ele>99.599998474121</ele>
        <time>2020-10-15T12:29:02Z</time>
      </trkpt>
      <trkpt lat="48.39303" lon="2.71894">
        <ele>99.599998474121</ele>
        <time>2020-10-15T12:29:07Z</time>
      </trkpt>
      <trkpt lat="48.39304" lon="2.71899">
        <ele>99.800003051758</ele>
        <time>2020-10-15T12:29:12Z</time>
      </trkpt>
      <trkpt lat="48.39306" lon="2.71905">
        <ele>100</ele>
        <time>2020-10-15T12:29:17Z</time>
      </trkpt>
      <trkpt lat="48.39308" lon="2.71911">
        <ele>100.40000152588</ele>
        <time>2020-10-15T12:29:22Z</time>
      </trkpt>
      <trkpt lat="48.39309" lon="2.71916">
        <ele>101</ele>
        <time>2020-10-15T12:29:27Z</time>
      </trkpt>
      <trkpt lat="48.39311" lon="2.71921">
        <ele>101.59999847412</ele>
        <time>2020-10-15T12:29:32Z</time>
      </trkpt>
      <trkpt lat="48.39312" lon="2.71928">
        <ele>102</ele>
        <time>2020-10-15T12:29:37Z</time>
      </trkpt>
      <trkpt lat="48.39312" lon="2.71937">
        <ele>102.40000152588</ele>
        <time>2020-10-15T12:29:42Z</time>
      </trkpt>
      <trkpt lat="48.39312" lon="2.71944">
        <ele>102.59999847412</ele>
        <time>2020-10-15T12:29:47Z</time>
      </trkpt>
      <trkpt lat="48.39314" lon="2.71951">
        <ele>103</ele>
        <time>2020-10-15T12:29:52Z</time>
      </trkpt>
      <trkpt lat="48.39316" lon="2.71958">
        <ele>103.40000152588</ele>
        <time>2020-10-15T12:29:57Z</time>
      </trkpt>
      <trkpt lat="48.39318" lon="2.71964">
        <ele>103.80000305176</ele>
        <time>2020-10-15T12:30:02Z</time>
      </trkpt>
      <trkpt lat="48.39319" lon="2.71972">
        <ele>104</ele>
        <time>2020-10-15T12:30:07Z</time>
      </trkpt>
      <trkpt lat="48.39318" lon="2.71978">
        <ele>104.40000152588</ele>
        <time>2020-10-15T12:30:12Z</time>
      </trkpt>
      <trkpt lat="48.39316" lon="2.71985">
        <ele>104.40000152588</ele>
        <time>2020-10-15T12:30:17Z</time>
      </trkpt>
      <trkpt lat="48.39313" lon="2.71993">
        <ele>104.40000152588</ele>
        <time>2020-10-15T12:30:22Z</time>
      </trkpt>
      <trkpt lat="48.39311" lon="2.72001">
        <ele>104.40000152588</ele>
        <time>2020-10-15T12:30:27Z</time>
      </trkpt>
      <trkpt lat="48.39307" lon="2.72009">
        <ele>104.19999694824</ele>
        <time>2020-10-15T12:30:32Z</time>
      </trkpt>
      <trkpt lat="48.39305" lon="2.72015">
        <ele>103.80000305176</ele>
        <time>2020-10-15T12:30:37Z</time>
      </trkpt>
      <trkpt lat="48.39301" lon="2.72021">
        <ele>103</ele>
        <time>2020-10-15T12:30:42Z</time>
      </trkpt>
      <trkpt lat="48.39298" lon="2.72028">
        <ele>102.80000305176</ele>
        <time>2020-10-15T12:30:47Z</time>
      </trkpt>
      <trkpt lat="48.39297" lon="2.72036">
        <ele>102.80000305176</ele>
        <time>2020-10-15T12:30:52Z</time>
      </trkpt>
      <trkpt lat="48.39297" lon="2.72043">
        <ele>103</ele>
        <time>2020-10-15T12:30:57Z</time>
      </trkpt>
      <trkpt lat="48.39299" lon="2.72052">
        <ele>103.40000152588</ele>
        <time>2020-10-15T12:31:02Z</time>
      </trkpt>
      <trkpt lat="48.393" lon="2.72059">
        <ele>104</ele>
        <time>2020-10-15T12:31:07Z</time>
      </trkpt>
      <trkpt lat="48.39301" lon="2.72065">
        <ele>104.59999847412</ele>
        <time>2020-10-15T12:31:12Z</time>
      </trkpt>
      <trkpt lat="48.39303" lon="2.72071">
        <ele>105.40000152588</ele>
        <time>2020-10-15T12:31:17Z</time>
      </trkpt>
      <trkpt lat="48.39305" lon="2.72077">
        <ele>106</ele>
        <time>2020-10-15T12:31:22Z</time>
      </trkpt>
      <trkpt lat="48.39308" lon="2.72082">
        <ele>106.80000305176</ele>
        <time>2020-10-15T12:31:27Z</time>
      </trkpt>
      <trkpt lat="48.39312" lon="2.72086">
        <ele>107.40000152588</ele>
        <time>2020-10-15T12:31:32Z</time>
      </trkpt>
      <trkpt lat="48.39312" lon="2.72093">
        <ele>108</ele>
        <time>2020-10-15T12:31:37Z</time>
      </trkpt>
      <trkpt lat="48.39311" lon="2.72099">
        <ele>108.40000152588</ele>
        <time>2020-10-15T12:31:42Z</time>
      </trkpt>
      <trkpt lat="48.3931" lon="2.72107">
        <ele>108.59999847412</ele>
        <time>2020-10-15T12:31:47Z</time>
      </trkpt>
      <trkpt lat="48.39309" lon="2.72115">
        <ele>108.19999694824</ele>
        <time>2020-10-15T12:31:52Z</time>
      </trkpt>
      <trkpt lat="48.39307" lon="2.72122">
        <ele>107.80000305176</ele>
        <time>2020-10-15T12:31:57Z</time>
      </trkpt>
      <trkpt lat="48.39305" lon="2.72129">
        <ele>107.59999847412</ele>
        <time>2020-10-15T12:32:02Z</time>
      </trkpt>
      <trkpt lat="48.39302" lon="2.72135">
        <ele>107</ele>
        <time>2020-10-15T12:32:07Z</time>
      </trkpt>
      <trkpt lat="48.39298" lon="2.72144">
        <ele>106.80000305176</ele>
        <time>2020-10-15T12:32:12Z</time>
      </trkpt>
      <trkpt lat="48.39296" lon="2.72153">
        <ele>106.19999694824</ele>
        <time>2020-10-15T12:32:17Z</time>
      </trkpt>
      <trkpt lat="48.39297" lon="2.72162">
        <ele>105.80000305176</ele>
        <time>2020-10-15T12:32:22Z</time>
      </trkpt>
      <trkpt lat="48.39298" lon="2.72169">
        <ele>105</ele>
        <time>2020-10-15T12:32:27Z</time>
      </trkpt>
      <trkpt lat="48.393" lon="2.72178">
        <ele>104.40000152588</ele>
        <time>2020-10-15T12:32:32Z</time>
      </trkpt>
      <trkpt lat="48.39298" lon="2.72185">
        <ele>104</ele>
        <time>2020-10-15T12:32:37Z</time>
      </trkpt>
      <trkpt lat="48.39296" lon="2.72191">
        <ele>103.59999847412</ele>
        <time>2020-10-15T12:32:42Z</time>
      </trkpt>
      <trkpt lat="48.39294" lon="2.72198">
        <ele>103</ele>
        <time>2020-10-15T12:32:47Z</time>
      </trkpt>
      <trkpt lat="48.39293" lon="2.72204">
        <ele>102.59999847412</ele>
        <time>2020-10-15T12:32:52Z</time>
      </trkpt>
      <trkpt lat="48.39292" lon="2.72211">
        <ele>101.59999847412</ele>
        <time>2020-10-15T12:32:57Z</time>
      </trkpt>
      <trkpt lat="48.39293" lon="2.72218">
        <ele>100.59999847412</ele>
        <time>2020-10-15T12:33:02Z</time>
      </trkpt>
      <trkpt lat="48.39293" lon="2.72225">
        <ele>99.199996948242</ele>
        <time>2020-10-15T12:33:07Z</time>
      </trkpt>
      <trkpt lat="48.39293" lon="2.72233">
        <ele>98.599998474121</ele>
        <time>2020-10-15T12:33:12Z</time>
      </trkpt>
      <trkpt lat="48.39293" lon="2.7224">
        <ele>98.800003051758</ele>
        <time>2020-10-15T12:33:17Z</time>
      </trkpt>
      <trkpt lat="48.39298" lon="2.72245">
        <ele>99.400001525879</ele>
        <time>2020-10-15T12:33:22Z</time>
      </trkpt>
      <trkpt lat="48.39298" lon="2.72248">
        <ele>99.599998474121</ele>
        <time>2020-10-15T12:33:27Z</time>
      </trkpt>
      <trkpt lat="48.393" lon="2.72249">
        <ele>100.19999694824</ele>
        <time>2020-10-15T12:33:32Z</time>
      </trkpt>
      <trkpt lat="48.39302" lon="2.72253">
        <ele>100.40000152588</ele>
        <time>2020-10-15T12:33:37Z</time>
      </trkpt>
      <trkpt lat="48.39303" lon="2.72258">
        <ele>100.59999847412</ele>
        <time>2020-10-15T12:33:42Z</time>
      </trkpt>
      <trkpt lat="48.39305" lon="2.72262">
        <ele>101.19999694824</ele>
        <time>2020-10-15T12:33:47Z</time>
      </trkpt>
      <trkpt lat="48.39307" lon="2.72265">
        <ele>102</ele>
        <time>2020-10-15T12:33:52Z</time>
      </trkpt>
      <trkpt lat="48.39308" lon="2.72269">
        <ele>102.59999847412</ele>
        <time>2020-10-15T12:33:57Z</time>
      </trkpt>
      <trkpt lat="48.39307" lon="2.72275">
        <ele>103</ele>
        <time>2020-10-15T12:34:02Z</time>
      </trkpt>
      <trkpt lat="48.39306" lon="2.72281">
        <ele>103.19999694824</ele>
        <time>2020-10-15T12:34:07Z</time>
      </trkpt>
      <trkpt lat="48.39305" lon="2.72286">
        <ele>103.80000305176</ele>
        <time>2020-10-15T12:34:12Z</time>
      </trkpt>
      <trkpt lat="48.39306" lon="2.72287">
        <ele>104.40000152588</ele>
        <time>2020-10-15T12:34:17Z</time>
      </trkpt>
      <trkpt lat="48.39307" lon="2.72289">
        <ele>104.59999847412</ele>
        <time>2020-10-15T12:34:22Z</time>
      </trkpt>
      <trkpt lat="48.39307" lon="2.7229">
        <ele>104.59999847412</ele>
        <time>2020-10-15T12:34:27Z</time>
      </trkpt>
      <trkpt lat="48.39308" lon="2.72291">
        <ele>104.80000305176</ele>
        <time>2020-10-15T12:34:32Z</time>
      </trkpt>
      <trkpt lat="48.39311" lon="2.72289">
        <ele>104.59999847412</ele>
        <time>2020-10-15T12:34:37Z</time>
      </trkpt>
      <trkpt lat="48.39314" lon="2.72286">
        <ele>105</ele>
        <time>2020-10-15T12:34:42Z</time>
      </trkpt>
      <trkpt lat="48.39315" lon="2.72281">
        <ele>105.19999694824</ele>
        <time>2020-10-15T12:34:47Z</time>
      </trkpt>
      <trkpt lat="48.39319" lon="2.7228">
        <ele>105</ele>
        <time>2020-10-15T12:34:52Z</time>
      </trkpt>
      <trkpt lat="48.3932" lon="2.72284">
        <ele>105.19999694824</ele>
        <time>2020-10-15T12:34:57Z</time>
      </trkpt>
      <trkpt lat="48.39318" lon="2.72288">
        <ele>106</ele>
        <time>2020-10-15T12:35:02Z</time>
      </trkpt>
      <trkpt lat="48.39315" lon="2.72293">
        <ele>107.19999694824</ele>
        <time>2020-10-15T12:35:07Z</time>
      </trkpt>
      <trkpt lat="48.39315" lon="2.72299">
        <ele>108</ele>
        <time>2020-10-15T12:35:12Z</time>
      </trkpt>
      <trkpt lat="48.39315" lon="2.72304">
        <ele>108.80000305176</ele>
        <time>2020-10-15T12:35:17Z</time>
      </trkpt>
      <trkpt lat="48.39314" lon="2.72309">
        <ele>109.19999694824</ele>
        <time>2020-10-15T12:35:22Z</time>
      </trkpt>
      <trkpt lat="48.39314" lon="2.72314">
        <ele>109.59999847412</ele>
        <time>2020-10-15T12:35:27Z</time>
      </trkpt>
      <trkpt lat="48.39311" lon="2.72315">
        <ele>110.40000152588</ele>
        <time>2020-10-15T12:35:32Z</time>
      </trkpt>
      <trkpt lat="48.39311" lon="2.7232">
        <ele>110.40000152588</ele>
        <time>2020-10-15T12:35:37Z</time>
      </trkpt>
      <trkpt lat="48.39309" lon="2.72325">
        <ele>110.40000152588</ele>
        <time>2020-10-15T12:35:42Z</time>
      </trkpt>
      <trkpt lat="48.39305" lon="2.72331">
        <ele>109.80000305176</ele>
        <time>2020-10-15T12:35:47Z</time>
      </trkpt>
      <trkpt lat="48.39304" lon="2.72337">
        <ele>109.59999847412</ele>
        <time>2020-10-15T12:35:52Z</time>
      </trkpt>
      <trkpt lat="48.39304" lon="2.72344">
        <ele>109.59999847412</ele>
        <time>2020-10-15T12:35:57Z</time>
      </trkpt>
      <trkpt lat="48.39303" lon="2.72349">
        <ele>109.80000305176</ele>
        <time>2020-10-15T12:36:02Z</time>
      </trkpt>
      <trkpt lat="48.39302" lon="2.72355">
        <ele>109.80000305176</ele>
        <time>2020-10-15T12:36:07Z</time>
      </trkpt>
      <trkpt lat="48.39302" lon="2.72362">
        <ele>109.59999847412</ele>
        <time>2020-10-15T12:36:12Z</time>
      </trkpt>
      <trkpt lat="48.39304" lon="2.72369">
        <ele>109.59999847412</ele>
        <time>2020-10-15T12:36:17Z</time>
      </trkpt>
      <trkpt lat="48.39306" lon="2.72371">
        <ele>110.19999694824</ele>
        <time>2020-10-15T12:36:22Z</time>
      </trkpt>
      <trkpt lat="48.39306" lon="2.72376">
        <ele>110.19999694824</ele>
        <time>2020-10-15T12:36:27Z</time>
      </trkpt>
      <trkpt lat="48.39306" lon="2.72379">
        <ele>109.80000305176</ele>
        <time>2020-10-15T12:36:32Z</time>
      </trkpt>
      <trkpt lat="48.39306" lon="2.72385">
        <ele>109.59999847412</ele>
        <time>2020-10-15T12:36:37Z</time>
      </trkpt>
      <trkpt lat="48.39304" lon="2.72388">
        <ele>109.40000152588</ele>
        <time>2020-10-15T12:36:42Z</time>
      </trkpt>
      <trkpt lat="48.39303" lon="2.72388">
        <ele>109</ele>
        <time>2020-10-15T12:36:47Z</time>
      </trkpt>
      <trkpt lat="48.39302" lon="2.72389">
        <ele>109</ele>
        <time>2020-10-15T12:36:52Z</time>
      </trkpt>
      <trkpt lat="48.39301" lon="2.72396">
        <ele>108.40000152588</ele>
        <time>2020-10-15T12:36:57Z</time>
      </trkpt>
      <trkpt lat="48.393" lon="2.72402">
        <ele>107.80000305176</ele>
        <time>2020-10-15T12:37:02Z</time>
      </trkpt>
      <trkpt lat="48.39301" lon="2.72411">
        <ele>107</ele>
        <time>2020-10-15T12:37:07Z</time>
      </trkpt>
      <trkpt lat="48.393" lon="2.72416">
        <ele>107</ele>
        <time>2020-10-15T12:37:12Z</time>
      </trkpt>
      <trkpt lat="48.39299" lon="2.72424">
        <ele>107</ele>
        <time>2020-10-15T12:37:17Z</time>
      </trkpt>
      <trkpt lat="48.39297" lon="2.72429">
        <ele>107</ele>
        <time>2020-10-15T12:37:22Z</time>
      </trkpt>
      <trkpt lat="48.39297" lon="2.72435">
        <ele>107.40000152588</ele>
        <time>2020-10-15T12:37:27Z</time>
      </trkpt>
      <trkpt lat="48.39296" lon="2.72443">
        <ele>108</ele>
        <time>2020-10-15T12:37:32Z</time>
      </trkpt>
      <trkpt lat="48.39297" lon="2.72449">
        <ele>108.19999694824</ele>
        <time>2020-10-15T12:37:37Z</time>
      </trkpt>
      <trkpt lat="48.39295" lon="2.72456">
        <ele>108.80000305176</ele>
        <time>2020-10-15T12:37:42Z</time>
      </trkpt>
      <trkpt lat="48.39292" lon="2.72462">
        <ele>109.19999694824</ele>
        <time>2020-10-15T12:37:47Z</time>
      </trkpt>
      <trkpt lat="48.39291" lon="2.72467">
        <ele>109.59999847412</ele>
        <time>2020-10-15T12:37:52Z</time>
      </trkpt>
      <trkpt lat="48.39289" lon="2.72474">
        <ele>110.40000152588</ele>
        <time>2020-10-15T12:37:57Z</time>
      </trkpt>
      <trkpt lat="48.39291" lon="2.72477">
        <ele>111</ele>
        <time>2020-10-15T12:38:02Z</time>
      </trkpt>
      <trkpt lat="48.39296" lon="2.72479">
        <ele>111.59999847412</ele>
        <time>2020-10-15T12:38:07Z</time>
      </trkpt>
      <trkpt lat="48.39296" lon="2.72484">
        <ele>112.19999694824</ele>
        <time>2020-10-15T12:38:32Z</time>
      </trkpt>
      <trkpt lat="48.39296" lon="2.72488">
        <ele>113</ele>
        <time>2020-10-15T12:38:37Z</time>
      </trkpt>
      <trkpt lat="48.39297" lon="2.72492">
        <ele>114</ele>
        <time>2020-10-15T12:38:42Z</time>
      </trkpt>
      <trkpt lat="48.39296" lon="2.72497">
        <ele>114.80000305176</ele>
        <time>2020-10-15T12:38:47Z</time>
      </trkpt>
      <trkpt lat="48.39296" lon="2.72502">
        <ele>114.59999847412</ele>
        <time>2020-10-15T12:38:52Z</time>
      </trkpt>
      <trkpt lat="48.39296" lon="2.72506">
        <ele>114.40000152588</ele>
        <time>2020-10-15T12:38:57Z</time>
      </trkpt>
      <trkpt lat="48.39297" lon="2.72508">
        <ele>114.59999847412</ele>
        <time>2020-10-15T12:39:02Z</time>
      </trkpt>
      <trkpt lat="48.39298" lon="2.72508">
        <ele>114.19999694824</ele>
        <time>2020-10-15T12:39:07Z</time>
      </trkpt>
      <trkpt lat="48.39298" lon="2.72509">
        <ele>114.19999694824</ele>
        <time>2020-10-15T12:39:12Z</time>
      </trkpt>
      <trkpt lat="48.39298" lon="2.72504">
        <ele>114</ele>
        <time>2020-10-15T12:39:17Z</time>
      </trkpt>
      <trkpt lat="48.39301" lon="2.72499">
        <ele>114</ele>
        <time>2020-10-15T12:39:22Z</time>
      </trkpt>
      <trkpt lat="48.39303" lon="2.72499">
        <ele>113.59999847412</ele>
        <time>2020-10-15T12:39:27Z</time>
      </trkpt>
      <trkpt lat="48.39302" lon="2.72506">
        <ele>112.80000305176</ele>
        <time>2020-10-15T12:39:32Z</time>
      </trkpt>
      <trkpt lat="48.39301" lon="2.72512">
        <ele>113</ele>
        <time>2020-10-15T12:39:37Z</time>
      </trkpt>
      <trkpt lat="48.39301" lon="2.72514">
        <ele>113.40000152588</ele>
        <time>2020-10-15T12:39:42Z</time>
      </trkpt>
      <trkpt lat="48.393" lon="2.72516">
        <ele>113.19999694824</ele>
        <time>2020-10-15T12:39:47Z</time>
      </trkpt>
      <trkpt lat="48.393" lon="2.72516">
        <ele>112.80000305176</ele>
        <time>2020-10-15T12:39:52Z</time>
      </trkpt>
      <trkpt lat="48.39303" lon="2.7252">
        <ele>112.80000305176</ele>
        <time>2020-10-15T12:39:57Z</time>
      </trkpt>
      <trkpt lat="48.39305" lon="2.72524">
        <ele>112</ele>
        <time>2020-10-15T12:40:02Z</time>
      </trkpt>
      <trkpt lat="48.39308" lon="2.72527">
        <ele>111.19999694824</ele>
        <time>2020-10-15T12:40:07Z</time>
      </trkpt>
      <trkpt lat="48.39311" lon="2.72533">
        <ele>110.40000152588</ele>
        <time>2020-10-15T12:40:12Z</time>
      </trkpt>
      <trkpt lat="48.39311" lon="2.72537">
        <ele>109.59999847412</ele>
        <time>2020-10-15T12:40:17Z</time>
      </trkpt>
      <trkpt lat="48.3931" lon="2.72539">
        <ele>108.80000305176</ele>
        <time>2020-10-15T12:40:22Z</time>
      </trkpt>
      <trkpt lat="48.39312" lon="2.72542">
        <ele>107.59999847412</ele>
        <time>2020-10-15T12:40:27Z</time>
      </trkpt>
      <trkpt lat="48.39311" lon="2.72547">
        <ele>106.40000152588</ele>
        <time>2020-10-15T12:40:32Z</time>
      </trkpt>
      <trkpt lat="48.3931" lon="2.72554">
        <ele>105.19999694824</ele>
        <time>2020-10-15T12:40:37Z</time>
      </trkpt>
      <trkpt lat="48.39309" lon="2.72559">
        <ele>104.59999847412</ele>
        <time>2020-10-15T12:40:42Z</time>
      </trkpt>
      <trkpt lat="48.3931" lon="2.72562">
        <ele>104</ele>
        <time>2020-10-15T12:40:47Z</time>
      </trkpt>
      <trkpt lat="48.3931" lon="2.72565">
        <ele>103.59999847412</ele>
        <time>2020-10-15T12:40:52Z</time>
      </trkpt>
      <trkpt lat="48.39311" lon="2.72565">
        <ele>103.19999694824</ele>
        <time>2020-10-15T12:40:57Z</time>
      </trkpt>
      <trkpt lat="48.39311" lon="2.72566">
        <ele>103.19999694824</ele>
        <time>2020-10-15T12:41:02Z</time>
      </trkpt>
      <trkpt lat="48.39314" lon="2.7257">
        <ele>103.19999694824</ele>
        <time>2020-10-15T12:41:07Z</time>
      </trkpt>
      <trkpt lat="48.39315" lon="2.72573">
        <ele>102.80000305176</ele>
        <time>2020-10-15T12:41:12Z</time>
      </trkpt>
      <trkpt lat="48.39315" lon="2.72577">
        <ele>101.80000305176</ele>
        <time>2020-10-15T12:41:17Z</time>
      </trkpt>
      <trkpt lat="48.39316" lon="2.72583">
        <ele>100.80000305176</ele>
        <time>2020-10-15T12:41:22Z</time>
      </trkpt>
      <trkpt lat="48.39316" lon="2.72591">
        <ele>99.800003051758</ele>
        <time>2020-10-15T12:41:27Z</time>
      </trkpt>
      <trkpt lat="48.39316" lon="2.72597">
        <ele>98.800003051758</ele>
        <time>2020-10-15T12:41:32Z</time>
      </trkpt>
      <trkpt lat="48.39317" lon="2.72602">
        <ele>97.599998474121</ele>
        <time>2020-10-15T12:41:37Z</time>
      </trkpt>
      <trkpt lat="48.39318" lon="2.72605">
        <ele>96.800003051758</ele>
        <time>2020-10-15T12:41:42Z</time>
      </trkpt>
      <trkpt lat="48.39317" lon="2.72607">
        <ele>96</ele>
        <time>2020-10-15T12:41:47Z</time>
      </trkpt>
      <trkpt lat="48.39315" lon="2.72613">
        <ele>95</ele>
        <time>2020-10-15T12:41:52Z</time>
      </trkpt>
      <trkpt lat="48.39311" lon="2.72617">
        <ele>93.800003051758</ele>
        <time>2020-10-15T12:41:57Z</time>
      </trkpt>
      <trkpt lat="48.39307" lon="2.72622">
        <ele>93</ele>
        <time>2020-10-15T12:42:02Z</time>
      </trkpt>
      <trkpt lat="48.39305" lon="2.72629">
        <ele>92.199996948242</ele>
        <time>2020-10-15T12:42:07Z</time>
      </trkpt>
      <trkpt lat="48.39305" lon="2.72636">
        <ele>91.800003051758</ele>
        <time>2020-10-15T12:42:12Z</time>
      </trkpt>
      <trkpt lat="48.39306" lon="2.72642">
        <ele>91.599998474121</ele>
        <time>2020-10-15T12:42:17Z</time>
      </trkpt>
      <trkpt lat="48.39305" lon="2.72649">
        <ele>91.199996948242</ele>
        <time>2020-10-15T12:42:22Z</time>
      </trkpt>
      <trkpt lat="48.39307" lon="2.72655">
        <ele>91</ele>
        <time>2020-10-15T12:42:27Z</time>
      </trkpt>
      <trkpt lat="48.39307" lon="2.72659">
        <ele>90.599998474121</ele>
        <time>2020-10-15T12:42:32Z</time>
      </trkpt>
      <trkpt lat="48.39306" lon="2.72661">
        <ele>90.400001525879</ele>
        <time>2020-10-15T12:42:37Z</time>
      </trkpt>
      <trkpt lat="48.39301" lon="2.72669">
        <ele>90.400001525879</ele>
        <time>2020-10-15T12:42:42Z</time>
      </trkpt>
      <trkpt lat="48.39301" lon="2.72676">
        <ele>90.199996948242</ele>
        <time>2020-10-15T12:42:47Z</time>
      </trkpt>
      <trkpt lat="48.39301" lon="2.72679">
        <ele>90</ele>
        <time>2020-10-15T12:42:52Z</time>
      </trkpt>
      <trkpt lat="48.39301" lon="2.72682">
        <ele>90</ele>
        <time>2020-10-15T12:42:57Z</time>
      </trkpt>
      <trkpt lat="48.39299" lon="2.72685">
        <ele>90.199996948242</ele>
        <time>2020-10-15T12:43:02Z</time>
      </trkpt>
      <trkpt lat="48.39297" lon="2.72694">
        <ele>90.199996948242</ele>
        <time>2020-10-15T12:43:07Z</time>
      </trkpt>
      <trkpt lat="48.39289" lon="2.72705">
        <ele>90.800003051758</ele>
        <time>2020-10-15T12:43:12Z</time>
      </trkpt>
      <trkpt lat="48.39286" lon="2.72712">
        <ele>90.800003051758</ele>
        <time>2020-10-15T12:43:17Z</time>
      </trkpt>
      <trkpt lat="48.39286" lon="2.72713">
        <ele>90.800003051758</ele>
        <time>2020-10-15T12:43:22Z</time>
      </trkpt>
      <trkpt lat="48.39286" lon="2.72713">
        <ele>91</ele>
        <time>2020-10-15T12:43:27Z</time>
      </trkpt>
      <trkpt lat="48.39285" lon="2.72713">
        <ele>91</ele>
        <time>2020-10-15T12:43:32Z</time>
      </trkpt>
      <trkpt lat="48.39285" lon="2.72713">
        <ele>91.199996948242</ele>
        <time>2020-10-15T12:46:07Z</time>
      </trkpt>
      <trkpt lat="48.39285" lon="2.72712">
        <ele>91.199996948242</ele>
        <time>2020-10-15T12:48:37Z</time>
      </trkpt>
      <trkpt lat="48.39287" lon="2.72725">
        <ele>91.199996948242</ele>
        <time>2020-10-15T12:48:47Z</time>
      </trkpt>
      <trkpt lat="48.39288" lon="2.72735">
        <ele>91.199996948242</ele>
        <time>2020-10-15T12:48:52Z</time>
      </trkpt>
      <trkpt lat="48.39287" lon="2.72742">
        <ele>91.199996948242</ele>
        <time>2020-10-15T12:48:57Z</time>
      </trkpt>
      <trkpt lat="48.39286" lon="2.72749">
        <ele>91.199996948242</ele>
        <time>2020-10-15T12:49:02Z</time>
      </trkpt>
      <trkpt lat="48.39286" lon="2.72757">
        <ele>90.199996948242</ele>
        <time>2020-10-15T12:49:07Z</time>
      </trkpt>
      <trkpt lat="48.39289" lon="2.72764">
        <ele>89.199996948242</ele>
        <time>2020-10-15T12:49:12Z</time>
      </trkpt>
      <trkpt lat="48.3929" lon="2.72771">
        <ele>88.599998474121</ele>
        <time>2020-10-15T12:49:17Z</time>
      </trkpt>
      <trkpt lat="48.39288" lon="2.72775">
        <ele>87.599998474121</ele>
        <time>2020-10-15T12:49:22Z</time>
      </trkpt>
      <trkpt lat="48.39285" lon="2.72781">
        <ele>87</ele>
        <time>2020-10-15T12:49:27Z</time>
      </trkpt>
      <trkpt lat="48.39286" lon="2.72787">
        <ele>86.199996948242</ele>
        <time>2020-10-15T12:49:32Z</time>
      </trkpt>
      <trkpt lat="48.39286" lon="2.72792">
        <ele>85.599998474121</ele>
        <time>2020-10-15T12:49:37Z</time>
      </trkpt>
      <trkpt lat="48.39284" lon="2.728">
        <ele>85.199996948242</ele>
        <time>2020-10-15T12:49:42Z</time>
      </trkpt>
      <trkpt lat="48.39282" lon="2.72808">
        <ele>84.800003051758</ele>
        <time>2020-10-15T12:49:47Z</time>
      </trkpt>
      <trkpt lat="48.39281" lon="2.72815">
        <ele>84.599998474121</ele>
        <time>2020-10-15T12:49:52Z</time>
      </trkpt>
      <trkpt lat="48.3928" lon="2.7282">
        <ele>84.599998474121</ele>
        <time>2020-10-15T12:49:57Z</time>
      </trkpt>
      <trkpt lat="48.39279" lon="2.72828">
        <ele>85</ele>
        <time>2020-10-15T12:50:02Z</time>
      </trkpt>
      <trkpt lat="48.39277" lon="2.72836">
        <ele>85.400001525879</ele>
        <time>2020-10-15T12:50:07Z</time>
      </trkpt>
      <trkpt lat="48.39275" lon="2.72844">
        <ele>85.800003051758</ele>
        <time>2020-10-15T12:50:12Z</time>
      </trkpt>
      <trkpt lat="48.39274" lon="2.7285">
        <ele>85.599998474121</ele>
        <time>2020-10-15T12:50:17Z</time>
      </trkpt>
      <trkpt lat="48.39273" lon="2.72854">
        <ele>85</ele>
        <time>2020-10-15T12:50:22Z</time>
      </trkpt>
      <trkpt lat="48.39271" lon="2.72855">
        <ele>84.199996948242</ele>
        <time>2020-10-15T12:50:27Z</time>
      </trkpt>
      <trkpt lat="48.3927" lon="2.72856">
        <ele>83.800003051758</ele>
        <time>2020-10-15T12:50:32Z</time>
      </trkpt>
      <trkpt lat="48.39267" lon="2.72858">
        <ele>83.199996948242</ele>
        <time>2020-10-15T12:50:37Z</time>
      </trkpt>
      <trkpt lat="48.3926" lon="2.72866">
        <ele>82.599998474121</ele>
        <time>2020-10-15T12:50:42Z</time>
      </trkpt>
      <trkpt lat="48.39255" lon="2.72874">
        <ele>82.199996948242</ele>
        <time>2020-10-15T12:50:47Z</time>
      </trkpt>
      <trkpt lat="48.39251" lon="2.72879">
        <ele>81.599998474121</ele>
        <time>2020-10-15T12:50:52Z</time>
      </trkpt>
      <trkpt lat="48.39251" lon="2.72879">
        <ele>81.400001525879</ele>
        <time>2020-10-15T12:50:57Z</time>
      </trkpt>
      <trkpt lat="48.39251" lon="2.7288">
        <ele>81.400001525879</ele>
        <time>2020-10-15T12:51:02Z</time>
      </trkpt>
      <trkpt lat="48.39249" lon="2.72882">
        <ele>81.400001525879</ele>
        <time>2020-10-15T12:51:07Z</time>
      </trkpt>
      <trkpt lat="48.39247" lon="2.72885">
        <ele>81.400001525879</ele>
        <time>2020-10-15T12:51:12Z</time>
      </trkpt>
      <trkpt lat="48.39244" lon="2.72891">
        <ele>81.400001525879</ele>
        <time>2020-10-15T12:51:17Z</time>
      </trkpt>
      <trkpt lat="48.39243" lon="2.72896">
        <ele>81.199996948242</ele>
        <time>2020-10-15T12:51:22Z</time>
      </trkpt>
      <trkpt lat="48.39242" lon="2.72898">
        <ele>81</ele>
        <time>2020-10-15T12:51:27Z</time>
      </trkpt>
      <trkpt lat="48.3924" lon="2.72901">
        <ele>80.400001525879</ele>
        <time>2020-10-15T12:51:32Z</time>
      </trkpt>
      <trkpt lat="48.39239" lon="2.72903">
        <ele>79.800003051758</ele>
        <time>2020-10-15T12:51:37Z</time>
      </trkpt>
      <trkpt lat="48.39236" lon="2.72908">
        <ele>79.400001525879</ele>
        <time>2020-10-15T12:51:42Z</time>
      </trkpt>
      <trkpt lat="48.39234" lon="2.72916">
        <ele>79.199996948242</ele>
        <time>2020-10-15T12:51:47Z</time>
      </trkpt>
      <trkpt lat="48.39234" lon="2.72918">
        <ele>79.199996948242</ele>
        <time>2020-10-15T12:51:52Z</time>
      </trkpt>
      <trkpt lat="48.39234" lon="2.7292">
        <ele>79.199996948242</ele>
        <time>2020-10-15T12:51:57Z</time>
      </trkpt>
      <trkpt lat="48.39233" lon="2.72923">
        <ele>79</ele>
        <time>2020-10-15T12:52:02Z</time>
      </trkpt>
      <trkpt lat="48.3923" lon="2.72928">
        <ele>78.599998474121</ele>
        <time>2020-10-15T12:52:07Z</time>
      </trkpt>
      <trkpt lat="48.39226" lon="2.72933">
        <ele>77.800003051758</ele>
        <time>2020-10-15T12:52:12Z</time>
      </trkpt>
      <trkpt lat="48.39226" lon="2.72934">
        <ele>77.800003051758</ele>
        <time>2020-10-15T12:52:17Z</time>
      </trkpt>
      <trkpt lat="48.39225" lon="2.72935">
        <ele>77.599998474121</ele>
        <time>2020-10-15T12:52:22Z</time>
      </trkpt>
      <trkpt lat="48.39225" lon="2.72935">
        <ele>78</ele>
        <time>2020-10-15T12:52:27Z</time>
      </trkpt>
      <trkpt lat="48.39225" lon="2.72936">
        <ele>78</ele>
        <time>2020-10-15T12:52:32Z</time>
      </trkpt>
      <trkpt lat="48.39225" lon="2.72935">
        <ele>78</ele>
        <time>2020-10-15T12:52:37Z</time>
      </trkpt>
      <trkpt lat="48.39223" lon="2.72934">
        <ele>78</ele>
        <time>2020-10-15T12:52:42Z</time>
      </trkpt>
      <trkpt lat="48.39216" lon="2.7293">
        <ele>77.400001525879</ele>
        <time>2020-10-15T12:52:47Z</time>
      </trkpt>
      <trkpt lat="48.39211" lon="2.72927">
        <ele>76.599998474121</ele>
        <time>2020-10-15T12:52:52Z</time>
      </trkpt>
      <trkpt lat="48.39206" lon="2.72925">
        <ele>75.800003051758</ele>
        <time>2020-10-15T12:52:57Z</time>
      </trkpt>
      <trkpt lat="48.39201" lon="2.72921">
        <ele>75.199996948242</ele>
        <time>2020-10-15T12:53:02Z</time>
      </trkpt>
      <trkpt lat="48.39196" lon="2.72918">
        <ele>74.800003051758</ele>
        <time>2020-10-15T12:53:07Z</time>
      </trkpt>
      <trkpt lat="48.39191" lon="2.72912">
        <ele>74.400001525879</ele>
        <time>2020-10-15T12:53:12Z</time>
      </trkpt>
      <trkpt lat="48.39187" lon="2.72908">
        <ele>74</ele>
        <time>2020-10-15T12:53:17Z</time>
      </trkpt>
      <trkpt lat="48.39183" lon="2.72903">
        <ele>73.599998474121</ele>
        <time>2020-10-15T12:53:22Z</time>
      </trkpt>
      <trkpt lat="48.39181" lon="2.72896">
        <ele>73.199996948242</ele>
        <time>2020-10-15T12:53:27Z</time>
      </trkpt>
      <trkpt lat="48.39175" lon="2.72892">
        <ele>72.800003051758</ele>
        <time>2020-10-15T12:53:32Z</time>
      </trkpt>
      <trkpt lat="48.39169" lon="2.7289">
        <ele>72.599998474121</ele>
        <time>2020-10-15T12:53:37Z</time>
      </trkpt>
      <trkpt lat="48.39164" lon="2.72885">
        <ele>72.400001525879</ele>
        <time>2020-10-15T12:53:42Z</time>
      </trkpt>
      <trkpt lat="48.39159" lon="2.72878">
        <ele>72.199996948242</ele>
        <time>2020-10-15T12:53:47Z</time>
      </trkpt>
      <trkpt lat="48.39152" lon="2.72872">
        <ele>72.199996948242</ele>
        <time>2020-10-15T12:53:52Z</time>
      </trkpt>
      <trkpt lat="48.39149" lon="2.72869">
        <ele>72</ele>
        <time>2020-10-15T12:53:57Z</time>
      </trkpt>
      <trkpt lat="48.39145" lon="2.72873">
        <ele>72</ele>
        <time>2020-10-15T12:54:02Z</time>
      </trkpt>
      <trkpt lat="48.39142" lon="2.72878">
        <ele>71.800003051758</ele>
        <time>2020-10-15T12:54:07Z</time>
      </trkpt>
      <trkpt lat="48.39138" lon="2.72883">
        <ele>71.800003051758</ele>
        <time>2020-10-15T12:54:12Z</time>
      </trkpt>
      <trkpt lat="48.39135" lon="2.72887">
        <ele>71.800003051758</ele>
        <time>2020-10-15T12:54:17Z</time>
      </trkpt>
      <trkpt lat="48.39133" lon="2.72892">
        <ele>71.800003051758</ele>
        <time>2020-10-15T12:54:22Z</time>
      </trkpt>
      <trkpt lat="48.39129" lon="2.72897">
        <ele>71.800003051758</ele>
        <time>2020-10-15T12:54:27Z</time>
      </trkpt>
      <trkpt lat="48.39126" lon="2.72902">
        <ele>71.800003051758</ele>
        <time>2020-10-15T12:54:32Z</time>
      </trkpt>
      <trkpt lat="48.39123" lon="2.72907">
        <ele>72</ele>
        <time>2020-10-15T12:54:37Z</time>
      </trkpt>
      <trkpt lat="48.39119" lon="2.72912">
        <ele>72.199996948242</ele>
        <time>2020-10-15T12:54:42Z</time>
      </trkpt>
      <trkpt lat="48.39116" lon="2.72917">
        <ele>72.199996948242</ele>
        <time>2020-10-15T12:54:47Z</time>
      </trkpt>
      <trkpt lat="48.39113" lon="2.72923">
        <ele>72.199996948242</ele>
        <time>2020-10-15T12:54:52Z</time>
      </trkpt>
      <trkpt lat="48.3911" lon="2.72929">
        <ele>72.199996948242</ele>
        <time>2020-10-15T12:54:57Z</time>
      </trkpt>
      <trkpt lat="48.39108" lon="2.72933">
        <ele>72</ele>
        <time>2020-10-15T12:55:02Z</time>
      </trkpt>
      <trkpt lat="48.39104" lon="2.72937">
        <ele>72</ele>
        <time>2020-10-15T12:55:07Z</time>
      </trkpt>
      <trkpt lat="48.39099" lon="2.72943">
        <ele>71.800003051758</ele>
        <time>2020-10-15T12:55:12Z</time>
      </trkpt>
      <trkpt lat="48.39096" lon="2.7295">
        <ele>71.599998474121</ele>
        <time>2020-10-15T12:55:17Z</time>
      </trkpt>
      <trkpt lat="48.39092" lon="2.72956">
        <ele>71.400001525879</ele>
        <time>2020-10-15T12:55:22Z</time>
      </trkpt>
      <trkpt lat="48.39091" lon="2.72961">
        <ele>71.400001525879</ele>
        <time>2020-10-15T12:55:27Z</time>
      </trkpt>
      <trkpt lat="48.3909" lon="2.72966">
        <ele>71.400001525879</ele>
        <time>2020-10-15T12:55:32Z</time>
      </trkpt>
      <trkpt lat="48.39087" lon="2.72972">
        <ele>71.400001525879</ele>
        <time>2020-10-15T12:55:37Z</time>
      </trkpt>
      <trkpt lat="48.39083" lon="2.72978">
        <ele>71.199996948242</ele>
        <time>2020-10-15T12:55:42Z</time>
      </trkpt>
      <trkpt lat="48.3908" lon="2.72984">
        <ele>71.199996948242</ele>
        <time>2020-10-15T12:55:47Z</time>
      </trkpt>
      <trkpt lat="48.39077" lon="2.72992">
        <ele>71</ele>
        <time>2020-10-15T12:55:52Z</time>
      </trkpt>
      <trkpt lat="48.39074" lon="2.72999">
        <ele>71.199996948242</ele>
        <time>2020-10-15T12:55:57Z</time>
      </trkpt>
      <trkpt lat="48.39071" lon="2.73006">
        <ele>71.199996948242</ele>
        <time>2020-10-15T12:56:02Z</time>
      </trkpt>
      <trkpt lat="48.39069" lon="2.73013">
        <ele>71.199996948242</ele>
        <time>2020-10-15T12:56:07Z</time>
      </trkpt>
      <trkpt lat="48.39067" lon="2.73019">
        <ele>71.400001525879</ele>
        <time>2020-10-15T12:56:12Z</time>
      </trkpt>
      <trkpt lat="48.39065" lon="2.73025">
        <ele>71.599998474121</ele>
        <time>2020-10-15T12:56:17Z</time>
      </trkpt>
      <trkpt lat="48.39063" lon="2.73031">
        <ele>71.599998474121</ele>
        <time>2020-10-15T12:56:22Z</time>
      </trkpt>
      <trkpt lat="48.39059" lon="2.73039">
        <ele>71.800003051758</ele>
        <time>2020-10-15T12:56:27Z</time>
      </trkpt>
      <trkpt lat="48.39057" lon="2.73046">
        <ele>72.199996948242</ele>
        <time>2020-10-15T12:56:32Z</time>
      </trkpt>
      <trkpt lat="48.39054" lon="2.73054">
        <ele>72.400001525879</ele>
        <time>2020-10-15T12:56:37Z</time>
      </trkpt>
      <trkpt lat="48.3905" lon="2.73063">
        <ele>72.599998474121</ele>
        <time>2020-10-15T12:56:42Z</time>
      </trkpt>
      <trkpt lat="48.39048" lon="2.73069">
        <ele>72.800003051758</ele>
        <time>2020-10-15T12:56:47Z</time>
      </trkpt>
      <trkpt lat="48.39046" lon="2.73074">
        <ele>73.199996948242</ele>
        <time>2020-10-15T12:56:52Z</time>
      </trkpt>
      <trkpt lat="48.39044" lon="2.73079">
        <ele>73</ele>
        <time>2020-10-15T12:56:57Z</time>
      </trkpt>
      <trkpt lat="48.3904" lon="2.73083">
        <ele>73</ele>
        <time>2020-10-15T12:57:02Z</time>
      </trkpt>
      <trkpt lat="48.39039" lon="2.73089">
        <ele>72.800003051758</ele>
        <time>2020-10-15T12:57:07Z</time>
      </trkpt>
      <trkpt lat="48.39037" lon="2.73097">
        <ele>72.800003051758</ele>
        <time>2020-10-15T12:57:12Z</time>
      </trkpt>
      <trkpt lat="48.39035" lon="2.73103">
        <ele>72.599998474121</ele>
        <time>2020-10-15T12:57:17Z</time>
      </trkpt>
      <trkpt lat="48.39034" lon="2.7311">
        <ele>72.400001525879</ele>
        <time>2020-10-15T12:57:22Z</time>
      </trkpt>
      <trkpt lat="48.39032" lon="2.73117">
        <ele>72.599998474121</ele>
        <time>2020-10-15T12:57:27Z</time>
      </trkpt>
      <trkpt lat="48.39031" lon="2.73125">
        <ele>72.400001525879</ele>
        <time>2020-10-15T12:57:32Z</time>
      </trkpt>
      <trkpt lat="48.39029" lon="2.73132">
        <ele>72.199996948242</ele>
        <time>2020-10-15T12:57:37Z</time>
      </trkpt>
      <trkpt lat="48.39027" lon="2.7314">
        <ele>72.199996948242</ele>
        <time>2020-10-15T12:57:42Z</time>
      </trkpt>
      <trkpt lat="48.39026" lon="2.73148">
        <ele>72.199996948242</ele>
        <time>2020-10-15T12:57:47Z</time>
      </trkpt>
      <trkpt lat="48.39026" lon="2.73157">
        <ele>72</ele>
        <time>2020-10-15T12:57:52Z</time>
      </trkpt>
      <trkpt lat="48.39024" lon="2.73165">
        <ele>72</ele>
        <time>2020-10-15T12:57:57Z</time>
      </trkpt>
      <trkpt lat="48.39022" lon="2.73172">
        <ele>71.800003051758</ele>
        <time>2020-10-15T12:58:02Z</time>
      </trkpt>
      <trkpt lat="48.3902" lon="2.73179">
        <ele>71.800003051758</ele>
        <time>2020-10-15T12:58:07Z</time>
      </trkpt>
      <trkpt lat="48.39018" lon="2.73186">
        <ele>71.599998474121</ele>
        <time>2020-10-15T12:58:12Z</time>
      </trkpt>
      <trkpt lat="48.39018" lon="2.73193">
        <ele>71.599998474121</ele>
        <time>2020-10-15T12:58:17Z</time>
      </trkpt>
      <trkpt lat="48.39018" lon="2.732">
        <ele>71.599998474121</ele>
        <time>2020-10-15T12:58:22Z</time>
      </trkpt>
      <trkpt lat="48.39016" lon="2.73206">
        <ele>71.599998474121</ele>
        <time>2020-10-15T12:58:27Z</time>
      </trkpt>
      <trkpt lat="48.39017" lon="2.73214">
        <ele>71.400001525879</ele>
        <time>2020-10-15T12:58:32Z</time>
      </trkpt>
      <trkpt lat="48.39016" lon="2.73222">
        <ele>71.199996948242</ele>
        <time>2020-10-15T12:58:37Z</time>
      </trkpt>
      <trkpt lat="48.39014" lon="2.73231">
        <ele>71.199996948242</ele>
        <time>2020-10-15T12:58:42Z</time>
      </trkpt>
      <trkpt lat="48.39012" lon="2.7324">
        <ele>71.199996948242</ele>
        <time>2020-10-15T12:58:47Z</time>
      </trkpt>
      <trkpt lat="48.39011" lon="2.73247">
        <ele>71.199996948242</ele>
        <time>2020-10-15T12:58:52Z</time>
      </trkpt>
      <trkpt lat="48.39008" lon="2.73256">
        <ele>71.400001525879</ele>
        <time>2020-10-15T12:58:57Z</time>
      </trkpt>
      <trkpt lat="48.39007" lon="2.73263">
        <ele>71.599998474121</ele>
        <time>2020-10-15T12:59:02Z</time>
      </trkpt>
      <trkpt lat="48.39006" lon="2.7327">
        <ele>71.599998474121</ele>
        <time>2020-10-15T12:59:07Z</time>
      </trkpt>
      <trkpt lat="48.39004" lon="2.73277">
        <ele>71.400001525879</ele>
        <time>2020-10-15T12:59:12Z</time>
      </trkpt>
      <trkpt lat="48.39005" lon="2.73277">
        <ele>71.400001525879</ele>
        <time>2020-10-15T12:59:17Z</time>
      </trkpt>
      <trkpt lat="48.39005" lon="2.73277">
        <ele>71.400001525879</ele>
        <time>2020-10-15T12:59:22Z</time>
      </trkpt>
      <trkpt lat="48.39004" lon="2.73278">
        <ele>71.400001525879</ele>
        <time>2020-10-15T12:59:32Z</time>
      </trkpt>
      <trkpt lat="48.39002" lon="2.73281">
        <ele>71.199996948242</ele>
        <time>2020-10-15T13:00:12Z</time>
      </trkpt>
      <trkpt lat="48.39002" lon="2.73281">
        <ele>71.400001525879</ele>
        <time>2020-10-15T13:00:17Z</time>
      </trkpt>
      <trkpt lat="48.39002" lon="2.73281">
        <ele>71.400001525879</ele>
        <time>2020-10-15T13:00:22Z</time>
      </trkpt>
      <trkpt lat="48.39003" lon="2.73281">
        <ele>71.400001525879</ele>
        <time>2020-10-15T13:00:27Z</time>
      </trkpt>
      <trkpt lat="48.39001" lon="2.73284">
        <ele>71.400001525879</ele>
        <time>2020-10-15T13:00:32Z</time>
      </trkpt>
      <trkpt lat="48.39001" lon="2.73284">
        <ele>71.400001525879</ele>
        <time>2020-10-15T13:00:37Z</time>
      </trkpt>
      <trkpt lat="48.39" lon="2.73284">
        <ele>71.400001525879</ele>
        <time>2020-10-15T13:00:42Z</time>
      </trkpt>
      <trkpt lat="48.38999" lon="2.73287">
        <ele>71.400001525879</ele>
        <time>2020-10-15T13:00:47Z</time>
      </trkpt>
      <trkpt lat="48.38998" lon="2.73292">
        <ele>71.400001525879</ele>
        <time>2020-10-15T13:00:52Z</time>
      </trkpt>
      <trkpt lat="48.38998" lon="2.73299">
        <ele>71.400001525879</ele>
        <time>2020-10-15T13:00:57Z</time>
      </trkpt>
      <trkpt lat="48.38997" lon="2.73306">
        <ele>71.400001525879</ele>
        <time>2020-10-15T13:01:02Z</time>
      </trkpt>
      <trkpt lat="48.38997" lon="2.73311">
        <ele>71.400001525879</ele>
        <time>2020-10-15T13:01:07Z</time>
      </trkpt>
      <trkpt lat="48.38996" lon="2.73317">
        <ele>71.400001525879</ele>
        <time>2020-10-15T13:01:12Z</time>
      </trkpt>
      <trkpt lat="48.38996" lon="2.73322">
        <ele>71.400001525879</ele>
        <time>2020-10-15T13:01:17Z</time>
      </trkpt>
      <trkpt lat="48.38996" lon="2.73328">
        <ele>71.400001525879</ele>
        <time>2020-10-15T13:01:22Z</time>
      </trkpt>
      <trkpt lat="48.38995" lon="2.73335">
        <ele>71.400001525879</ele>
        <time>2020-10-15T13:01:27Z</time>
      </trkpt>
      <trkpt lat="48.38993" lon="2.73342">
        <ele>71.400001525879</ele>
        <time>2020-10-15T13:01:32Z</time>
      </trkpt>
      <trkpt lat="48.38993" lon="2.73348">
        <ele>70.400001525879</ele>
        <time>2020-10-15T13:01:37Z</time>
      </trkpt>
      <trkpt lat="48.38992" lon="2.73354">
        <ele>70</ele>
        <time>2020-10-15T13:01:42Z</time>
      </trkpt>
      <trkpt lat="48.38992" lon="2.73361">
        <ele>70</ele>
        <time>2020-10-15T13:01:47Z</time>
      </trkpt>
      <trkpt lat="48.3899" lon="2.73369">
        <ele>69.800003051758</ele>
        <time>2020-10-15T13:01:52Z</time>
      </trkpt>
      <trkpt lat="48.38989" lon="2.73378">
        <ele>69.599998474121</ele>
        <time>2020-10-15T13:01:57Z</time>
      </trkpt>
      <trkpt lat="48.3899" lon="2.73386">
        <ele>69.599998474121</ele>
        <time>2020-10-15T13:02:02Z</time>
      </trkpt>
      <trkpt lat="48.38988" lon="2.73392">
        <ele>69.599998474121</ele>
        <time>2020-10-15T13:02:07Z</time>
      </trkpt>
      <trkpt lat="48.38987" lon="2.73401">
        <ele>69.400001525879</ele>
        <time>2020-10-15T13:02:12Z</time>
      </trkpt>
      <trkpt lat="48.38986" lon="2.73408">
        <ele>69.400001525879</ele>
        <time>2020-10-15T13:02:17Z</time>
      </trkpt>
      <trkpt lat="48.38985" lon="2.73416">
        <ele>69.199996948242</ele>
        <time>2020-10-15T13:02:22Z</time>
      </trkpt>
      <trkpt lat="48.38985" lon="2.73424">
        <ele>69.199996948242</ele>
        <time>2020-10-15T13:02:27Z</time>
      </trkpt>
      <trkpt lat="48.38984" lon="2.73431">
        <ele>69</ele>
        <time>2020-10-15T13:02:32Z</time>
      </trkpt>
      <trkpt lat="48.38985" lon="2.73438">
        <ele>68.800003051758</ele>
        <time>2020-10-15T13:02:37Z</time>
      </trkpt>
      <trkpt lat="48.38983" lon="2.73446">
        <ele>68.800003051758</ele>
        <time>2020-10-15T13:02:42Z</time>
      </trkpt>
      <trkpt lat="48.38981" lon="2.73455">
        <ele>68.599998474121</ele>
        <time>2020-10-15T13:02:47Z</time>
      </trkpt>
      <trkpt lat="48.3898" lon="2.73464">
        <ele>68.599998474121</ele>
        <time>2020-10-15T13:02:52Z</time>
      </trkpt>
      <trkpt lat="48.38978" lon="2.73472">
        <ele>68.400001525879</ele>
        <time>2020-10-15T13:02:57Z</time>
      </trkpt>
      <trkpt lat="48.38978" lon="2.73479">
        <ele>68.199996948242</ele>
        <time>2020-10-15T13:03:02Z</time>
      </trkpt>
      <trkpt lat="48.38976" lon="2.73488">
        <ele>68.199996948242</ele>
        <time>2020-10-15T13:03:07Z</time>
      </trkpt>
      <trkpt lat="48.38974" lon="2.73495">
        <ele>68.199996948242</ele>
        <time>2020-10-15T13:03:12Z</time>
      </trkpt>
      <trkpt lat="48.38972" lon="2.73501">
        <ele>68.199996948242</ele>
        <time>2020-10-15T13:03:17Z</time>
      </trkpt>
      <trkpt lat="48.38968" lon="2.73505">
        <ele>68.199996948242</ele>
        <time>2020-10-15T13:03:22Z</time>
      </trkpt>
      <trkpt lat="48.38962" lon="2.73506">
        <ele>68</ele>
        <time>2020-10-15T13:03:27Z</time>
      </trkpt>
      <trkpt lat="48.38957" lon="2.73504">
        <ele>68</ele>
        <time>2020-10-15T13:03:32Z</time>
      </trkpt>
      <trkpt lat="48.38953" lon="2.73498">
        <ele>68</ele>
        <time>2020-10-15T13:03:37Z</time>
      </trkpt>
      <trkpt lat="48.38949" lon="2.73493">
        <ele>68</ele>
        <time>2020-10-15T13:03:42Z</time>
      </trkpt>
      <trkpt lat="48.38944" lon="2.73488">
        <ele>68.199996948242</ele>
        <time>2020-10-15T13:03:47Z</time>
      </trkpt>
      <trkpt lat="48.38939" lon="2.73484">
        <ele>68.400001525879</ele>
        <time>2020-10-15T13:03:52Z</time>
      </trkpt>
      <trkpt lat="48.38934" lon="2.73479">
        <ele>68.199996948242</ele>
        <time>2020-10-15T13:03:57Z</time>
      </trkpt>
      <trkpt lat="48.3893" lon="2.73473">
        <ele>68.199996948242</ele>
        <time>2020-10-15T13:04:02Z</time>
      </trkpt>
      <trkpt lat="48.38925" lon="2.73467">
        <ele>68.400001525879</ele>
        <time>2020-10-15T13:04:07Z</time>
      </trkpt>
      <trkpt lat="48.38921" lon="2.73463">
        <ele>68.400001525879</ele>
        <time>2020-10-15T13:04:12Z</time>
      </trkpt>
      <trkpt lat="48.38917" lon="2.73458">
        <ele>68.400001525879</ele>
        <time>2020-10-15T13:04:17Z</time>
      </trkpt>
      <trkpt lat="48.38913" lon="2.73452">
        <ele>68.400001525879</ele>
        <time>2020-10-15T13:04:22Z</time>
      </trkpt>
      <trkpt lat="48.3891" lon="2.73447">
        <ele>68.599998474121</ele>
        <time>2020-10-15T13:04:27Z</time>
      </trkpt>
      <trkpt lat="48.38906" lon="2.73441">
        <ele>68.599998474121</ele>
        <time>2020-10-15T13:04:32Z</time>
      </trkpt>
      <trkpt lat="48.38902" lon="2.73435">
        <ele>68.800003051758</ele>
        <time>2020-10-15T13:04:37Z</time>
      </trkpt>
      <trkpt lat="48.38898" lon="2.73434">
        <ele>68.800003051758</ele>
        <time>2020-10-15T13:04:42Z</time>
      </trkpt>
      <trkpt lat="48.38892" lon="2.73429">
        <ele>68.800003051758</ele>
        <time>2020-10-15T13:04:47Z</time>
      </trkpt>
      <trkpt lat="48.38888" lon="2.73424">
        <ele>68.800003051758</ele>
        <time>2020-10-15T13:04:52Z</time>
      </trkpt>
      <trkpt lat="48.38884" lon="2.73417">
        <ele>68.800003051758</ele>
        <time>2020-10-15T13:04:57Z</time>
      </trkpt>
      <trkpt lat="48.38879" lon="2.73409">
        <ele>69</ele>
        <time>2020-10-15T13:05:02Z</time>
      </trkpt>
      <trkpt lat="48.38874" lon="2.73403">
        <ele>69</ele>
        <time>2020-10-15T13:05:07Z</time>
      </trkpt>
      <trkpt lat="48.38869" lon="2.73399">
        <ele>69.199996948242</ele>
        <time>2020-10-15T13:05:12Z</time>
      </trkpt>
      <trkpt lat="48.38864" lon="2.73393">
        <ele>69.199996948242</ele>
        <time>2020-10-15T13:05:17Z</time>
      </trkpt>
      <trkpt lat="48.38859" lon="2.73389">
        <ele>69.199996948242</ele>
        <time>2020-10-15T13:05:22Z</time>
      </trkpt>
      <trkpt lat="48.38856" lon="2.73383">
        <ele>69.199996948242</ele>
        <time>2020-10-15T13:05:27Z</time>
      </trkpt>
      <trkpt lat="48.38853" lon="2.73376">
        <ele>69.400001525879</ele>
        <time>2020-10-15T13:05:32Z</time>
      </trkpt>
      <trkpt lat="48.3885" lon="2.73368">
        <ele>69.400001525879</ele>
        <time>2020-10-15T13:05:37Z</time>
      </trkpt>
      <trkpt lat="48.38847" lon="2.73361">
        <ele>69.199996948242</ele>
        <time>2020-10-15T13:05:42Z</time>
      </trkpt>
      <trkpt lat="48.38845" lon="2.73357">
        <ele>69.400001525879</ele>
        <time>2020-10-15T13:05:46Z</time>
      </trkpt>
      <trkpt lat="48.38841" lon="2.73351">
        <ele>69.400001525879</ele>
        <time>2020-10-15T13:05:52Z</time>
      </trkpt>
      <trkpt lat="48.38837" lon="2.73345">
        <ele>69.599998474121</ele>
        <time>2020-10-15T13:05:57Z</time>
      </trkpt>
      <trkpt lat="48.38834" lon="2.73341">
        <ele>69.599998474121</ele>
        <time>2020-10-15T13:06:02Z</time>
      </trkpt>
      <trkpt lat="48.3883" lon="2.73335">
        <ele>69.599998474121</ele>
        <time>2020-10-15T13:06:07Z</time>
      </trkpt>
      <trkpt lat="48.38827" lon="2.73331">
        <ele>69.599998474121</ele>
        <time>2020-10-15T13:06:12Z</time>
      </trkpt>
      <trkpt lat="48.38825" lon="2.73327">
        <ele>69.599998474121</ele>
        <time>2020-10-15T13:06:17Z</time>
      </trkpt>
      <trkpt lat="48.38821" lon="2.73321">
        <ele>69.400001525879</ele>
        <time>2020-10-15T13:06:22Z</time>
      </trkpt>
      <trkpt lat="48.3882" lon="2.73317">
        <ele>69.400001525879</ele>
        <time>2020-10-15T13:06:27Z</time>
      </trkpt>
      <trkpt lat="48.38818" lon="2.73311">
        <ele>69.400001525879</ele>
        <time>2020-10-15T13:06:32Z</time>
      </trkpt>
      <trkpt lat="48.38816" lon="2.73308">
        <ele>69.400001525879</ele>
        <time>2020-10-15T13:06:37Z</time>
      </trkpt>
      <trkpt lat="48.38813" lon="2.73305">
        <ele>69.400001525879</ele>
        <time>2020-10-15T13:06:42Z</time>
      </trkpt>
      <trkpt lat="48.3881" lon="2.73299">
        <ele>69.400001525879</ele>
        <time>2020-10-15T13:06:47Z</time>
      </trkpt>
      <trkpt lat="48.38806" lon="2.73294">
        <ele>69.400001525879</ele>
        <time>2020-10-15T13:06:52Z</time>
      </trkpt>
      <trkpt lat="48.38803" lon="2.73289">
        <ele>69.199996948242</ele>
        <time>2020-10-15T13:06:57Z</time>
      </trkpt>
      <trkpt lat="48.38798" lon="2.7328">
        <ele>69.199996948242</ele>
        <time>2020-10-15T13:07:02Z</time>
      </trkpt>
      <trkpt lat="48.38792" lon="2.73274">
        <ele>69</ele>
        <time>2020-10-15T13:07:07Z</time>
      </trkpt>
      <trkpt lat="48.38787" lon="2.73272">
        <ele>69</ele>
        <time>2020-10-15T13:07:12Z</time>
      </trkpt>
      <trkpt lat="48.38784" lon="2.73269">
        <ele>69</ele>
        <time>2020-10-15T13:07:17Z</time>
      </trkpt>
      <trkpt lat="48.38781" lon="2.73266">
        <ele>69</ele>
        <time>2020-10-15T13:07:22Z</time>
      </trkpt>
      <trkpt lat="48.38777" lon="2.73263">
        <ele>68.800003051758</ele>
        <time>2020-10-15T13:07:27Z</time>
      </trkpt>
      <trkpt lat="48.38773" lon="2.73259">
        <ele>68.800003051758</ele>
        <time>2020-10-15T13:07:32Z</time>
      </trkpt>
      <trkpt lat="48.38769" lon="2.73251">
        <ele>68.599998474121</ele>
        <time>2020-10-15T13:07:37Z</time>
      </trkpt>
      <trkpt lat="48.38769" lon="2.73248">
        <ele>68.599998474121</ele>
        <time>2020-10-15T13:07:42Z</time>
      </trkpt>
      <trkpt lat="48.38767" lon="2.73248">
        <ele>68.400001525879</ele>
        <time>2020-10-15T13:07:47Z</time>
      </trkpt>
      <trkpt lat="48.38765" lon="2.73245">
        <ele>68.400001525879</ele>
        <time>2020-10-15T13:07:52Z</time>
      </trkpt>
      <trkpt lat="48.38761" lon="2.73243">
        <ele>68.199996948242</ele>
        <time>2020-10-15T13:07:57Z</time>
      </trkpt>
      <trkpt lat="48.38756" lon="2.73243">
        <ele>68.199996948242</ele>
        <time>2020-10-15T13:08:02Z</time>
      </trkpt>
      <trkpt lat="48.38754" lon="2.73241">
        <ele>68.199996948242</ele>
        <time>2020-10-15T13:08:07Z</time>
      </trkpt>
      <trkpt lat="48.38752" lon="2.73243">
        <ele>68.199996948242</ele>
        <time>2020-10-15T13:08:12Z</time>
      </trkpt>
      <trkpt lat="48.38749" lon="2.7324">
        <ele>68</ele>
        <time>2020-10-15T13:08:17Z</time>
      </trkpt>
      <trkpt lat="48.38746" lon="2.73238">
        <ele>68</ele>
        <time>2020-10-15T13:08:22Z</time>
      </trkpt>
      <trkpt lat="48.38745" lon="2.73217">
        <ele>68</ele>
        <time>2020-10-15T13:08:27Z</time>
      </trkpt>
      <trkpt lat="48.3874" lon="2.73201">
        <ele>68</ele>
        <time>2020-10-15T13:08:32Z</time>
      </trkpt>
      <trkpt lat="48.38736" lon="2.73189">
        <ele>68</ele>
        <time>2020-10-15T13:08:37Z</time>
      </trkpt>
      <trkpt lat="48.38736" lon="2.73178">
        <ele>68</ele>
        <time>2020-10-15T13:08:42Z</time>
      </trkpt>
      <trkpt lat="48.38733" lon="2.73172">
        <ele>68</ele>
        <time>2020-10-15T13:08:47Z</time>
      </trkpt>
      <trkpt lat="48.38735" lon="2.7316">
        <ele>68</ele>
        <time>2020-10-15T13:08:52Z</time>
      </trkpt>
      <trkpt lat="48.38736" lon="2.73136">
        <ele>68.199996948242</ele>
        <time>2020-10-15T13:08:57Z</time>
      </trkpt>
      <trkpt lat="48.38738" lon="2.73124">
        <ele>68.199996948242</ele>
        <time>2020-10-15T13:09:02Z</time>
      </trkpt>
      <trkpt lat="48.38739" lon="2.7312">
        <ele>67.800003051758</ele>
        <time>2020-10-15T13:09:07Z</time>
      </trkpt>
      <trkpt lat="48.3874" lon="2.73118">
        <ele>68</ele>
        <time>2020-10-15T13:09:12Z</time>
      </trkpt>
      <trkpt lat="48.38741" lon="2.73114">
        <ele>68</ele>
        <time>2020-10-15T13:09:17Z</time>
      </trkpt>
      <trkpt lat="48.38742" lon="2.73109">
        <ele>68</ele>
        <time>2020-10-15T13:09:22Z</time>
      </trkpt>
      <trkpt lat="48.38743" lon="2.73105">
        <ele>68</ele>
        <time>2020-10-15T13:09:27Z</time>
      </trkpt>
      <trkpt lat="48.38745" lon="2.73097">
        <ele>68</ele>
        <time>2020-10-15T13:09:32Z</time>
      </trkpt>
      <trkpt lat="48.38747" lon="2.73089">
        <ele>68</ele>
        <time>2020-10-15T13:09:37Z</time>
      </trkpt>
      <trkpt lat="48.3875" lon="2.7308">
        <ele>68</ele>
        <time>2020-10-15T13:09:42Z</time>
      </trkpt>
      <trkpt lat="48.3875" lon="2.73074">
        <ele>68</ele>
        <time>2020-10-15T13:09:47Z</time>
      </trkpt>
      <trkpt lat="48.3875" lon="2.73071">
        <ele>68</ele>
        <time>2020-10-15T13:09:52Z</time>
      </trkpt>
      <trkpt lat="48.38751" lon="2.73067">
        <ele>67.800003051758</ele>
        <time>2020-10-15T13:09:57Z</time>
      </trkpt>
      <trkpt lat="48.38752" lon="2.73062">
        <ele>67.800003051758</ele>
        <time>2020-10-15T13:10:02Z</time>
      </trkpt>
      <trkpt lat="48.38756" lon="2.73047">
        <ele>67.599998474121</ele>
        <time>2020-10-15T13:10:07Z</time>
      </trkpt>
      <trkpt lat="48.38758" lon="2.73035">
        <ele>67.599998474121</ele>
        <time>2020-10-15T13:10:12Z</time>
      </trkpt>
      <trkpt lat="48.38758" lon="2.73028">
        <ele>67.599998474121</ele>
        <time>2020-10-15T13:10:17Z</time>
      </trkpt>
      <trkpt lat="48.38758" lon="2.73018">
        <ele>67.800003051758</ele>
        <time>2020-10-15T13:10:22Z</time>
      </trkpt>
      <trkpt lat="48.38761" lon="2.73008">
        <ele>67.800003051758</ele>
        <time>2020-10-15T13:10:27Z</time>
      </trkpt>
      <trkpt lat="48.38764" lon="2.72998">
        <ele>68</ele>
        <time>2020-10-15T13:10:32Z</time>
      </trkpt>
      <trkpt lat="48.38766" lon="2.72989">
        <ele>68</ele>
        <time>2020-10-15T13:10:37Z</time>
      </trkpt>
      <trkpt lat="48.38768" lon="2.7298">
        <ele>68</ele>
        <time>2020-10-15T13:10:42Z</time>
      </trkpt>
      <trkpt lat="48.38769" lon="2.72976">
        <ele>68</ele>
        <time>2020-10-15T13:10:47Z</time>
      </trkpt>
      <trkpt lat="48.3877" lon="2.72973">
        <ele>67.800003051758</ele>
        <time>2020-10-15T13:10:52Z</time>
      </trkpt>
      <trkpt lat="48.38771" lon="2.7297">
        <ele>67.800003051758</ele>
        <time>2020-10-15T13:10:57Z</time>
      </trkpt>
      <trkpt lat="48.38772" lon="2.72965">
        <ele>67.800003051758</ele>
        <time>2020-10-15T13:11:02Z</time>
      </trkpt>
      <trkpt lat="48.38775" lon="2.72959">
        <ele>67.800003051758</ele>
        <time>2020-10-15T13:11:07Z</time>
      </trkpt>
      <trkpt lat="48.38781" lon="2.72947">
        <ele>67.800003051758</ele>
        <time>2020-10-15T13:11:12Z</time>
      </trkpt>
      <trkpt lat="48.38782" lon="2.72939">
        <ele>67.800003051758</ele>
        <time>2020-10-15T13:11:17Z</time>
      </trkpt>
      <trkpt lat="48.38783" lon="2.72931">
        <ele>67.800003051758</ele>
        <time>2020-10-15T13:11:22Z</time>
      </trkpt>
      <trkpt lat="48.38785" lon="2.72928">
        <ele>67.800003051758</ele>
        <time>2020-10-15T13:11:27Z</time>
      </trkpt>
      <trkpt lat="48.38785" lon="2.72921">
        <ele>68</ele>
        <time>2020-10-15T13:11:32Z</time>
      </trkpt>
      <trkpt lat="48.38785" lon="2.72912">
        <ele>68</ele>
        <time>2020-10-15T13:11:37Z</time>
      </trkpt>
      <trkpt lat="48.38789" lon="2.729">
        <ele>68</ele>
        <time>2020-10-15T13:11:42Z</time>
      </trkpt>
      <trkpt lat="48.3879" lon="2.72891">
        <ele>68</ele>
        <time>2020-10-15T13:11:47Z</time>
      </trkpt>
      <trkpt lat="48.38791" lon="2.72883">
        <ele>67.599998474121</ele>
        <time>2020-10-15T13:11:52Z</time>
      </trkpt>
      <trkpt lat="48.38792" lon="2.72875">
        <ele>67.599998474121</ele>
        <time>2020-10-15T13:11:57Z</time>
      </trkpt>
      <trkpt lat="48.38794" lon="2.72869">
        <ele>67.599998474121</ele>
        <time>2020-10-15T13:12:02Z</time>
      </trkpt>
      <trkpt lat="48.38797" lon="2.72862">
        <ele>67.599998474121</ele>
        <time>2020-10-15T13:12:07Z</time>
      </trkpt>
      <trkpt lat="48.38797" lon="2.72855">
        <ele>67.599998474121</ele>
        <time>2020-10-15T13:12:12Z</time>
      </trkpt>
      <trkpt lat="48.38798" lon="2.72852">
        <ele>67.400001525879</ele>
        <time>2020-10-15T13:12:17Z</time>
      </trkpt>
      <trkpt lat="48.38798" lon="2.72841">
        <ele>67.199996948242</ele>
        <time>2020-10-15T13:12:22Z</time>
      </trkpt>
      <trkpt lat="48.388" lon="2.72826">
        <ele>67.199996948242</ele>
        <time>2020-10-15T13:12:27Z</time>
      </trkpt>
      <trkpt lat="48.38801" lon="2.72814">
        <ele>67.199996948242</ele>
        <time>2020-10-15T13:12:32Z</time>
      </trkpt>
      <trkpt lat="48.38802" lon="2.72804">
        <ele>67.199996948242</ele>
        <time>2020-10-15T13:12:37Z</time>
      </trkpt>
      <trkpt lat="48.38802" lon="2.72796">
        <ele>67</ele>
        <time>2020-10-15T13:12:42Z</time>
      </trkpt>
      <trkpt lat="48.38804" lon="2.72788">
        <ele>67</ele>
        <time>2020-10-15T13:12:47Z</time>
      </trkpt>
      <trkpt lat="48.38806" lon="2.7278">
        <ele>66.800003051758</ele>
        <time>2020-10-15T13:12:52Z</time>
      </trkpt>
      <trkpt lat="48.38807" lon="2.72772">
        <ele>66.800003051758</ele>
        <time>2020-10-15T13:12:57Z</time>
      </trkpt>
      <trkpt lat="48.38807" lon="2.72764">
        <ele>66.800003051758</ele>
        <time>2020-10-15T13:13:02Z</time>
      </trkpt>
      <trkpt lat="48.38809" lon="2.72757">
        <ele>66.800003051758</ele>
        <time>2020-10-15T13:13:07Z</time>
      </trkpt>
      <trkpt lat="48.3881" lon="2.72751">
        <ele>66.599998474121</ele>
        <time>2020-10-15T13:13:12Z</time>
      </trkpt>
      <trkpt lat="48.38811" lon="2.72747">
        <ele>66.599998474121</ele>
        <time>2020-10-15T13:13:17Z</time>
      </trkpt>
      <trkpt lat="48.38812" lon="2.72739">
        <ele>66.599998474121</ele>
        <time>2020-10-15T13:13:22Z</time>
      </trkpt>
      <trkpt lat="48.38813" lon="2.72732">
        <ele>66.599998474121</ele>
        <time>2020-10-15T13:13:27Z</time>
      </trkpt>
      <trkpt lat="48.38815" lon="2.72724">
        <ele>66.599998474121</ele>
        <time>2020-10-15T13:13:32Z</time>
      </trkpt>
      <trkpt lat="48.38818" lon="2.72713">
        <ele>66.800003051758</ele>
        <time>2020-10-15T13:13:37Z</time>
      </trkpt>
      <trkpt lat="48.3882" lon="2.72706">
        <ele>67.199996948242</ele>
        <time>2020-10-15T13:13:42Z</time>
      </trkpt>
      <trkpt lat="48.3882" lon="2.72695">
        <ele>67.400001525879</ele>
        <time>2020-10-15T13:13:47Z</time>
      </trkpt>
      <trkpt lat="48.38821" lon="2.72687">
        <ele>67.599998474121</ele>
        <time>2020-10-15T13:13:52Z</time>
      </trkpt>
      <trkpt lat="48.38822" lon="2.72678">
        <ele>67.599998474121</ele>
        <time>2020-10-15T13:13:57Z</time>
      </trkpt>
      <trkpt lat="48.38824" lon="2.72671">
        <ele>68</ele>
        <time>2020-10-15T13:14:02Z</time>
      </trkpt>
      <trkpt lat="48.38826" lon="2.72664">
        <ele>68.199996948242</ele>
        <time>2020-10-15T13:14:07Z</time>
      </trkpt>
      <trkpt lat="48.38829" lon="2.72656">
        <ele>68.400001525879</ele>
        <time>2020-10-15T13:14:12Z</time>
      </trkpt>
      <trkpt lat="48.38829" lon="2.72648">
        <ele>68.199996948242</ele>
        <time>2020-10-15T13:14:17Z</time>
      </trkpt>
      <trkpt lat="48.3883" lon="2.72641">
        <ele>67.800003051758</ele>
        <time>2020-10-15T13:14:22Z</time>
      </trkpt>
      <trkpt lat="48.38832" lon="2.72634">
        <ele>67.599998474121</ele>
        <time>2020-10-15T13:14:27Z</time>
      </trkpt>
      <trkpt lat="48.38835" lon="2.72628">
        <ele>67.599998474121</ele>
        <time>2020-10-15T13:14:32Z</time>
      </trkpt>
      <trkpt lat="48.38836" lon="2.72622">
        <ele>67.400001525879</ele>
        <time>2020-10-15T13:14:37Z</time>
      </trkpt>
      <trkpt lat="48.38838" lon="2.72615">
        <ele>67.599998474121</ele>
        <time>2020-10-15T13:14:42Z</time>
      </trkpt>
      <trkpt lat="48.38839" lon="2.72605">
        <ele>67.800003051758</ele>
        <time>2020-10-15T13:14:47Z</time>
      </trkpt>
      <trkpt lat="48.38841" lon="2.72597">
        <ele>68</ele>
        <time>2020-10-15T13:14:52Z</time>
      </trkpt>
      <trkpt lat="48.38841" lon="2.72589">
        <ele>68</ele>
        <time>2020-10-15T13:14:57Z</time>
      </trkpt>
      <trkpt lat="48.38841" lon="2.7258">
        <ele>67.800003051758</ele>
        <time>2020-10-15T13:15:02Z</time>
      </trkpt>
      <trkpt lat="48.38841" lon="2.72572">
        <ele>67.800003051758</ele>
        <time>2020-10-15T13:15:07Z</time>
      </trkpt>
      <trkpt lat="48.38842" lon="2.72565">
        <ele>67.400001525879</ele>
        <time>2020-10-15T13:15:12Z</time>
      </trkpt>
      <trkpt lat="48.38843" lon="2.72562">
        <ele>67.199996948242</ele>
        <time>2020-10-15T13:15:17Z</time>
      </trkpt>
      <trkpt lat="48.38845" lon="2.72557">
        <ele>66.800003051758</ele>
        <time>2020-10-15T13:15:22Z</time>
      </trkpt>
      <trkpt lat="48.38848" lon="2.72544">
        <ele>66.599998474121</ele>
        <time>2020-10-15T13:15:27Z</time>
      </trkpt>
      <trkpt lat="48.38849" lon="2.7253">
        <ele>66.400001525879</ele>
        <time>2020-10-15T13:15:32Z</time>
      </trkpt>
      <trkpt lat="48.38852" lon="2.7252">
        <ele>66.400001525879</ele>
        <time>2020-10-15T13:15:37Z</time>
      </trkpt>
      <trkpt lat="48.38854" lon="2.72511">
        <ele>66.400001525879</ele>
        <time>2020-10-15T13:15:42Z</time>
      </trkpt>
      <trkpt lat="48.38854" lon="2.725">
        <ele>66.400001525879</ele>
        <time>2020-10-15T13:15:47Z</time>
      </trkpt>
      <trkpt lat="48.38856" lon="2.72482">
        <ele>66.599998474121</ele>
        <time>2020-10-15T13:15:52Z</time>
      </trkpt>
      <trkpt lat="48.38857" lon="2.72475">
        <ele>66.800003051758</ele>
        <time>2020-10-15T13:15:57Z</time>
      </trkpt>
      <trkpt lat="48.38858" lon="2.72469">
        <ele>67</ele>
        <time>2020-10-15T13:16:02Z</time>
      </trkpt>
      <trkpt lat="48.38859" lon="2.7246">
        <ele>67</ele>
        <time>2020-10-15T13:16:07Z</time>
      </trkpt>
      <trkpt lat="48.3886" lon="2.72454">
        <ele>67.199996948242</ele>
        <time>2020-10-15T13:16:12Z</time>
      </trkpt>
      <trkpt lat="48.38859" lon="2.72455">
        <ele>67.400001525879</ele>
        <time>2020-10-15T13:16:17Z</time>
      </trkpt>
      <trkpt lat="48.3886" lon="2.72456">
        <ele>67.400001525879</ele>
        <time>2020-10-15T13:16:22Z</time>
      </trkpt>
      <trkpt lat="48.38861" lon="2.72455">
        <ele>67.400001525879</ele>
        <time>2020-10-15T13:16:27Z</time>
      </trkpt>
      <trkpt lat="48.38865" lon="2.72449">
        <ele>67.400001525879</ele>
        <time>2020-10-15T13:16:32Z</time>
      </trkpt>
      <trkpt lat="48.3887" lon="2.72446">
        <ele>67.800003051758</ele>
        <time>2020-10-15T13:16:37Z</time>
      </trkpt>
      <trkpt lat="48.38874" lon="2.72445">
        <ele>67.800003051758</ele>
        <time>2020-10-15T13:16:42Z</time>
      </trkpt>
      <trkpt lat="48.38879" lon="2.72442">
        <ele>67.800003051758</ele>
        <time>2020-10-15T13:16:47Z</time>
      </trkpt>
      <trkpt lat="48.38884" lon="2.72436">
        <ele>67.800003051758</ele>
        <time>2020-10-15T13:16:52Z</time>
      </trkpt>
      <trkpt lat="48.38889" lon="2.72433">
        <ele>68</ele>
        <time>2020-10-15T13:16:57Z</time>
      </trkpt>
      <trkpt lat="48.38894" lon="2.72429">
        <ele>67.800003051758</ele>
        <time>2020-10-15T13:17:02Z</time>
      </trkpt>
      <trkpt lat="48.389" lon="2.72424">
        <ele>67.800003051758</ele>
        <time>2020-10-15T13:17:07Z</time>
      </trkpt>
      <trkpt lat="48.38904" lon="2.72421">
        <ele>67.800003051758</ele>
        <time>2020-10-15T13:17:12Z</time>
      </trkpt>
      <trkpt lat="48.38907" lon="2.72418">
        <ele>67.800003051758</ele>
        <time>2020-10-15T13:17:17Z</time>
      </trkpt>
      <trkpt lat="48.38908" lon="2.72418">
        <ele>67.800003051758</ele>
        <time>2020-10-15T13:17:22Z</time>
      </trkpt>
      <trkpt lat="48.38908" lon="2.72417">
        <ele>67.800003051758</ele>
        <time>2020-10-15T13:17:27Z</time>
      </trkpt>
      <trkpt lat="48.38909" lon="2.72415">
        <ele>67.599998474121</ele>
        <time>2020-10-15T13:17:32Z</time>
      </trkpt>
      <trkpt lat="48.38909" lon="2.72414">
        <ele>67.599998474121</ele>
        <time>2020-10-15T13:17:42Z</time>
      </trkpt>
      <trkpt lat="48.38909" lon="2.72412">
        <ele>67.400001525879</ele>
        <time>2020-10-15T13:20:37Z</time>
      </trkpt>
      <trkpt lat="48.38917" lon="2.72405">
        <ele>67.400001525879</ele>
        <time>2020-10-15T13:21:22Z</time>
      </trkpt>
      <trkpt lat="48.38922" lon="2.72404">
        <ele>67.400001525879</ele>
        <time>2020-10-15T13:21:27Z</time>
      </trkpt>
      <trkpt lat="48.38927" lon="2.72403">
        <ele>67.400001525879</ele>
        <time>2020-10-15T13:21:32Z</time>
      </trkpt>
      <trkpt lat="48.38932" lon="2.72401">
        <ele>67.400001525879</ele>
        <time>2020-10-15T13:21:37Z</time>
      </trkpt>
      <trkpt lat="48.38936" lon="2.72401">
        <ele>67.199996948242</ele>
        <time>2020-10-15T13:21:42Z</time>
      </trkpt>
      <trkpt lat="48.38939" lon="2.72397">
        <ele>67.199996948242</ele>
        <time>2020-10-15T13:21:47Z</time>
      </trkpt>
      <trkpt lat="48.38944" lon="2.72396">
        <ele>67.199996948242</ele>
        <time>2020-10-15T13:21:52Z</time>
      </trkpt>
      <trkpt lat="48.38949" lon="2.72392">
        <ele>67.199996948242</ele>
        <time>2020-10-15T13:21:57Z</time>
      </trkpt>
      <trkpt lat="48.38955" lon="2.7239">
        <ele>67.199996948242</ele>
        <time>2020-10-15T13:22:02Z</time>
      </trkpt>
      <trkpt lat="48.38958" lon="2.72387">
        <ele>67.400001525879</ele>
        <time>2020-10-15T13:22:07Z</time>
      </trkpt>
      <trkpt lat="48.38963" lon="2.72385">
        <ele>67.199996948242</ele>
        <time>2020-10-15T13:22:12Z</time>
      </trkpt>
      <trkpt lat="48.38968" lon="2.7238">
        <ele>67.199996948242</ele>
        <time>2020-10-15T13:22:17Z</time>
      </trkpt>
      <trkpt lat="48.38973" lon="2.72374">
        <ele>67.199996948242</ele>
        <time>2020-10-15T13:22:22Z</time>
      </trkpt>
      <trkpt lat="48.38974" lon="2.72374">
        <ele>67</ele>
        <time>2020-10-15T13:22:27Z</time>
      </trkpt>
      <trkpt lat="48.38978" lon="2.72372">
        <ele>67.199996948242</ele>
        <time>2020-10-15T13:22:32Z</time>
      </trkpt>
      <trkpt lat="48.38983" lon="2.72368">
        <ele>67.199996948242</ele>
        <time>2020-10-15T13:22:37Z</time>
      </trkpt>
      <trkpt lat="48.38987" lon="2.72366">
        <ele>67.199996948242</ele>
        <time>2020-10-15T13:22:42Z</time>
      </trkpt>
      <trkpt lat="48.38991" lon="2.72365">
        <ele>67.199996948242</ele>
        <time>2020-10-15T13:22:47Z</time>
      </trkpt>
      <trkpt lat="48.38995" lon="2.72363">
        <ele>67.400001525879</ele>
        <time>2020-10-15T13:22:52Z</time>
      </trkpt>
      <trkpt lat="48.38999" lon="2.72358">
        <ele>67.599998474121</ele>
        <time>2020-10-15T13:22:57Z</time>
      </trkpt>
      <trkpt lat="48.39005" lon="2.72353">
        <ele>67.599998474121</ele>
        <time>2020-10-15T13:23:02Z</time>
      </trkpt>
      <trkpt lat="48.3901" lon="2.72349">
        <ele>67.599998474121</ele>
        <time>2020-10-15T13:23:07Z</time>
      </trkpt>
      <trkpt lat="48.39015" lon="2.72343">
        <ele>67.599998474121</ele>
        <time>2020-10-15T13:23:12Z</time>
      </trkpt>
      <trkpt lat="48.3902" lon="2.72338">
        <ele>67.400001525879</ele>
        <time>2020-10-15T13:23:17Z</time>
      </trkpt>
      <trkpt lat="48.39029" lon="2.72331">
        <ele>67.599998474121</ele>
        <time>2020-10-15T13:23:22Z</time>
      </trkpt>
      <trkpt lat="48.39031" lon="2.72328">
        <ele>67.800003051758</ele>
        <time>2020-10-15T13:23:27Z</time>
      </trkpt>
      <trkpt lat="48.39031" lon="2.72327">
        <ele>67.800003051758</ele>
        <time>2020-10-15T13:23:32Z</time>
      </trkpt>
      <trkpt lat="48.3903" lon="2.72324">
        <ele>67.400001525879</ele>
        <time>2020-10-15T13:23:37Z</time>
      </trkpt>
      <trkpt lat="48.3903" lon="2.72321">
        <ele>67.599998474121</ele>
        <time>2020-10-15T13:23:42Z</time>
      </trkpt>
      <trkpt lat="48.39031" lon="2.72319">
        <ele>67.599998474121</ele>
        <time>2020-10-15T13:23:47Z</time>
      </trkpt>
      <trkpt lat="48.3903" lon="2.72313">
        <ele>67.599998474121</ele>
        <time>2020-10-15T13:23:52Z</time>
      </trkpt>
      <trkpt lat="48.39027" lon="2.72293">
        <ele>67.599998474121</ele>
        <time>2020-10-15T13:23:57Z</time>
      </trkpt>
      <trkpt lat="48.39023" lon="2.72285">
        <ele>67.800003051758</ele>
        <time>2020-10-15T13:24:02Z</time>
      </trkpt>
      <trkpt lat="48.3902" lon="2.72277">
        <ele>67.800003051758</ele>
        <time>2020-10-15T13:24:07Z</time>
      </trkpt>
      <trkpt lat="48.39017" lon="2.7227">
        <ele>67.800003051758</ele>
        <time>2020-10-15T13:24:12Z</time>
      </trkpt>
      <trkpt lat="48.39015" lon="2.7226">
        <ele>67.800003051758</ele>
        <time>2020-10-15T13:24:17Z</time>
      </trkpt>
      <trkpt lat="48.39012" lon="2.72252">
        <ele>67.800003051758</ele>
        <time>2020-10-15T13:24:22Z</time>
      </trkpt>
      <trkpt lat="48.3901" lon="2.72244">
        <ele>67.599998474121</ele>
        <time>2020-10-15T13:24:27Z</time>
      </trkpt>
      <trkpt lat="48.39009" lon="2.72237">
        <ele>67.800003051758</ele>
        <time>2020-10-15T13:24:32Z</time>
      </trkpt>
      <trkpt lat="48.39008" lon="2.7223">
        <ele>68</ele>
        <time>2020-10-15T13:24:37Z</time>
      </trkpt>
      <trkpt lat="48.39006" lon="2.72225">
        <ele>68.199996948242</ele>
        <time>2020-10-15T13:24:42Z</time>
      </trkpt>
      <trkpt lat="48.39004" lon="2.72217">
        <ele>68.400001525879</ele>
        <time>2020-10-15T13:24:47Z</time>
      </trkpt>
      <trkpt lat="48.39002" lon="2.72209">
        <ele>68.400001525879</ele>
        <time>2020-10-15T13:24:52Z</time>
      </trkpt>
      <trkpt lat="48.38998" lon="2.72201">
        <ele>68.800003051758</ele>
        <time>2020-10-15T13:24:57Z</time>
      </trkpt>
      <trkpt lat="48.38994" lon="2.72195">
        <ele>69</ele>
        <time>2020-10-15T13:25:02Z</time>
      </trkpt>
      <trkpt lat="48.38991" lon="2.72186">
        <ele>69.199996948242</ele>
        <time>2020-10-15T13:25:07Z</time>
      </trkpt>
      <trkpt lat="48.38987" lon="2.72179">
        <ele>69.400001525879</ele>
        <time>2020-10-15T13:25:12Z</time>
      </trkpt>
      <trkpt lat="48.38985" lon="2.72172">
        <ele>69.800003051758</ele>
        <time>2020-10-15T13:25:17Z</time>
      </trkpt>
      <trkpt lat="48.38981" lon="2.72166">
        <ele>70</ele>
        <time>2020-10-15T13:25:22Z</time>
      </trkpt>
      <trkpt lat="48.38981" lon="2.72158">
        <ele>70</ele>
        <time>2020-10-15T13:25:27Z</time>
      </trkpt>
      <trkpt lat="48.38978" lon="2.72151">
        <ele>70.199996948242</ele>
        <time>2020-10-15T13:25:32Z</time>
      </trkpt>
      <trkpt lat="48.38977" lon="2.72142">
        <ele>70.199996948242</ele>
        <time>2020-10-15T13:25:37Z</time>
      </trkpt>
      <trkpt lat="48.38976" lon="2.72134">
        <ele>70</ele>
        <time>2020-10-15T13:25:42Z</time>
      </trkpt>
      <trkpt lat="48.38975" lon="2.72125">
        <ele>70</ele>
        <time>2020-10-15T13:25:47Z</time>
      </trkpt>
      <trkpt lat="48.38973" lon="2.72118">
        <ele>70</ele>
        <time>2020-10-15T13:25:52Z</time>
      </trkpt>
      <trkpt lat="48.38973" lon="2.72108">
        <ele>70</ele>
        <time>2020-10-15T13:25:57Z</time>
      </trkpt>
      <trkpt lat="48.38971" lon="2.72102">
        <ele>70.199996948242</ele>
        <time>2020-10-15T13:26:02Z</time>
      </trkpt>
      <trkpt lat="48.3897" lon="2.72091">
        <ele>70.199996948242</ele>
        <time>2020-10-15T13:26:07Z</time>
      </trkpt>
      <trkpt lat="48.38969" lon="2.72082">
        <ele>70.199996948242</ele>
        <time>2020-10-15T13:26:12Z</time>
      </trkpt>
      <trkpt lat="48.38968" lon="2.72073">
        <ele>70.400001525879</ele>
        <time>2020-10-15T13:26:17Z</time>
      </trkpt>
      <trkpt lat="48.38969" lon="2.72063">
        <ele>70.400001525879</ele>
        <time>2020-10-15T13:26:22Z</time>
      </trkpt>
      <trkpt lat="48.3897" lon="2.72053">
        <ele>70.400001525879</ele>
        <time>2020-10-15T13:26:27Z</time>
      </trkpt>
      <trkpt lat="48.38971" lon="2.72044">
        <ele>70.400001525879</ele>
        <time>2020-10-15T13:26:32Z</time>
      </trkpt>
      <trkpt lat="48.38971" lon="2.72036">
        <ele>70.599998474121</ele>
        <time>2020-10-15T13:26:37Z</time>
      </trkpt>
      <trkpt lat="48.3897" lon="2.72028">
        <ele>70.400001525879</ele>
        <time>2020-10-15T13:26:42Z</time>
      </trkpt>
      <trkpt lat="48.3897" lon="2.7202">
        <ele>70.599998474121</ele>
        <time>2020-10-15T13:26:47Z</time>
      </trkpt>
      <trkpt lat="48.38969" lon="2.72012">
        <ele>70.599998474121</ele>
        <time>2020-10-15T13:26:52Z</time>
      </trkpt>
      <trkpt lat="48.38967" lon="2.72005">
        <ele>70.400001525879</ele>
        <time>2020-10-15T13:26:57Z</time>
      </trkpt>
      <trkpt lat="48.38967" lon="2.72001">
        <ele>70.599998474121</ele>
        <time>2020-10-15T13:27:02Z</time>
      </trkpt>
      <trkpt lat="48.38966" lon="2.72002">
        <ele>70.599998474121</ele>
        <time>2020-10-15T13:27:07Z</time>
      </trkpt>
      <trkpt lat="48.38967" lon="2.72002">
        <ele>70.599998474121</ele>
        <time>2020-10-15T13:27:12Z</time>
      </trkpt>
      <trkpt lat="48.38968" lon="2.72003">
        <ele>70.599998474121</ele>
        <time>2020-10-15T13:28:47Z</time>
      </trkpt>
      <trkpt lat="48.38966" lon="2.71999">
        <ele>70.599998474121</ele>
        <time>2020-10-15T13:28:57Z</time>
      </trkpt>
      <trkpt lat="48.38965" lon="2.71992">
        <ele>70.599998474121</ele>
        <time>2020-10-15T13:29:02Z</time>
      </trkpt>
      <trkpt lat="48.38964" lon="2.71987">
        <ele>70.599998474121</ele>
        <time>2020-10-15T13:29:07Z</time>
      </trkpt>
      <trkpt lat="48.38962" lon="2.71983">
        <ele>70.599998474121</ele>
        <time>2020-10-15T13:29:12Z</time>
      </trkpt>
      <trkpt lat="48.38962" lon="2.71981">
        <ele>70.599998474121</ele>
        <time>2020-10-15T13:29:17Z</time>
      </trkpt>
      <trkpt lat="48.38962" lon="2.71978">
        <ele>70.599998474121</ele>
        <time>2020-10-15T13:29:27Z</time>
      </trkpt>
      <trkpt lat="48.38962" lon="2.71977">
        <ele>70.599998474121</ele>
        <time>2020-10-15T13:29:32Z</time>
      </trkpt>
      <trkpt lat="48.38963" lon="2.71975">
        <ele>70.599998474121</ele>
        <time>2020-10-15T13:30:02Z</time>
      </trkpt>
      <trkpt lat="48.38964" lon="2.71975">
        <ele>70.599998474121</ele>
        <time>2020-10-15T13:30:42Z</time>
      </trkpt>
      <trkpt lat="48.38964" lon="2.71976">
        <ele>70.599998474121</ele>
        <time>2020-10-15T13:30:47Z</time>
      </trkpt>
      <trkpt lat="48.38965" lon="2.7197">
        <ele>70.599998474121</ele>
        <time>2020-10-15T13:31:07Z</time>
      </trkpt>
      <trkpt lat="48.38964" lon="2.71968">
        <ele>70.599998474121</ele>
        <time>2020-10-15T13:31:12Z</time>
      </trkpt>
      <trkpt lat="48.38962" lon="2.71963">
        <ele>70.599998474121</ele>
        <time>2020-10-15T13:31:17Z</time>
      </trkpt>
      <trkpt lat="48.38961" lon="2.71958">
        <ele>70.599998474121</ele>
        <time>2020-10-15T13:31:22Z</time>
      </trkpt>
      <trkpt lat="48.3896" lon="2.71951">
        <ele>70.199996948242</ele>
        <time>2020-10-15T13:31:27Z</time>
      </trkpt>
      <trkpt lat="48.38959" lon="2.71943">
        <ele>70.199996948242</ele>
        <time>2020-10-15T13:31:32Z</time>
      </trkpt>
      <trkpt lat="48.38957" lon="2.71934">
        <ele>70</ele>
        <time>2020-10-15T13:31:37Z</time>
      </trkpt>
      <trkpt lat="48.38956" lon="2.71926">
        <ele>70.400001525879</ele>
        <time>2020-10-15T13:31:42Z</time>
      </trkpt>
      <trkpt lat="48.38956" lon="2.71918">
        <ele>70.400001525879</ele>
        <time>2020-10-15T13:31:47Z</time>
      </trkpt>
      <trkpt lat="48.38955" lon="2.71908">
        <ele>70.400001525879</ele>
        <time>2020-10-15T13:31:52Z</time>
      </trkpt>
      <trkpt lat="48.38953" lon="2.719">
        <ele>70.400001525879</ele>
        <time>2020-10-15T13:31:57Z</time>
      </trkpt>
      <trkpt lat="48.38951" lon="2.71893">
        <ele>70.400001525879</ele>
        <time>2020-10-15T13:32:02Z</time>
      </trkpt>
      <trkpt lat="48.38949" lon="2.71885">
        <ele>70.400001525879</ele>
        <time>2020-10-15T13:32:07Z</time>
      </trkpt>
      <trkpt lat="48.38948" lon="2.71876">
        <ele>70.400001525879</ele>
        <time>2020-10-15T13:32:12Z</time>
      </trkpt>
      <trkpt lat="48.38946" lon="2.7187">
        <ele>70.400001525879</ele>
        <time>2020-10-15T13:32:17Z</time>
      </trkpt>
      <trkpt lat="48.38944" lon="2.71862">
        <ele>70.599998474121</ele>
        <time>2020-10-15T13:32:22Z</time>
      </trkpt>
      <trkpt lat="48.38942" lon="2.71855">
        <ele>70.599998474121</ele>
        <time>2020-10-15T13:32:27Z</time>
      </trkpt>
      <trkpt lat="48.3894" lon="2.71845">
        <ele>70.400001525879</ele>
        <time>2020-10-15T13:32:32Z</time>
      </trkpt>
      <trkpt lat="48.38939" lon="2.71837">
        <ele>70.599998474121</ele>
        <time>2020-10-15T13:32:37Z</time>
      </trkpt>
      <trkpt lat="48.38939" lon="2.71829">
        <ele>70.800003051758</ele>
        <time>2020-10-15T13:32:42Z</time>
      </trkpt>
      <trkpt lat="48.38938" lon="2.71822">
        <ele>70.800003051758</ele>
        <time>2020-10-15T13:32:47Z</time>
      </trkpt>
      <trkpt lat="48.38937" lon="2.71816">
        <ele>70.800003051758</ele>
        <time>2020-10-15T13:32:52Z</time>
      </trkpt>
      <trkpt lat="48.38934" lon="2.71811">
        <ele>70.800003051758</ele>
        <time>2020-10-15T13:32:57Z</time>
      </trkpt>
      <trkpt lat="48.38933" lon="2.71803">
        <ele>70.800003051758</ele>
        <time>2020-10-15T13:33:02Z</time>
      </trkpt>
      <trkpt lat="48.38934" lon="2.71794">
        <ele>71</ele>
        <time>2020-10-15T13:33:07Z</time>
      </trkpt>
      <trkpt lat="48.38933" lon="2.71786">
        <ele>71.199996948242</ele>
        <time>2020-10-15T13:33:12Z</time>
      </trkpt>
      <trkpt lat="48.38933" lon="2.71776">
        <ele>71.400001525879</ele>
        <time>2020-10-15T13:33:17Z</time>
      </trkpt>
      <trkpt lat="48.38932" lon="2.71768">
        <ele>71.599998474121</ele>
        <time>2020-10-15T13:33:22Z</time>
      </trkpt>
      <trkpt lat="48.38929" lon="2.71763">
        <ele>71.800003051758</ele>
        <time>2020-10-15T13:33:27Z</time>
      </trkpt>
      <trkpt lat="48.38927" lon="2.71757">
        <ele>72</ele>
        <time>2020-10-15T13:33:32Z</time>
      </trkpt>
      <trkpt lat="48.38925" lon="2.71749">
        <ele>72</ele>
        <time>2020-10-15T13:33:37Z</time>
      </trkpt>
      <trkpt lat="48.38924" lon="2.71741">
        <ele>72</ele>
        <time>2020-10-15T13:33:42Z</time>
      </trkpt>
      <trkpt lat="48.38922" lon="2.71732">
        <ele>72</ele>
        <time>2020-10-15T13:33:47Z</time>
      </trkpt>
      <trkpt lat="48.38922" lon="2.71724">
        <ele>71.800003051758</ele>
        <time>2020-10-15T13:33:52Z</time>
      </trkpt>
      <trkpt lat="48.38922" lon="2.71716">
        <ele>72</ele>
        <time>2020-10-15T13:33:57Z</time>
      </trkpt>
      <trkpt lat="48.38922" lon="2.71711">
        <ele>72.199996948242</ele>
        <time>2020-10-15T13:34:02Z</time>
      </trkpt>
      <trkpt lat="48.3892" lon="2.71703">
        <ele>72.199996948242</ele>
        <time>2020-10-15T13:34:07Z</time>
      </trkpt>
      <trkpt lat="48.38917" lon="2.71695">
        <ele>72.400001525879</ele>
        <time>2020-10-15T13:34:12Z</time>
      </trkpt>
      <trkpt lat="48.38915" lon="2.71688">
        <ele>72.400001525879</ele>
        <time>2020-10-15T13:34:17Z</time>
      </trkpt>
      <trkpt lat="48.38912" lon="2.7168">
        <ele>72.400001525879</ele>
        <time>2020-10-15T13:34:22Z</time>
      </trkpt>
      <trkpt lat="48.38912" lon="2.71672">
        <ele>72.599998474121</ele>
        <time>2020-10-15T13:34:27Z</time>
      </trkpt>
      <trkpt lat="48.38913" lon="2.71663">
        <ele>72.800003051758</ele>
        <time>2020-10-15T13:34:32Z</time>
      </trkpt>
      <trkpt lat="48.38912" lon="2.71656">
        <ele>73</ele>
        <time>2020-10-15T13:34:37Z</time>
      </trkpt>
      <trkpt lat="48.38912" lon="2.71647">
        <ele>73.199996948242</ele>
        <time>2020-10-15T13:34:42Z</time>
      </trkpt>
      <trkpt lat="48.38912" lon="2.71641">
        <ele>73.400001525879</ele>
        <time>2020-10-15T13:34:47Z</time>
      </trkpt>
      <trkpt lat="48.3891" lon="2.71634">
        <ele>73.400001525879</ele>
        <time>2020-10-15T13:34:52Z</time>
      </trkpt>
      <trkpt lat="48.38907" lon="2.71628">
        <ele>73.599998474121</ele>
        <time>2020-10-15T13:34:57Z</time>
      </trkpt>
      <trkpt lat="48.38905" lon="2.7162">
        <ele>73.599998474121</ele>
        <time>2020-10-15T13:35:02Z</time>
      </trkpt>
      <trkpt lat="48.38903" lon="2.71611">
        <ele>73.599998474121</ele>
        <time>2020-10-15T13:35:07Z</time>
      </trkpt>
      <trkpt lat="48.38902" lon="2.71604">
        <ele>73.599998474121</ele>
        <time>2020-10-15T13:35:12Z</time>
      </trkpt>
      <trkpt lat="48.38901" lon="2.71596">
        <ele>73.599998474121</ele>
        <time>2020-10-15T13:35:17Z</time>
      </trkpt>
      <trkpt lat="48.38901" lon="2.71589">
        <ele>74</ele>
        <time>2020-10-15T13:35:22Z</time>
      </trkpt>
      <trkpt lat="48.38901" lon="2.71583">
        <ele>74.199996948242</ele>
        <time>2020-10-15T13:35:27Z</time>
      </trkpt>
      <trkpt lat="48.389" lon="2.71575">
        <ele>74.400001525879</ele>
        <time>2020-10-15T13:35:32Z</time>
      </trkpt>
      <trkpt lat="48.38898" lon="2.71567">
        <ele>74.400001525879</ele>
        <time>2020-10-15T13:35:37Z</time>
      </trkpt>
      <trkpt lat="48.38897" lon="2.7156">
        <ele>74.400001525879</ele>
        <time>2020-10-15T13:35:42Z</time>
      </trkpt>
      <trkpt lat="48.38895" lon="2.71549">
        <ele>74.599998474121</ele>
        <time>2020-10-15T13:35:48Z</time>
      </trkpt>
      <trkpt lat="48.38895" lon="2.71543">
        <ele>74.599998474121</ele>
        <time>2020-10-15T13:35:53Z</time>
      </trkpt>
      <trkpt lat="48.38893" lon="2.71535">
        <ele>74.599998474121</ele>
        <time>2020-10-15T13:35:58Z</time>
      </trkpt>
      <trkpt lat="48.38893" lon="2.71526">
        <ele>74.800003051758</ele>
        <time>2020-10-15T13:36:03Z</time>
      </trkpt>
      <trkpt lat="48.38892" lon="2.71517">
        <ele>74.800003051758</ele>
        <time>2020-10-15T13:36:08Z</time>
      </trkpt>
      <trkpt lat="48.38891" lon="2.7151">
        <ele>74.800003051758</ele>
        <time>2020-10-15T13:36:13Z</time>
      </trkpt>
      <trkpt lat="48.38889" lon="2.71502">
        <ele>75</ele>
        <time>2020-10-15T13:36:18Z</time>
      </trkpt>
      <trkpt lat="48.38886" lon="2.71496">
        <ele>75</ele>
        <time>2020-10-15T13:36:23Z</time>
      </trkpt>
      <trkpt lat="48.38884" lon="2.71488">
        <ele>75.199996948242</ele>
        <time>2020-10-15T13:36:28Z</time>
      </trkpt>
      <trkpt lat="48.38885" lon="2.71478">
        <ele>75.199996948242</ele>
        <time>2020-10-15T13:36:33Z</time>
      </trkpt>
      <trkpt lat="48.38884" lon="2.7147">
        <ele>75.400001525879</ele>
        <time>2020-10-15T13:36:38Z</time>
      </trkpt>
      <trkpt lat="48.38883" lon="2.71463">
        <ele>75.800003051758</ele>
        <time>2020-10-15T13:36:43Z</time>
      </trkpt>
      <trkpt lat="48.3888" lon="2.71456">
        <ele>76</ele>
        <time>2020-10-15T13:36:48Z</time>
      </trkpt>
      <trkpt lat="48.38878" lon="2.7145">
        <ele>76.199996948242</ele>
        <time>2020-10-15T13:36:53Z</time>
      </trkpt>
      <trkpt lat="48.38877" lon="2.71442">
        <ele>76.199996948242</ele>
        <time>2020-10-15T13:36:58Z</time>
      </trkpt>
      <trkpt lat="48.38875" lon="2.71435">
        <ele>76.599998474121</ele>
        <time>2020-10-15T13:37:03Z</time>
      </trkpt>
      <trkpt lat="48.38876" lon="2.7143">
        <ele>76.800003051758</ele>
        <time>2020-10-15T13:37:08Z</time>
      </trkpt>
      <trkpt lat="48.38875" lon="2.71424">
        <ele>77</ele>
        <time>2020-10-15T13:37:13Z</time>
      </trkpt>
      <trkpt lat="48.38874" lon="2.71417">
        <ele>77.400001525879</ele>
        <time>2020-10-15T13:37:18Z</time>
      </trkpt>
      <trkpt lat="48.38872" lon="2.71407">
        <ele>77.400001525879</ele>
        <time>2020-10-15T13:37:23Z</time>
      </trkpt>
      <trkpt lat="48.38871" lon="2.71399">
        <ele>77.599998474121</ele>
        <time>2020-10-15T13:37:28Z</time>
      </trkpt>
      <trkpt lat="48.3887" lon="2.71392">
        <ele>78</ele>
        <time>2020-10-15T13:37:33Z</time>
      </trkpt>
      <trkpt lat="48.38869" lon="2.71389">
        <ele>78.199996948242</ele>
        <time>2020-10-15T13:37:38Z</time>
      </trkpt>
      <trkpt lat="48.38868" lon="2.71389">
        <ele>78.199996948242</ele>
        <time>2020-10-15T13:37:43Z</time>
      </trkpt>
      <trkpt lat="48.38867" lon="2.71384">
        <ele>78.199996948242</ele>
        <time>2020-10-15T13:38:23Z</time>
      </trkpt>
      <trkpt lat="48.38867" lon="2.71387">
        <ele>78.400001525879</ele>
        <time>2020-10-15T13:38:43Z</time>
      </trkpt>
      <trkpt lat="48.38864" lon="2.71376">
        <ele>78.400001525879</ele>
        <time>2020-10-15T13:39:23Z</time>
      </trkpt>
      <trkpt lat="48.38862" lon="2.71368">
        <ele>78.400001525879</ele>
        <time>2020-10-15T13:39:28Z</time>
      </trkpt>
      <trkpt lat="48.38861" lon="2.7136">
        <ele>79</ele>
        <time>2020-10-15T13:39:33Z</time>
      </trkpt>
      <trkpt lat="48.3886" lon="2.71353">
        <ele>79.599998474121</ele>
        <time>2020-10-15T13:39:38Z</time>
      </trkpt>
      <trkpt lat="48.3886" lon="2.71348">
        <ele>80.400001525879</ele>
        <time>2020-10-15T13:39:43Z</time>
      </trkpt>
      <trkpt lat="48.3886" lon="2.71341">
        <ele>81.199996948242</ele>
        <time>2020-10-15T13:39:48Z</time>
      </trkpt>
      <trkpt lat="48.38859" lon="2.71334">
        <ele>81.800003051758</ele>
        <time>2020-10-15T13:39:53Z</time>
      </trkpt>
      <trkpt lat="48.38857" lon="2.71328">
        <ele>82.199996948242</ele>
        <time>2020-10-15T13:39:58Z</time>
      </trkpt>
      <trkpt lat="48.38855" lon="2.71323">
        <ele>82.800003051758</ele>
        <time>2020-10-15T13:40:03Z</time>
      </trkpt>
      <trkpt lat="48.38855" lon="2.71323">
        <ele>83.400001525879</ele>
        <time>2020-10-15T13:40:08Z</time>
      </trkpt>
      <trkpt lat="48.38855" lon="2.71322">
        <ele>83.400001525879</ele>
        <time>2020-10-15T13:40:13Z</time>
      </trkpt>
      <trkpt lat="48.38854" lon="2.71321">
        <ele>83.400001525879</ele>
        <time>2020-10-15T13:40:18Z</time>
      </trkpt>
      <trkpt lat="48.38854" lon="2.71321">
        <ele>83.400001525879</ele>
        <time>2020-10-15T13:40:23Z</time>
      </trkpt>
      <trkpt lat="48.38854" lon="2.71321">
        <ele>83.599998474121</ele>
        <time>2020-10-15T13:40:28Z</time>
      </trkpt>
      <trkpt lat="48.38854" lon="2.71321">
        <ele>83.400001525879</ele>
        <time>2020-10-15T13:40:33Z</time>
      </trkpt>
      <trkpt lat="48.38854" lon="2.7132">
        <ele>83.400001525879</ele>
        <time>2020-10-15T13:40:38Z</time>
      </trkpt>
      <trkpt lat="48.38853" lon="2.71322">
        <ele>83.400001525879</ele>
        <time>2020-10-15T13:40:43Z</time>
      </trkpt>
      <trkpt lat="48.38848" lon="2.71325">
        <ele>83.199996948242</ele>
        <time>2020-10-15T13:40:48Z</time>
      </trkpt>
      <trkpt lat="48.38844" lon="2.71327">
        <ele>83</ele>
        <time>2020-10-15T13:40:53Z</time>
      </trkpt>
      <trkpt lat="48.3884" lon="2.71325">
        <ele>82.599998474121</ele>
        <time>2020-10-15T13:40:58Z</time>
      </trkpt>
      <trkpt lat="48.38833" lon="2.7132">
        <ele>82.199996948242</ele>
        <time>2020-10-15T13:41:03Z</time>
      </trkpt>
      <trkpt lat="48.38828" lon="2.71317">
        <ele>82.400001525879</ele>
        <time>2020-10-15T13:41:08Z</time>
      </trkpt>
      <trkpt lat="48.38823" lon="2.71313">
        <ele>82.400001525879</ele>
        <time>2020-10-15T13:41:13Z</time>
      </trkpt>
      <trkpt lat="48.38818" lon="2.71312">
        <ele>82.400001525879</ele>
        <time>2020-10-15T13:41:18Z</time>
      </trkpt>
      <trkpt lat="48.38812" lon="2.71312">
        <ele>82.800003051758</ele>
        <time>2020-10-15T13:41:23Z</time>
      </trkpt>
      <trkpt lat="48.38808" lon="2.71314">
        <ele>83</ele>
        <time>2020-10-15T13:41:28Z</time>
      </trkpt>
      <trkpt lat="48.38804" lon="2.71317">
        <ele>82.800003051758</ele>
        <time>2020-10-15T13:41:33Z</time>
      </trkpt>
      <trkpt lat="48.388" lon="2.71321">
        <ele>82.400001525879</ele>
        <time>2020-10-15T13:41:38Z</time>
      </trkpt>
      <trkpt lat="48.38795" lon="2.71323">
        <ele>82.199996948242</ele>
        <time>2020-10-15T13:41:43Z</time>
      </trkpt>
      <trkpt lat="48.3879" lon="2.71324">
        <ele>82.400001525879</ele>
        <time>2020-10-15T13:41:48Z</time>
      </trkpt>
      <trkpt lat="48.38784" lon="2.71324">
        <ele>82.800003051758</ele>
        <time>2020-10-15T13:41:53Z</time>
      </trkpt>
      <trkpt lat="48.3878" lon="2.71323">
        <ele>83.400001525879</ele>
        <time>2020-10-15T13:41:58Z</time>
      </trkpt>
      <trkpt lat="48.38776" lon="2.71321">
        <ele>84.199996948242</ele>
        <time>2020-10-15T13:42:03Z</time>
      </trkpt>
      <trkpt lat="48.38772" lon="2.71324">
        <ele>84.800003051758</ele>
        <time>2020-10-15T13:42:08Z</time>
      </trkpt>
      <trkpt lat="48.38769" lon="2.71323">
        <ele>85.199996948242</ele>
        <time>2020-10-15T13:42:13Z</time>
      </trkpt>
      <trkpt lat="48.38766" lon="2.71322">
        <ele>85.800003051758</ele>
        <time>2020-10-15T13:42:18Z</time>
      </trkpt>
      <trkpt lat="48.38762" lon="2.71323">
        <ele>86</ele>
        <time>2020-10-15T13:42:23Z</time>
      </trkpt>
      <trkpt lat="48.38757" lon="2.71326">
        <ele>86.400001525879</ele>
        <time>2020-10-15T13:42:28Z</time>
      </trkpt>
      <trkpt lat="48.38751" lon="2.71328">
        <ele>86.400001525879</ele>
        <time>2020-10-15T13:42:33Z</time>
      </trkpt>
      <trkpt lat="48.38747" lon="2.7133">
        <ele>86.400001525879</ele>
        <time>2020-10-15T13:42:38Z</time>
      </trkpt>
      <trkpt lat="48.38742" lon="2.71331">
        <ele>86.199996948242</ele>
        <time>2020-10-15T13:42:43Z</time>
      </trkpt>
      <trkpt lat="48.38737" lon="2.71332">
        <ele>86</ele>
        <time>2020-10-15T13:42:48Z</time>
      </trkpt>
      <trkpt lat="48.38732" lon="2.71334">
        <ele>85.800003051758</ele>
        <time>2020-10-15T13:42:53Z</time>
      </trkpt>
      <trkpt lat="48.38727" lon="2.71336">
        <ele>85.599998474121</ele>
        <time>2020-10-15T13:42:58Z</time>
      </trkpt>
      <trkpt lat="48.38723" lon="2.71337">
        <ele>85.599998474121</ele>
        <time>2020-10-15T13:43:03Z</time>
      </trkpt>
      <trkpt lat="48.38719" lon="2.71337">
        <ele>85.599998474121</ele>
        <time>2020-10-15T13:43:08Z</time>
      </trkpt>
      <trkpt lat="48.38714" lon="2.71337">
        <ele>85.199996948242</ele>
        <time>2020-10-15T13:43:13Z</time>
      </trkpt>
      <trkpt lat="48.38708" lon="2.71338">
        <ele>85.199996948242</ele>
        <time>2020-10-15T13:43:18Z</time>
      </trkpt>
      <trkpt lat="48.38702" lon="2.71338">
        <ele>84.800003051758</ele>
        <time>2020-10-15T13:43:23Z</time>
      </trkpt>
      <trkpt lat="48.38696" lon="2.7134">
        <ele>84.599998474121</ele>
        <time>2020-10-15T13:43:28Z</time>
      </trkpt>
      <trkpt lat="48.3869" lon="2.71339">
        <ele>84.400001525879</ele>
        <time>2020-10-15T13:43:33Z</time>
      </trkpt>
      <trkpt lat="48.38684" lon="2.71342">
        <ele>84.199996948242</ele>
        <time>2020-10-15T13:43:38Z</time>
      </trkpt>
      <trkpt lat="48.38678" lon="2.71342">
        <ele>84</ele>
        <time>2020-10-15T13:43:43Z</time>
      </trkpt>
      <trkpt lat="48.38673" lon="2.71341">
        <ele>83.800003051758</ele>
        <time>2020-10-15T13:43:48Z</time>
      </trkpt>
      <trkpt lat="48.38667" lon="2.7134">
        <ele>83.599998474121</ele>
        <time>2020-10-15T13:43:53Z</time>
      </trkpt>
      <trkpt lat="48.38663" lon="2.71341">
        <ele>83.400001525879</ele>
        <time>2020-10-15T13:43:58Z</time>
      </trkpt>
      <trkpt lat="48.38657" lon="2.71338">
        <ele>83.199996948242</ele>
        <time>2020-10-15T13:44:03Z</time>
      </trkpt>
      <trkpt lat="48.38652" lon="2.71336">
        <ele>82.800003051758</ele>
        <time>2020-10-15T13:44:08Z</time>
      </trkpt>
      <trkpt lat="48.38646" lon="2.71335">
        <ele>82.599998474121</ele>
        <time>2020-10-15T13:44:13Z</time>
      </trkpt>
      <trkpt lat="48.38642" lon="2.71332">
        <ele>82.599998474121</ele>
        <time>2020-10-15T13:44:18Z</time>
      </trkpt>
      <trkpt lat="48.38638" lon="2.7133">
        <ele>82.400001525879</ele>
        <time>2020-10-15T13:44:23Z</time>
      </trkpt>
      <trkpt lat="48.38632" lon="2.7133">
        <ele>81.800003051758</ele>
        <time>2020-10-15T13:44:28Z</time>
      </trkpt>
      <trkpt lat="48.38626" lon="2.7133">
        <ele>81.400001525879</ele>
        <time>2020-10-15T13:44:33Z</time>
      </trkpt>
      <trkpt lat="48.38623" lon="2.71329">
        <ele>81</ele>
        <time>2020-10-15T13:44:38Z</time>
      </trkpt>
      <trkpt lat="48.38617" lon="2.71328">
        <ele>80.599998474121</ele>
        <time>2020-10-15T13:44:43Z</time>
      </trkpt>
      <trkpt lat="48.38611" lon="2.71327">
        <ele>80.199996948242</ele>
        <time>2020-10-15T13:44:48Z</time>
      </trkpt>
      <trkpt lat="48.38606" lon="2.71327">
        <ele>79.800003051758</ele>
        <time>2020-10-15T13:44:53Z</time>
      </trkpt>
      <trkpt lat="48.386" lon="2.71328">
        <ele>79.599998474121</ele>
        <time>2020-10-15T13:44:58Z</time>
      </trkpt>
      <trkpt lat="48.38594" lon="2.71328">
        <ele>79.400001525879</ele>
        <time>2020-10-15T13:45:03Z</time>
      </trkpt>
      <trkpt lat="48.38589" lon="2.71326">
        <ele>79.199996948242</ele>
        <time>2020-10-15T13:45:08Z</time>
      </trkpt>
      <trkpt lat="48.38582" lon="2.71326">
        <ele>78.800003051758</ele>
        <time>2020-10-15T13:45:13Z</time>
      </trkpt>
      <trkpt lat="48.38576" lon="2.71323">
        <ele>78.599998474121</ele>
        <time>2020-10-15T13:45:18Z</time>
      </trkpt>
      <trkpt lat="48.38571" lon="2.71323">
        <ele>78</ele>
        <time>2020-10-15T13:45:23Z</time>
      </trkpt>
      <trkpt lat="48.38566" lon="2.71324">
        <ele>77.800003051758</ele>
        <time>2020-10-15T13:45:28Z</time>
      </trkpt>
      <trkpt lat="48.3856" lon="2.71326">
        <ele>77.800003051758</ele>
        <time>2020-10-15T13:45:33Z</time>
      </trkpt>
      <trkpt lat="48.38555" lon="2.7133">
        <ele>77.800003051758</ele>
        <time>2020-10-15T13:45:38Z</time>
      </trkpt>
      <trkpt lat="48.38553" lon="2.71334">
        <ele>77.800003051758</ele>
        <time>2020-10-15T13:45:43Z</time>
      </trkpt>
      <trkpt lat="48.38548" lon="2.7134">
        <ele>77.400001525879</ele>
        <time>2020-10-15T13:45:48Z</time>
      </trkpt>
      <trkpt lat="48.38543" lon="2.71345">
        <ele>77.199996948242</ele>
        <time>2020-10-15T13:45:53Z</time>
      </trkpt>
      <trkpt lat="48.38539" lon="2.71349">
        <ele>77</ele>
        <time>2020-10-15T13:45:58Z</time>
      </trkpt>
      <trkpt lat="48.38535" lon="2.71354">
        <ele>76.800003051758</ele>
        <time>2020-10-15T13:46:03Z</time>
      </trkpt>
      <trkpt lat="48.38531" lon="2.7136">
        <ele>76.400001525879</ele>
        <time>2020-10-15T13:46:08Z</time>
      </trkpt>
      <trkpt lat="48.38526" lon="2.71363">
        <ele>76.199996948242</ele>
        <time>2020-10-15T13:46:13Z</time>
      </trkpt>
      <trkpt lat="48.38521" lon="2.71366">
        <ele>76</ele>
        <time>2020-10-15T13:46:18Z</time>
      </trkpt>
      <trkpt lat="48.38517" lon="2.7137">
        <ele>76</ele>
        <time>2020-10-15T13:46:23Z</time>
      </trkpt>
      <trkpt lat="48.38511" lon="2.71373">
        <ele>75.800003051758</ele>
        <time>2020-10-15T13:46:28Z</time>
      </trkpt>
      <trkpt lat="48.38507" lon="2.71376">
        <ele>75.400001525879</ele>
        <time>2020-10-15T13:46:33Z</time>
      </trkpt>
      <trkpt lat="48.38502" lon="2.71381">
        <ele>74.800003051758</ele>
        <time>2020-10-15T13:46:38Z</time>
      </trkpt>
      <trkpt lat="48.38499" lon="2.71388">
        <ele>74.400001525879</ele>
        <time>2020-10-15T13:46:44Z</time>
      </trkpt>
      <trkpt lat="48.38492" lon="2.7139">
        <ele>74</ele>
        <time>2020-10-15T13:46:49Z</time>
      </trkpt>
      <trkpt lat="48.38485" lon="2.71394">
        <ele>73.800003051758</ele>
        <time>2020-10-15T13:46:54Z</time>
      </trkpt>
      <trkpt lat="48.38478" lon="2.71396">
        <ele>73.599998474121</ele>
        <time>2020-10-15T13:46:59Z</time>
      </trkpt>
      <trkpt lat="48.38473" lon="2.71398">
        <ele>73.800003051758</ele>
        <time>2020-10-15T13:47:04Z</time>
      </trkpt>
      <trkpt lat="48.38469" lon="2.714">
        <ele>73.800003051758</ele>
        <time>2020-10-15T13:47:09Z</time>
      </trkpt>
      <trkpt lat="48.38464" lon="2.71402">
        <ele>73.800003051758</ele>
        <time>2020-10-15T13:47:14Z</time>
      </trkpt>
      <trkpt lat="48.38462" lon="2.71404">
        <ele>73.599998474121</ele>
        <time>2020-10-15T13:47:19Z</time>
      </trkpt>
      <trkpt lat="48.38459" lon="2.71405">
        <ele>73.800003051758</ele>
        <time>2020-10-15T13:47:24Z</time>
      </trkpt>
      <trkpt lat="48.38455" lon="2.71405">
        <ele>73.800003051758</ele>
        <time>2020-10-15T13:47:29Z</time>
      </trkpt>
      <trkpt lat="48.38449" lon="2.71407">
        <ele>73.800003051758</ele>
        <time>2020-10-15T13:47:34Z</time>
      </trkpt>
      <trkpt lat="48.38442" lon="2.71408">
        <ele>74</ele>
        <time>2020-10-15T13:47:39Z</time>
      </trkpt>
      <trkpt lat="48.38435" lon="2.71409">
        <ele>74.400001525879</ele>
        <time>2020-10-15T13:47:44Z</time>
      </trkpt>
      <trkpt lat="48.3843" lon="2.71408">
        <ele>74.599998474121</ele>
        <time>2020-10-15T13:47:49Z</time>
      </trkpt>
      <trkpt lat="48.38424" lon="2.71409">
        <ele>74.800003051758</ele>
        <time>2020-10-15T13:47:54Z</time>
      </trkpt>
      <trkpt lat="48.38418" lon="2.7141">
        <ele>75.199996948242</ele>
        <time>2020-10-15T13:47:59Z</time>
      </trkpt>
      <trkpt lat="48.38412" lon="2.7141">
        <ele>75.400001525879</ele>
        <time>2020-10-15T13:48:04Z</time>
      </trkpt>
      <trkpt lat="48.38408" lon="2.71408">
        <ele>75.599998474121</ele>
        <time>2020-10-15T13:48:09Z</time>
      </trkpt>
      <trkpt lat="48.38404" lon="2.71405">
        <ele>76</ele>
        <time>2020-10-15T13:48:14Z</time>
      </trkpt>
      <trkpt lat="48.38399" lon="2.71404">
        <ele>76.199996948242</ele>
        <time>2020-10-15T13:48:19Z</time>
      </trkpt>
      <trkpt lat="48.38395" lon="2.71403">
        <ele>76.800003051758</ele>
        <time>2020-10-15T13:48:24Z</time>
      </trkpt>
      <trkpt lat="48.3839" lon="2.71402">
        <ele>77</ele>
        <time>2020-10-15T13:48:29Z</time>
      </trkpt>
      <trkpt lat="48.38384" lon="2.714">
        <ele>77.400001525879</ele>
        <time>2020-10-15T13:48:34Z</time>
      </trkpt>
      <trkpt lat="48.38378" lon="2.71397">
        <ele>77.599998474121</ele>
        <time>2020-10-15T13:48:39Z</time>
      </trkpt>
      <trkpt lat="48.38374" lon="2.71393">
        <ele>78</ele>
        <time>2020-10-15T13:48:44Z</time>
      </trkpt>
      <trkpt lat="48.38371" lon="2.71389">
        <ele>78.199996948242</ele>
        <time>2020-10-15T13:48:49Z</time>
      </trkpt>
      <trkpt lat="48.38366" lon="2.71386">
        <ele>78.599998474121</ele>
        <time>2020-10-15T13:48:54Z</time>
      </trkpt>
      <trkpt lat="48.38362" lon="2.71383">
        <ele>79</ele>
        <time>2020-10-15T13:48:59Z</time>
      </trkpt>
      <trkpt lat="48.38359" lon="2.71379">
        <ele>79.400001525879</ele>
        <time>2020-10-15T13:49:04Z</time>
      </trkpt>
      <trkpt lat="48.38354" lon="2.71377">
        <ele>79.599998474121</ele>
        <time>2020-10-15T13:49:09Z</time>
      </trkpt>
      <trkpt lat="48.3835" lon="2.71375">
        <ele>80</ele>
        <time>2020-10-15T13:49:14Z</time>
      </trkpt>
      <trkpt lat="48.38346" lon="2.71373">
        <ele>80.199996948242</ele>
        <time>2020-10-15T13:49:19Z</time>
      </trkpt>
      <trkpt lat="48.38342" lon="2.7137">
        <ele>80.599998474121</ele>
        <time>2020-10-15T13:49:24Z</time>
      </trkpt>
      <trkpt lat="48.38339" lon="2.71368">
        <ele>81</ele>
        <time>2020-10-15T13:49:29Z</time>
      </trkpt>
      <trkpt lat="48.38335" lon="2.71365">
        <ele>81.400001525879</ele>
        <time>2020-10-15T13:49:34Z</time>
      </trkpt>
      <trkpt lat="48.3833" lon="2.71362">
        <ele>82</ele>
        <time>2020-10-15T13:49:39Z</time>
      </trkpt>
      <trkpt lat="48.38327" lon="2.71359">
        <ele>82.400001525879</ele>
        <time>2020-10-15T13:49:44Z</time>
      </trkpt>
      <trkpt lat="48.38322" lon="2.71357">
        <ele>83</ele>
        <time>2020-10-15T13:49:49Z</time>
      </trkpt>
      <trkpt lat="48.38317" lon="2.71357">
        <ele>83.400001525879</ele>
        <time>2020-10-15T13:49:54Z</time>
      </trkpt>
      <trkpt lat="48.38313" lon="2.71358">
        <ele>84.199996948242</ele>
        <time>2020-10-15T13:49:59Z</time>
      </trkpt>
      <trkpt lat="48.38311" lon="2.71361">
        <ele>84.599998474121</ele>
        <time>2020-10-15T13:50:04Z</time>
      </trkpt>
      <trkpt lat="48.38309" lon="2.71365">
        <ele>85.199996948242</ele>
        <time>2020-10-15T13:50:09Z</time>
      </trkpt>
      <trkpt lat="48.38307" lon="2.71368">
        <ele>86.199996948242</ele>
        <time>2020-10-15T13:50:14Z</time>
      </trkpt>
      <trkpt lat="48.38307" lon="2.71372">
        <ele>86.800003051758</ele>
        <time>2020-10-15T13:50:19Z</time>
      </trkpt>
      <trkpt lat="48.38306" lon="2.71374">
        <ele>87.400001525879</ele>
        <time>2020-10-15T13:50:24Z</time>
      </trkpt>
      <trkpt lat="48.38305" lon="2.71377">
        <ele>87.599998474121</ele>
        <time>2020-10-15T13:50:29Z</time>
      </trkpt>
      <trkpt lat="48.38304" lon="2.71381">
        <ele>88</ele>
        <time>2020-10-15T13:50:34Z</time>
      </trkpt>
      <trkpt lat="48.38302" lon="2.71388">
        <ele>88.400001525879</ele>
        <time>2020-10-15T13:50:39Z</time>
      </trkpt>
      <trkpt lat="48.38299" lon="2.71394">
        <ele>89</ele>
        <time>2020-10-15T13:50:44Z</time>
      </trkpt>
      <trkpt lat="48.38296" lon="2.714">
        <ele>89.400001525879</ele>
        <time>2020-10-15T13:50:49Z</time>
      </trkpt>
      <trkpt lat="48.38294" lon="2.71403">
        <ele>89.800003051758</ele>
        <time>2020-10-15T13:50:54Z</time>
      </trkpt>
      <trkpt lat="48.38291" lon="2.71408">
        <ele>90.599998474121</ele>
        <time>2020-10-15T13:50:59Z</time>
      </trkpt>
      <trkpt lat="48.38289" lon="2.71413">
        <ele>91.199996948242</ele>
        <time>2020-10-15T13:51:04Z</time>
      </trkpt>
      <trkpt lat="48.38286" lon="2.71416">
        <ele>91.800003051758</ele>
        <time>2020-10-15T13:51:09Z</time>
      </trkpt>
      <trkpt lat="48.38283" lon="2.71417">
        <ele>92.400001525879</ele>
        <time>2020-10-15T13:51:14Z</time>
      </trkpt>
      <trkpt lat="48.38279" lon="2.71418">
        <ele>93.199996948242</ele>
        <time>2020-10-15T13:51:19Z</time>
      </trkpt>
      <trkpt lat="48.38274" lon="2.71418">
        <ele>93.800003051758</ele>
        <time>2020-10-15T13:51:24Z</time>
      </trkpt>
      <trkpt lat="48.38271" lon="2.71415">
        <ele>94.599998474121</ele>
        <time>2020-10-15T13:51:29Z</time>
      </trkpt>
      <trkpt lat="48.38267" lon="2.71413">
        <ele>95.199996948242</ele>
        <time>2020-10-15T13:51:34Z</time>
      </trkpt>
      <trkpt lat="48.38264" lon="2.71411">
        <ele>95.800003051758</ele>
        <time>2020-10-15T13:51:39Z</time>
      </trkpt>
      <trkpt lat="48.38261" lon="2.71407">
        <ele>96.599998474121</ele>
        <time>2020-10-15T13:51:44Z</time>
      </trkpt>
      <trkpt lat="48.38256" lon="2.71405">
        <ele>97.400001525879</ele>
        <time>2020-10-15T13:51:49Z</time>
      </trkpt>
      <trkpt lat="48.38251" lon="2.71403">
        <ele>98.199996948242</ele>
        <time>2020-10-15T13:51:54Z</time>
      </trkpt>
      <trkpt lat="48.38248" lon="2.714">
        <ele>98.800003051758</ele>
        <time>2020-10-15T13:51:59Z</time>
      </trkpt>
      <trkpt lat="48.38246" lon="2.71394">
        <ele>99.599998474121</ele>
        <time>2020-10-15T13:52:04Z</time>
      </trkpt>
      <trkpt lat="48.38242" lon="2.7139">
        <ele>100.19999694824</ele>
        <time>2020-10-15T13:52:09Z</time>
      </trkpt>
      <trkpt lat="48.3824" lon="2.71386">
        <ele>100.80000305176</ele>
        <time>2020-10-15T13:52:14Z</time>
      </trkpt>
      <trkpt lat="48.38239" lon="2.71383">
        <ele>101.59999847412</ele>
        <time>2020-10-15T13:52:24Z</time>
      </trkpt>
      <trkpt lat="48.3824" lon="2.71381">
        <ele>101.40000152588</ele>
        <time>2020-10-15T13:52:30Z</time>
      </trkpt>
      <trkpt lat="48.38241" lon="2.7138">
        <ele>101.40000152588</ele>
        <time>2020-10-15T13:52:35Z</time>
      </trkpt>
      <trkpt lat="48.38242" lon="2.71378">
        <ele>101.59999847412</ele>
        <time>2020-10-15T13:52:45Z</time>
      </trkpt>
      <trkpt lat="48.38241" lon="2.71379">
        <ele>101.80000305176</ele>
        <time>2020-10-15T13:52:55Z</time>
      </trkpt>
      <trkpt lat="48.38243" lon="2.71375">
        <ele>101.40000152588</ele>
        <time>2020-10-15T14:00:20Z</time>
      </trkpt>
      <trkpt lat="48.38248" lon="2.7137">
        <ele>101.40000152588</ele>
        <time>2020-10-15T14:00:25Z</time>
      </trkpt>
      <trkpt lat="48.38253" lon="2.71364">
        <ele>101.59999847412</ele>
        <time>2020-10-15T14:00:30Z</time>
      </trkpt>
      <trkpt lat="48.38254" lon="2.71358">
        <ele>103.40000152588</ele>
        <time>2020-10-15T14:00:35Z</time>
      </trkpt>
      <trkpt lat="48.38256" lon="2.71351">
        <ele>104.59999847412</ele>
        <time>2020-10-15T14:00:40Z</time>
      </trkpt>
      <trkpt lat="48.38258" lon="2.71346">
        <ele>105.59999847412</ele>
        <time>2020-10-15T14:00:45Z</time>
      </trkpt>
      <trkpt lat="48.38257" lon="2.71342">
        <ele>106.19999694824</ele>
        <time>2020-10-15T14:00:50Z</time>
      </trkpt>
      <trkpt lat="48.38254" lon="2.71337">
        <ele>106.80000305176</ele>
        <time>2020-10-15T14:00:55Z</time>
      </trkpt>
      <trkpt lat="48.38253" lon="2.7133">
        <ele>107.80000305176</ele>
        <time>2020-10-15T14:01:00Z</time>
      </trkpt>
      <trkpt lat="48.3825" lon="2.71323">
        <ele>108</ele>
        <time>2020-10-15T14:01:05Z</time>
      </trkpt>
      <trkpt lat="48.3825" lon="2.71317">
        <ele>107.40000152588</ele>
        <time>2020-10-15T14:01:10Z</time>
      </trkpt>
      <trkpt lat="48.38253" lon="2.71311">
        <ele>107.19999694824</ele>
        <time>2020-10-15T14:01:15Z</time>
      </trkpt>
      <trkpt lat="48.38253" lon="2.71303">
        <ele>107.40000152588</ele>
        <time>2020-10-15T14:01:20Z</time>
      </trkpt>
      <trkpt lat="48.38254" lon="2.71294">
        <ele>107.80000305176</ele>
        <time>2020-10-15T14:01:25Z</time>
      </trkpt>
      <trkpt lat="48.38259" lon="2.71288">
        <ele>108.40000152588</ele>
        <time>2020-10-15T14:01:30Z</time>
      </trkpt>
      <trkpt lat="48.38263" lon="2.71284">
        <ele>109.19999694824</ele>
        <time>2020-10-15T14:01:35Z</time>
      </trkpt>
      <trkpt lat="48.38263" lon="2.7128">
        <ele>110</ele>
        <time>2020-10-15T14:01:40Z</time>
      </trkpt>
      <trkpt lat="48.38265" lon="2.71275">
        <ele>111</ele>
        <time>2020-10-15T14:01:45Z</time>
      </trkpt>
      <trkpt lat="48.38265" lon="2.71268">
        <ele>111.59999847412</ele>
        <time>2020-10-15T14:01:50Z</time>
      </trkpt>
      <trkpt lat="48.38268" lon="2.71262">
        <ele>112.40000152588</ele>
        <time>2020-10-15T14:01:55Z</time>
      </trkpt>
      <trkpt lat="48.3827" lon="2.71257">
        <ele>113</ele>
        <time>2020-10-15T14:02:00Z</time>
      </trkpt>
      <trkpt lat="48.38271" lon="2.71256">
        <ele>113.80000305176</ele>
        <time>2020-10-15T14:02:05Z</time>
      </trkpt>
      <trkpt lat="48.38273" lon="2.71253">
        <ele>114.40000152588</ele>
        <time>2020-10-15T14:02:10Z</time>
      </trkpt>
      <trkpt lat="48.38274" lon="2.71248">
        <ele>115.19999694824</ele>
        <time>2020-10-15T14:02:15Z</time>
      </trkpt>
      <trkpt lat="48.38277" lon="2.71245">
        <ele>116.19999694824</ele>
        <time>2020-10-15T14:02:20Z</time>
      </trkpt>
      <trkpt lat="48.38279" lon="2.71242">
        <ele>116.80000305176</ele>
        <time>2020-10-15T14:02:25Z</time>
      </trkpt>
      <trkpt lat="48.38281" lon="2.71239">
        <ele>117.80000305176</ele>
        <time>2020-10-15T14:02:30Z</time>
      </trkpt>
      <trkpt lat="48.38283" lon="2.71237">
        <ele>118.80000305176</ele>
        <time>2020-10-15T14:02:35Z</time>
      </trkpt>
      <trkpt lat="48.38287" lon="2.71235">
        <ele>119.40000152588</ele>
        <time>2020-10-15T14:02:40Z</time>
      </trkpt>
      <trkpt lat="48.38289" lon="2.71232">
        <ele>119.80000305176</ele>
        <time>2020-10-15T14:02:45Z</time>
      </trkpt>
      <trkpt lat="48.38288" lon="2.71226">
        <ele>120</ele>
        <time>2020-10-15T14:02:50Z</time>
      </trkpt>
      <trkpt lat="48.3829" lon="2.71222">
        <ele>119.80000305176</ele>
        <time>2020-10-15T14:02:55Z</time>
      </trkpt>
      <trkpt lat="48.38292" lon="2.71217">
        <ele>119.59999847412</ele>
        <time>2020-10-15T14:03:00Z</time>
      </trkpt>
      <trkpt lat="48.38293" lon="2.71211">
        <ele>119</ele>
        <time>2020-10-15T14:03:05Z</time>
      </trkpt>
      <trkpt lat="48.38295" lon="2.71208">
        <ele>118.40000152588</ele>
        <time>2020-10-15T14:03:10Z</time>
      </trkpt>
      <trkpt lat="48.38296" lon="2.71203">
        <ele>117.80000305176</ele>
        <time>2020-10-15T14:03:15Z</time>
      </trkpt>
      <trkpt lat="48.38294" lon="2.71198">
        <ele>117.80000305176</ele>
        <time>2020-10-15T14:03:20Z</time>
      </trkpt>
      <trkpt lat="48.38295" lon="2.71192">
        <ele>118</ele>
        <time>2020-10-15T14:03:25Z</time>
      </trkpt>
      <trkpt lat="48.38293" lon="2.71186">
        <ele>118.59999847412</ele>
        <time>2020-10-15T14:03:30Z</time>
      </trkpt>
      <trkpt lat="48.38294" lon="2.7118">
        <ele>119</ele>
        <time>2020-10-15T14:03:35Z</time>
      </trkpt>
      <trkpt lat="48.38293" lon="2.71174">
        <ele>119</ele>
        <time>2020-10-15T14:03:40Z</time>
      </trkpt>
      <trkpt lat="48.3829" lon="2.71168">
        <ele>118.80000305176</ele>
        <time>2020-10-15T14:03:45Z</time>
      </trkpt>
      <trkpt lat="48.3829" lon="2.71163">
        <ele>119</ele>
        <time>2020-10-15T14:03:50Z</time>
      </trkpt>
      <trkpt lat="48.38291" lon="2.71159">
        <ele>119.59999847412</ele>
        <time>2020-10-15T14:03:55Z</time>
      </trkpt>
      <trkpt lat="48.38292" lon="2.71152">
        <ele>119.59999847412</ele>
        <time>2020-10-15T14:04:00Z</time>
      </trkpt>
      <trkpt lat="48.38294" lon="2.71148">
        <ele>119.59999847412</ele>
        <time>2020-10-15T14:04:05Z</time>
      </trkpt>
      <trkpt lat="48.38296" lon="2.7114">
        <ele>119.59999847412</ele>
        <time>2020-10-15T14:04:10Z</time>
      </trkpt>
      <trkpt lat="48.38294" lon="2.71134">
        <ele>119.59999847412</ele>
        <time>2020-10-15T14:04:15Z</time>
      </trkpt>
      <trkpt lat="48.38294" lon="2.71127">
        <ele>119.59999847412</ele>
        <time>2020-10-15T14:04:20Z</time>
      </trkpt>
      <trkpt lat="48.38295" lon="2.7112">
        <ele>119.59999847412</ele>
        <time>2020-10-15T14:04:25Z</time>
      </trkpt>
      <trkpt lat="48.38297" lon="2.71114">
        <ele>119.59999847412</ele>
        <time>2020-10-15T14:04:30Z</time>
      </trkpt>
      <trkpt lat="48.383" lon="2.71106">
        <ele>119.19999694824</ele>
        <time>2020-10-15T14:04:35Z</time>
      </trkpt>
      <trkpt lat="48.38302" lon="2.711">
        <ele>119.19999694824</ele>
        <time>2020-10-15T14:04:40Z</time>
      </trkpt>
      <trkpt lat="48.38301" lon="2.71094">
        <ele>119.19999694824</ele>
        <time>2020-10-15T14:04:45Z</time>
      </trkpt>
      <trkpt lat="48.38298" lon="2.71091">
        <ele>119.19999694824</ele>
        <time>2020-10-15T14:04:50Z</time>
      </trkpt>
      <trkpt lat="48.38299" lon="2.71085">
        <ele>119.40000152588</ele>
        <time>2020-10-15T14:04:55Z</time>
      </trkpt>
      <trkpt lat="48.38301" lon="2.71079">
        <ele>119</ele>
        <time>2020-10-15T14:05:00Z</time>
      </trkpt>
      <trkpt lat="48.38301" lon="2.71073">
        <ele>119</ele>
        <time>2020-10-15T14:05:05Z</time>
      </trkpt>
      <trkpt lat="48.383" lon="2.71068">
        <ele>119</ele>
        <time>2020-10-15T14:05:10Z</time>
      </trkpt>
      <trkpt lat="48.38301" lon="2.71061">
        <ele>119.19999694824</ele>
        <time>2020-10-15T14:05:15Z</time>
      </trkpt>
      <trkpt lat="48.38299" lon="2.71054">
        <ele>119</ele>
        <time>2020-10-15T14:05:20Z</time>
      </trkpt>
      <trkpt lat="48.38302" lon="2.71051">
        <ele>118.80000305176</ele>
        <time>2020-10-15T14:05:25Z</time>
      </trkpt>
      <trkpt lat="48.38306" lon="2.7105">
        <ele>118.40000152588</ele>
        <time>2020-10-15T14:05:30Z</time>
      </trkpt>
      <trkpt lat="48.3831" lon="2.71047">
        <ele>118.19999694824</ele>
        <time>2020-10-15T14:05:35Z</time>
      </trkpt>
      <trkpt lat="48.38314" lon="2.71042">
        <ele>118.19999694824</ele>
        <time>2020-10-15T14:05:40Z</time>
      </trkpt>
      <trkpt lat="48.38314" lon="2.71036">
        <ele>118</ele>
        <time>2020-10-15T14:05:45Z</time>
      </trkpt>
      <trkpt lat="48.38315" lon="2.71029">
        <ele>117.80000305176</ele>
        <time>2020-10-15T14:05:50Z</time>
      </trkpt>
      <trkpt lat="48.38316" lon="2.71021">
        <ele>117.80000305176</ele>
        <time>2020-10-15T14:05:55Z</time>
      </trkpt>
      <trkpt lat="48.38317" lon="2.71015">
        <ele>117.80000305176</ele>
        <time>2020-10-15T14:06:00Z</time>
      </trkpt>
      <trkpt lat="48.38318" lon="2.71008">
        <ele>118</ele>
        <time>2020-10-15T14:06:05Z</time>
      </trkpt>
      <trkpt lat="48.38318" lon="2.70999">
        <ele>118.19999694824</ele>
        <time>2020-10-15T14:06:10Z</time>
      </trkpt>
      <trkpt lat="48.3832" lon="2.70992">
        <ele>118.19999694824</ele>
        <time>2020-10-15T14:06:15Z</time>
      </trkpt>
      <trkpt lat="48.3832" lon="2.70984">
        <ele>117.80000305176</ele>
        <time>2020-10-15T14:06:20Z</time>
      </trkpt>
      <trkpt lat="48.38323" lon="2.7098">
        <ele>117.80000305176</ele>
        <time>2020-10-15T14:06:25Z</time>
      </trkpt>
      <trkpt lat="48.38326" lon="2.70974">
        <ele>118.19999694824</ele>
        <time>2020-10-15T14:06:30Z</time>
      </trkpt>
      <trkpt lat="48.38327" lon="2.70968">
        <ele>118.40000152588</ele>
        <time>2020-10-15T14:06:35Z</time>
      </trkpt>
      <trkpt lat="48.38328" lon="2.70963">
        <ele>118.40000152588</ele>
        <time>2020-10-15T14:06:40Z</time>
      </trkpt>
      <trkpt lat="48.38331" lon="2.70961">
        <ele>118.40000152588</ele>
        <time>2020-10-15T14:06:45Z</time>
      </trkpt>
      <trkpt lat="48.38334" lon="2.70956">
        <ele>118.19999694824</ele>
        <time>2020-10-15T14:06:50Z</time>
      </trkpt>
      <trkpt lat="48.38336" lon="2.70949">
        <ele>118</ele>
        <time>2020-10-15T14:06:55Z</time>
      </trkpt>
      <trkpt lat="48.38338" lon="2.70943">
        <ele>117.80000305176</ele>
        <time>2020-10-15T14:07:00Z</time>
      </trkpt>
      <trkpt lat="48.38341" lon="2.70937">
        <ele>117.40000152588</ele>
        <time>2020-10-15T14:07:05Z</time>
      </trkpt>
      <trkpt lat="48.38345" lon="2.70933">
        <ele>117.40000152588</ele>
        <time>2020-10-15T14:07:10Z</time>
      </trkpt>
      <trkpt lat="48.38345" lon="2.70927">
        <ele>117.80000305176</ele>
        <time>2020-10-15T14:07:15Z</time>
      </trkpt>
      <trkpt lat="48.38346" lon="2.70921">
        <ele>117.80000305176</ele>
        <time>2020-10-15T14:07:20Z</time>
      </trkpt>
      <trkpt lat="48.38347" lon="2.70916">
        <ele>118.40000152588</ele>
        <time>2020-10-15T14:07:25Z</time>
      </trkpt>
      <trkpt lat="48.38346" lon="2.70911">
        <ele>118.59999847412</ele>
        <time>2020-10-15T14:07:30Z</time>
      </trkpt>
      <trkpt lat="48.38347" lon="2.70903">
        <ele>118.40000152588</ele>
        <time>2020-10-15T14:07:35Z</time>
      </trkpt>
      <trkpt lat="48.38348" lon="2.70897">
        <ele>118.40000152588</ele>
        <time>2020-10-15T14:07:40Z</time>
      </trkpt>
      <trkpt lat="48.38351" lon="2.70892">
        <ele>118.40000152588</ele>
        <time>2020-10-15T14:07:45Z</time>
      </trkpt>
      <trkpt lat="48.38354" lon="2.70888">
        <ele>118.40000152588</ele>
        <time>2020-10-15T14:07:50Z</time>
      </trkpt>
      <trkpt lat="48.38356" lon="2.70884">
        <ele>118.59999847412</ele>
        <time>2020-10-15T14:07:55Z</time>
      </trkpt>
      <trkpt lat="48.38357" lon="2.70875">
        <ele>118.59999847412</ele>
        <time>2020-10-15T14:08:00Z</time>
      </trkpt>
      <trkpt lat="48.38358" lon="2.70868">
        <ele>118.59999847412</ele>
        <time>2020-10-15T14:08:05Z</time>
      </trkpt>
      <trkpt lat="48.38358" lon="2.70859">
        <ele>118.40000152588</ele>
        <time>2020-10-15T14:08:10Z</time>
      </trkpt>
      <trkpt lat="48.38359" lon="2.70851">
        <ele>118.19999694824</ele>
        <time>2020-10-15T14:08:15Z</time>
      </trkpt>
      <trkpt lat="48.38359" lon="2.70845">
        <ele>118</ele>
        <time>2020-10-15T14:08:20Z</time>
      </trkpt>
      <trkpt lat="48.38358" lon="2.70838">
        <ele>118</ele>
        <time>2020-10-15T14:08:25Z</time>
      </trkpt>
      <trkpt lat="48.38359" lon="2.7083">
        <ele>118</ele>
        <time>2020-10-15T14:08:30Z</time>
      </trkpt>
      <trkpt lat="48.38362" lon="2.70824">
        <ele>118.19999694824</ele>
        <time>2020-10-15T14:08:35Z</time>
      </trkpt>
      <trkpt lat="48.38364" lon="2.70819">
        <ele>118.19999694824</ele>
        <time>2020-10-15T14:08:40Z</time>
      </trkpt>
      <trkpt lat="48.38368" lon="2.70816">
        <ele>118</ele>
        <time>2020-10-15T14:08:45Z</time>
      </trkpt>
      <trkpt lat="48.38373" lon="2.70811">
        <ele>118</ele>
        <time>2020-10-15T14:08:50Z</time>
      </trkpt>
      <trkpt lat="48.38377" lon="2.70807">
        <ele>117.59999847412</ele>
        <time>2020-10-15T14:08:55Z</time>
      </trkpt>
      <trkpt lat="48.38379" lon="2.70803">
        <ele>117.40000152588</ele>
        <time>2020-10-15T14:09:00Z</time>
      </trkpt>
      <trkpt lat="48.38381" lon="2.70797">
        <ele>117.19999694824</ele>
        <time>2020-10-15T14:09:05Z</time>
      </trkpt>
      <trkpt lat="48.38385" lon="2.70795">
        <ele>117.40000152588</ele>
        <time>2020-10-15T14:09:10Z</time>
      </trkpt>
      <trkpt lat="48.38386" lon="2.70788">
        <ele>117</ele>
        <time>2020-10-15T14:09:15Z</time>
      </trkpt>
      <trkpt lat="48.38384" lon="2.70783">
        <ele>117</ele>
        <time>2020-10-15T14:09:20Z</time>
      </trkpt>
      <trkpt lat="48.38383" lon="2.70776">
        <ele>116.80000305176</ele>
        <time>2020-10-15T14:09:25Z</time>
      </trkpt>
      <trkpt lat="48.38384" lon="2.70769">
        <ele>116.80000305176</ele>
        <time>2020-10-15T14:09:30Z</time>
      </trkpt>
      <trkpt lat="48.38382" lon="2.70762">
        <ele>116.80000305176</ele>
        <time>2020-10-15T14:09:35Z</time>
      </trkpt>
      <trkpt lat="48.38381" lon="2.70754">
        <ele>116.80000305176</ele>
        <time>2020-10-15T14:09:40Z</time>
      </trkpt>
      <trkpt lat="48.38382" lon="2.70745">
        <ele>116.80000305176</ele>
        <time>2020-10-15T14:09:45Z</time>
      </trkpt>
      <trkpt lat="48.38384" lon="2.70736">
        <ele>116.59999847412</ele>
        <time>2020-10-15T14:09:50Z</time>
      </trkpt>
      <trkpt lat="48.38386" lon="2.70729">
        <ele>116.59999847412</ele>
        <time>2020-10-15T14:09:55Z</time>
      </trkpt>
      <trkpt lat="48.38388" lon="2.70723">
        <ele>117</ele>
        <time>2020-10-15T14:10:00Z</time>
      </trkpt>
      <trkpt lat="48.3839" lon="2.70716">
        <ele>117.19999694824</ele>
        <time>2020-10-15T14:10:05Z</time>
      </trkpt>
      <trkpt lat="48.38393" lon="2.70712">
        <ele>117.19999694824</ele>
        <time>2020-10-15T14:10:10Z</time>
      </trkpt>
      <trkpt lat="48.38395" lon="2.70704">
        <ele>117</ele>
        <time>2020-10-15T14:10:15Z</time>
      </trkpt>
      <trkpt lat="48.38398" lon="2.70699">
        <ele>117.19999694824</ele>
        <time>2020-10-15T14:10:20Z</time>
      </trkpt>
      <trkpt lat="48.38403" lon="2.70695">
        <ele>117.40000152588</ele>
        <time>2020-10-15T14:10:25Z</time>
      </trkpt>
      <trkpt lat="48.38404" lon="2.70688">
        <ele>117.40000152588</ele>
        <time>2020-10-15T14:10:30Z</time>
      </trkpt>
      <trkpt lat="48.38404" lon="2.70682">
        <ele>117.19999694824</ele>
        <time>2020-10-15T14:10:35Z</time>
      </trkpt>
      <trkpt lat="48.38405" lon="2.70676">
        <ele>117</ele>
        <time>2020-10-15T14:10:40Z</time>
      </trkpt>
      <trkpt lat="48.38406" lon="2.70669">
        <ele>117.40000152588</ele>
        <time>2020-10-15T14:10:45Z</time>
      </trkpt>
      <trkpt lat="48.38408" lon="2.70665">
        <ele>118</ele>
        <time>2020-10-15T14:10:50Z</time>
      </trkpt>
      <trkpt lat="48.38409" lon="2.7066">
        <ele>117.59999847412</ele>
        <time>2020-10-15T14:10:55Z</time>
      </trkpt>
      <trkpt lat="48.3841" lon="2.70653">
        <ele>117.19999694824</ele>
        <time>2020-10-15T14:11:00Z</time>
      </trkpt>
      <trkpt lat="48.38411" lon="2.70648">
        <ele>117</ele>
        <time>2020-10-15T14:11:05Z</time>
      </trkpt>
      <trkpt lat="48.38413" lon="2.70642">
        <ele>116.80000305176</ele>
        <time>2020-10-15T14:11:10Z</time>
      </trkpt>
      <trkpt lat="48.38415" lon="2.70636">
        <ele>116.80000305176</ele>
        <time>2020-10-15T14:11:15Z</time>
      </trkpt>
      <trkpt lat="48.38417" lon="2.70631">
        <ele>116.59999847412</ele>
        <time>2020-10-15T14:11:20Z</time>
      </trkpt>
      <trkpt lat="48.3842" lon="2.70628">
        <ele>116.59999847412</ele>
        <time>2020-10-15T14:11:25Z</time>
      </trkpt>
      <trkpt lat="48.38423" lon="2.70626">
        <ele>116.59999847412</ele>
        <time>2020-10-15T14:11:30Z</time>
      </trkpt>
      <trkpt lat="48.38427" lon="2.70621">
        <ele>116.59999847412</ele>
        <time>2020-10-15T14:11:35Z</time>
      </trkpt>
      <trkpt lat="48.38432" lon="2.70616">
        <ele>116.80000305176</ele>
        <time>2020-10-15T14:11:40Z</time>
      </trkpt>
      <trkpt lat="48.38433" lon="2.70608">
        <ele>116.59999847412</ele>
        <time>2020-10-15T14:11:45Z</time>
      </trkpt>
      <trkpt lat="48.38435" lon="2.70603">
        <ele>116.40000152588</ele>
        <time>2020-10-15T14:11:50Z</time>
      </trkpt>
      <trkpt lat="48.38437" lon="2.70597">
        <ele>116.59999847412</ele>
        <time>2020-10-15T14:11:55Z</time>
      </trkpt>
      <trkpt lat="48.38439" lon="2.70591">
        <ele>116.80000305176</ele>
        <time>2020-10-15T14:12:00Z</time>
      </trkpt>
      <trkpt lat="48.38438" lon="2.70585">
        <ele>116.19999694824</ele>
        <time>2020-10-15T14:12:05Z</time>
      </trkpt>
      <trkpt lat="48.38436" lon="2.70582">
        <ele>115.59999847412</ele>
        <time>2020-10-15T14:12:10Z</time>
      </trkpt>
      <trkpt lat="48.38437" lon="2.7058">
        <ele>115</ele>
        <time>2020-10-15T14:12:15Z</time>
      </trkpt>
      <trkpt lat="48.38434" lon="2.70575">
        <ele>114.40000152588</ele>
        <time>2020-10-15T14:12:20Z</time>
      </trkpt>
      <trkpt lat="48.38432" lon="2.70567">
        <ele>114.59999847412</ele>
        <time>2020-10-15T14:12:25Z</time>
      </trkpt>
      <trkpt lat="48.38433" lon="2.70562">
        <ele>115</ele>
        <time>2020-10-15T14:12:30Z</time>
      </trkpt>
      <trkpt lat="48.38432" lon="2.70559">
        <ele>115.19999694824</ele>
        <time>2020-10-15T14:12:35Z</time>
      </trkpt>
      <trkpt lat="48.3843" lon="2.70552">
        <ele>115</ele>
        <time>2020-10-15T14:12:40Z</time>
      </trkpt>
      <trkpt lat="48.38427" lon="2.70547">
        <ele>114.59999847412</ele>
        <time>2020-10-15T14:12:45Z</time>
      </trkpt>
      <trkpt lat="48.38425" lon="2.7054">
        <ele>114.59999847412</ele>
        <time>2020-10-15T14:12:50Z</time>
      </trkpt>
      <trkpt lat="48.38424" lon="2.70533">
        <ele>114.40000152588</ele>
        <time>2020-10-15T14:12:55Z</time>
      </trkpt>
      <trkpt lat="48.38422" lon="2.70528">
        <ele>114.40000152588</ele>
        <time>2020-10-15T14:13:00Z</time>
      </trkpt>
      <trkpt lat="48.38422" lon="2.70524">
        <ele>114.40000152588</ele>
        <time>2020-10-15T14:13:05Z</time>
      </trkpt>
      <trkpt lat="48.38421" lon="2.70518">
        <ele>114</ele>
        <time>2020-10-15T14:13:10Z</time>
      </trkpt>
      <trkpt lat="48.3842" lon="2.70512">
        <ele>113.59999847412</ele>
        <time>2020-10-15T14:13:15Z</time>
      </trkpt>
      <trkpt lat="48.3842" lon="2.70505">
        <ele>113.59999847412</ele>
        <time>2020-10-15T14:13:20Z</time>
      </trkpt>
      <trkpt lat="48.38421" lon="2.70501">
        <ele>113.80000305176</ele>
        <time>2020-10-15T14:13:25Z</time>
      </trkpt>
      <trkpt lat="48.38416" lon="2.70496">
        <ele>114.40000152588</ele>
        <time>2020-10-15T14:13:30Z</time>
      </trkpt>
      <trkpt lat="48.38414" lon="2.70491">
        <ele>114.80000305176</ele>
        <time>2020-10-15T14:13:35Z</time>
      </trkpt>
      <trkpt lat="48.38414" lon="2.70486">
        <ele>115</ele>
        <time>2020-10-15T14:13:40Z</time>
      </trkpt>
      <trkpt lat="48.38415" lon="2.70482">
        <ele>115.40000152588</ele>
        <time>2020-10-15T14:13:45Z</time>
      </trkpt>
      <trkpt lat="48.38415" lon="2.70476">
        <ele>116</ele>
        <time>2020-10-15T14:13:50Z</time>
      </trkpt>
      <trkpt lat="48.38419" lon="2.70471">
        <ele>116.40000152588</ele>
        <time>2020-10-15T14:13:55Z</time>
      </trkpt>
      <trkpt lat="48.3842" lon="2.70467">
        <ele>116.80000305176</ele>
        <time>2020-10-15T14:14:00Z</time>
      </trkpt>
      <trkpt lat="48.3842" lon="2.70466">
        <ele>117</ele>
        <time>2020-10-15T14:14:05Z</time>
      </trkpt>
      <trkpt lat="48.3842" lon="2.70466">
        <ele>117</ele>
        <time>2020-10-15T14:14:10Z</time>
      </trkpt>
      <trkpt lat="48.38419" lon="2.70466">
        <ele>117</ele>
        <time>2020-10-15T14:14:15Z</time>
      </trkpt>
      <trkpt lat="48.38419" lon="2.70465">
        <ele>116.80000305176</ele>
        <time>2020-10-15T14:14:20Z</time>
      </trkpt>
      <trkpt lat="48.38421" lon="2.70466">
        <ele>116.80000305176</ele>
        <time>2020-10-15T14:14:25Z</time>
      </trkpt>
      <trkpt lat="48.38425" lon="2.70464">
        <ele>117</ele>
        <time>2020-10-15T14:14:30Z</time>
      </trkpt>
      <trkpt lat="48.38426" lon="2.70464">
        <ele>117.19999694824</ele>
        <time>2020-10-15T14:14:35Z</time>
      </trkpt>
      <trkpt lat="48.38425" lon="2.70465">
        <ele>117.19999694824</ele>
        <time>2020-10-15T14:14:40Z</time>
      </trkpt>
      <trkpt lat="48.38425" lon="2.70465">
        <ele>117.40000152588</ele>
        <time>2020-10-15T14:14:45Z</time>
      </trkpt>
      <trkpt lat="48.38425" lon="2.70465">
        <ele>117.19999694824</ele>
        <time>2020-10-15T14:14:50Z</time>
      </trkpt>
      <trkpt lat="48.38424" lon="2.70465">
        <ele>117.19999694824</ele>
        <time>2020-10-15T14:14:55Z</time>
      </trkpt>
      <trkpt lat="48.38424" lon="2.7046">
        <ele>117.19999694824</ele>
        <time>2020-10-15T14:15:00Z</time>
      </trkpt>
      <trkpt lat="48.38424" lon="2.70454">
        <ele>117.19999694824</ele>
        <time>2020-10-15T14:15:05Z</time>
      </trkpt>
      <trkpt lat="48.38424" lon="2.70447">
        <ele>117.19999694824</ele>
        <time>2020-10-15T14:15:10Z</time>
      </trkpt>
      <trkpt lat="48.38426" lon="2.70441">
        <ele>117</ele>
        <time>2020-10-15T14:15:15Z</time>
      </trkpt>
      <trkpt lat="48.38426" lon="2.70435">
        <ele>116.80000305176</ele>
        <time>2020-10-15T14:15:20Z</time>
      </trkpt>
      <trkpt lat="48.38421" lon="2.70431">
        <ele>116.80000305176</ele>
        <time>2020-10-15T14:15:25Z</time>
      </trkpt>
      <trkpt lat="48.38417" lon="2.70426">
        <ele>117</ele>
        <time>2020-10-15T14:15:30Z</time>
      </trkpt>
      <trkpt lat="48.38412" lon="2.70421">
        <ele>116.59999847412</ele>
        <time>2020-10-15T14:15:35Z</time>
      </trkpt>
      <trkpt lat="48.38409" lon="2.70416">
        <ele>116.40000152588</ele>
        <time>2020-10-15T14:15:40Z</time>
      </trkpt>
      <trkpt lat="48.38407" lon="2.70409">
        <ele>115.80000305176</ele>
        <time>2020-10-15T14:15:45Z</time>
      </trkpt>
      <trkpt lat="48.38407" lon="2.70401">
        <ele>115.59999847412</ele>
        <time>2020-10-15T14:15:50Z</time>
      </trkpt>
      <trkpt lat="48.38405" lon="2.70394">
        <ele>115.40000152588</ele>
        <time>2020-10-15T14:15:55Z</time>
      </trkpt>
      <trkpt lat="48.38406" lon="2.70387">
        <ele>115.19999694824</ele>
        <time>2020-10-15T14:16:00Z</time>
      </trkpt>
      <trkpt lat="48.38408" lon="2.70381">
        <ele>115.59999847412</ele>
        <time>2020-10-15T14:16:05Z</time>
      </trkpt>
      <trkpt lat="48.3841" lon="2.70375">
        <ele>116</ele>
        <time>2020-10-15T14:16:10Z</time>
      </trkpt>
      <trkpt lat="48.3841" lon="2.70367">
        <ele>116.19999694824</ele>
        <time>2020-10-15T14:16:15Z</time>
      </trkpt>
      <trkpt lat="48.3841" lon="2.7036">
        <ele>116.19999694824</ele>
        <time>2020-10-15T14:16:20Z</time>
      </trkpt>
      <trkpt lat="48.38413" lon="2.70357">
        <ele>116.40000152588</ele>
        <time>2020-10-15T14:16:25Z</time>
      </trkpt>
      <trkpt lat="48.38418" lon="2.70352">
        <ele>116.19999694824</ele>
        <time>2020-10-15T14:16:30Z</time>
      </trkpt>
      <trkpt lat="48.38421" lon="2.70348">
        <ele>116.19999694824</ele>
        <time>2020-10-15T14:16:35Z</time>
      </trkpt>
      <trkpt lat="48.38422" lon="2.70344">
        <ele>116.19999694824</ele>
        <time>2020-10-15T14:16:40Z</time>
      </trkpt>
      <trkpt lat="48.38423" lon="2.70341">
        <ele>116.19999694824</ele>
        <time>2020-10-15T14:16:45Z</time>
      </trkpt>
      <trkpt lat="48.38424" lon="2.70337">
        <ele>116.40000152588</ele>
        <time>2020-10-15T14:16:50Z</time>
      </trkpt>
      <trkpt lat="48.38425" lon="2.70332">
        <ele>116.19999694824</ele>
        <time>2020-10-15T14:16:55Z</time>
      </trkpt>
      <trkpt lat="48.38425" lon="2.70327">
        <ele>116.40000152588</ele>
        <time>2020-10-15T14:17:00Z</time>
      </trkpt>
      <trkpt lat="48.38424" lon="2.70321">
        <ele>116.19999694824</ele>
        <time>2020-10-15T14:17:05Z</time>
      </trkpt>
      <trkpt lat="48.38425" lon="2.70315">
        <ele>115.80000305176</ele>
        <time>2020-10-15T14:17:10Z</time>
      </trkpt>
      <trkpt lat="48.38428" lon="2.70311">
        <ele>115.40000152588</ele>
        <time>2020-10-15T14:17:15Z</time>
      </trkpt>
      <trkpt lat="48.38428" lon="2.70311">
        <ele>115.19999694824</ele>
        <time>2020-10-15T14:17:20Z</time>
      </trkpt>
      <trkpt lat="48.38429" lon="2.7031">
        <ele>115.19999694824</ele>
        <time>2020-10-15T14:17:25Z</time>
      </trkpt>
      <trkpt lat="48.3843" lon="2.70306">
        <ele>115</ele>
        <time>2020-10-15T14:17:30Z</time>
      </trkpt>
      <trkpt lat="48.38429" lon="2.70299">
        <ele>114.80000305176</ele>
        <time>2020-10-15T14:17:35Z</time>
      </trkpt>
      <trkpt lat="48.3843" lon="2.70292">
        <ele>114.59999847412</ele>
        <time>2020-10-15T14:17:40Z</time>
      </trkpt>
      <trkpt lat="48.38432" lon="2.70286">
        <ele>114.59999847412</ele>
        <time>2020-10-15T14:17:45Z</time>
      </trkpt>
      <trkpt lat="48.38435" lon="2.70282">
        <ele>114.59999847412</ele>
        <time>2020-10-15T14:17:50Z</time>
      </trkpt>
      <trkpt lat="48.38436" lon="2.70278">
        <ele>114.40000152588</ele>
        <time>2020-10-15T14:17:55Z</time>
      </trkpt>
      <trkpt lat="48.3844" lon="2.70274">
        <ele>114.19999694824</ele>
        <time>2020-10-15T14:18:00Z</time>
      </trkpt>
      <trkpt lat="48.38443" lon="2.70268">
        <ele>113.80000305176</ele>
        <time>2020-10-15T14:18:05Z</time>
      </trkpt>
      <trkpt lat="48.38445" lon="2.70262">
        <ele>113.19999694824</ele>
        <time>2020-10-15T14:18:10Z</time>
      </trkpt>
      <trkpt lat="48.38448" lon="2.70257">
        <ele>112.80000305176</ele>
        <time>2020-10-15T14:18:15Z</time>
      </trkpt>
      <trkpt lat="48.3845" lon="2.70251">
        <ele>112</ele>
        <time>2020-10-15T14:18:20Z</time>
      </trkpt>
      <trkpt lat="48.38453" lon="2.70243">
        <ele>111.59999847412</ele>
        <time>2020-10-15T14:18:25Z</time>
      </trkpt>
      <trkpt lat="48.38454" lon="2.70235">
        <ele>111.59999847412</ele>
        <time>2020-10-15T14:18:30Z</time>
      </trkpt>
      <trkpt lat="48.38455" lon="2.70232">
        <ele>112.80000305176</ele>
        <time>2020-10-15T14:18:35Z</time>
      </trkpt>
      <trkpt lat="48.38458" lon="2.7023">
        <ele>113.19999694824</ele>
        <time>2020-10-15T14:18:40Z</time>
      </trkpt>
      <trkpt lat="48.3846" lon="2.70224">
        <ele>113.80000305176</ele>
        <time>2020-10-15T14:18:45Z</time>
      </trkpt>
      <trkpt lat="48.38459" lon="2.70218">
        <ele>114.19999694824</ele>
        <time>2020-10-15T14:18:50Z</time>
      </trkpt>
      <trkpt lat="48.38458" lon="2.70214">
        <ele>114.59999847412</ele>
        <time>2020-10-15T14:18:55Z</time>
      </trkpt>
      <trkpt lat="48.38459" lon="2.70209">
        <ele>115.19999694824</ele>
        <time>2020-10-15T14:19:00Z</time>
      </trkpt>
      <trkpt lat="48.38459" lon="2.70203">
        <ele>116.19999694824</ele>
        <time>2020-10-15T14:19:05Z</time>
      </trkpt>
      <trkpt lat="48.38459" lon="2.70196">
        <ele>116.40000152588</ele>
        <time>2020-10-15T14:19:10Z</time>
      </trkpt>
      <trkpt lat="48.38459" lon="2.70188">
        <ele>116.19999694824</ele>
        <time>2020-10-15T14:19:16Z</time>
      </trkpt>
      <trkpt lat="48.38459" lon="2.70182">
        <ele>116.19999694824</ele>
        <time>2020-10-15T14:19:21Z</time>
      </trkpt>
      <trkpt lat="48.38462" lon="2.70177">
        <ele>115.59999847412</ele>
        <time>2020-10-15T14:19:26Z</time>
      </trkpt>
      <trkpt lat="48.38464" lon="2.70171">
        <ele>115.19999694824</ele>
        <time>2020-10-15T14:19:31Z</time>
      </trkpt>
      <trkpt lat="48.38464" lon="2.70171">
        <ele>115.19999694824</ele>
        <time>2020-10-15T14:19:36Z</time>
      </trkpt>
      <trkpt lat="48.38462" lon="2.70169">
        <ele>115.19999694824</ele>
        <time>2020-10-15T14:19:41Z</time>
      </trkpt>
      <trkpt lat="48.38463" lon="2.70165">
        <ele>115.19999694824</ele>
        <time>2020-10-15T14:19:46Z</time>
      </trkpt>
      <trkpt lat="48.38464" lon="2.70165">
        <ele>115.80000305176</ele>
        <time>2020-10-15T14:19:51Z</time>
      </trkpt>
      <trkpt lat="48.38464" lon="2.70168">
        <ele>116</ele>
        <time>2020-10-15T14:19:56Z</time>
      </trkpt>
      <trkpt lat="48.38464" lon="2.70171">
        <ele>115.59999847412</ele>
        <time>2020-10-15T14:20:01Z</time>
      </trkpt>
      <trkpt lat="48.38464" lon="2.70176">
        <ele>115</ele>
        <time>2020-10-15T14:20:06Z</time>
      </trkpt>
      <trkpt lat="48.38465" lon="2.70178">
        <ele>114.59999847412</ele>
        <time>2020-10-15T14:20:11Z</time>
      </trkpt>
      <trkpt lat="48.38466" lon="2.70178">
        <ele>114.19999694824</ele>
        <time>2020-10-15T14:20:16Z</time>
      </trkpt>
      <trkpt lat="48.38471" lon="2.70175">
        <ele>113</ele>
        <time>2020-10-15T14:20:21Z</time>
      </trkpt>
      <trkpt lat="48.38471" lon="2.70169">
        <ele>112.40000152588</ele>
        <time>2020-10-15T14:20:26Z</time>
      </trkpt>
      <trkpt lat="48.38473" lon="2.70165">
        <ele>112.40000152588</ele>
        <time>2020-10-15T14:20:31Z</time>
      </trkpt>
      <trkpt lat="48.38475" lon="2.70162">
        <ele>112.40000152588</ele>
        <time>2020-10-15T14:20:36Z</time>
      </trkpt>
      <trkpt lat="48.38477" lon="2.70156">
        <ele>112</ele>
        <time>2020-10-15T14:20:41Z</time>
      </trkpt>
      <trkpt lat="48.38475" lon="2.70152">
        <ele>112</ele>
        <time>2020-10-15T14:20:46Z</time>
      </trkpt>
      <trkpt lat="48.38473" lon="2.70151">
        <ele>112.59999847412</ele>
        <time>2020-10-15T14:20:51Z</time>
      </trkpt>
      <trkpt lat="48.3847" lon="2.70152">
        <ele>113.40000152588</ele>
        <time>2020-10-15T14:20:56Z</time>
      </trkpt>
      <trkpt lat="48.38468" lon="2.7015">
        <ele>114.19999694824</ele>
        <time>2020-10-15T14:21:01Z</time>
      </trkpt>
      <trkpt lat="48.38465" lon="2.7015">
        <ele>115.19999694824</ele>
        <time>2020-10-15T14:21:06Z</time>
      </trkpt>
      <trkpt lat="48.38463" lon="2.70147">
        <ele>115.40000152588</ele>
        <time>2020-10-15T14:21:11Z</time>
      </trkpt>
      <trkpt lat="48.38463" lon="2.70142">
        <ele>115.19999694824</ele>
        <time>2020-10-15T14:21:16Z</time>
      </trkpt>
      <trkpt lat="48.38463" lon="2.70137">
        <ele>114.40000152588</ele>
        <time>2020-10-15T14:21:21Z</time>
      </trkpt>
      <trkpt lat="48.38463" lon="2.70134">
        <ele>114.19999694824</ele>
        <time>2020-10-15T14:21:26Z</time>
      </trkpt>
      <trkpt lat="48.3846" lon="2.70127">
        <ele>114.59999847412</ele>
        <time>2020-10-15T14:21:31Z</time>
      </trkpt>
      <trkpt lat="48.38458" lon="2.70125">
        <ele>115.19999694824</ele>
        <time>2020-10-15T14:21:36Z</time>
      </trkpt>
      <trkpt lat="48.38456" lon="2.7012">
        <ele>115.19999694824</ele>
        <time>2020-10-15T14:21:41Z</time>
      </trkpt>
      <trkpt lat="48.38456" lon="2.70118">
        <ele>114.80000305176</ele>
        <time>2020-10-15T14:21:46Z</time>
      </trkpt>
      <trkpt lat="48.38455" lon="2.70114">
        <ele>114.80000305176</ele>
        <time>2020-10-15T14:21:51Z</time>
      </trkpt>
      <trkpt lat="48.38453" lon="2.70108">
        <ele>114.59999847412</ele>
        <time>2020-10-15T14:21:56Z</time>
      </trkpt>
      <trkpt lat="48.38452" lon="2.70102">
        <ele>114.59999847412</ele>
        <time>2020-10-15T14:22:01Z</time>
      </trkpt>
      <trkpt lat="48.3845" lon="2.70097">
        <ele>115.19999694824</ele>
        <time>2020-10-15T14:22:06Z</time>
      </trkpt>
      <trkpt lat="48.38449" lon="2.70088">
        <ele>115.59999847412</ele>
        <time>2020-10-15T14:22:11Z</time>
      </trkpt>
      <trkpt lat="48.3845" lon="2.70083">
        <ele>116</ele>
        <time>2020-10-15T14:22:16Z</time>
      </trkpt>
      <trkpt lat="48.38452" lon="2.70077">
        <ele>116.40000152588</ele>
        <time>2020-10-15T14:22:21Z</time>
      </trkpt>
      <trkpt lat="48.38453" lon="2.70072">
        <ele>116.80000305176</ele>
        <time>2020-10-15T14:22:26Z</time>
      </trkpt>
      <trkpt lat="48.38456" lon="2.70067">
        <ele>116.59999847412</ele>
        <time>2020-10-15T14:22:31Z</time>
      </trkpt>
      <trkpt lat="48.38457" lon="2.70061">
        <ele>116.80000305176</ele>
        <time>2020-10-15T14:22:36Z</time>
      </trkpt>
      <trkpt lat="48.38459" lon="2.70055">
        <ele>116.80000305176</ele>
        <time>2020-10-15T14:22:41Z</time>
      </trkpt>
      <trkpt lat="48.38463" lon="2.70049">
        <ele>116.40000152588</ele>
        <time>2020-10-15T14:22:46Z</time>
      </trkpt>
      <trkpt lat="48.38466" lon="2.70046">
        <ele>116.19999694824</ele>
        <time>2020-10-15T14:22:51Z</time>
      </trkpt>
      <trkpt lat="48.38468" lon="2.70041">
        <ele>115.80000305176</ele>
        <time>2020-10-15T14:22:56Z</time>
      </trkpt>
      <trkpt lat="48.3847" lon="2.70035">
        <ele>115.80000305176</ele>
        <time>2020-10-15T14:23:01Z</time>
      </trkpt>
      <trkpt lat="48.38471" lon="2.70029">
        <ele>116</ele>
        <time>2020-10-15T14:23:06Z</time>
      </trkpt>
      <trkpt lat="48.3847" lon="2.70022">
        <ele>115.80000305176</ele>
        <time>2020-10-15T14:23:11Z</time>
      </trkpt>
      <trkpt lat="48.3847" lon="2.70017">
        <ele>115.40000152588</ele>
        <time>2020-10-15T14:23:16Z</time>
      </trkpt>
      <trkpt lat="48.38471" lon="2.70012">
        <ele>115</ele>
        <time>2020-10-15T14:23:21Z</time>
      </trkpt>
      <trkpt lat="48.38473" lon="2.70007">
        <ele>115</ele>
        <time>2020-10-15T14:23:26Z</time>
      </trkpt>
      <trkpt lat="48.38472" lon="2.7">
        <ele>114.80000305176</ele>
        <time>2020-10-15T14:23:31Z</time>
      </trkpt>
      <trkpt lat="48.38472" lon="2.69993">
        <ele>114.40000152588</ele>
        <time>2020-10-15T14:23:36Z</time>
      </trkpt>
      <trkpt lat="48.38474" lon="2.69988">
        <ele>114.40000152588</ele>
        <time>2020-10-15T14:23:41Z</time>
      </trkpt>
      <trkpt lat="48.38475" lon="2.69982">
        <ele>114.59999847412</ele>
        <time>2020-10-15T14:23:46Z</time>
      </trkpt>
      <trkpt lat="48.38474" lon="2.69973">
        <ele>114.80000305176</ele>
        <time>2020-10-15T14:23:51Z</time>
      </trkpt>
      <trkpt lat="48.38473" lon="2.69966">
        <ele>114.59999847412</ele>
        <time>2020-10-15T14:23:56Z</time>
      </trkpt>
      <trkpt lat="48.38471" lon="2.69958">
        <ele>114.19999694824</ele>
        <time>2020-10-15T14:24:01Z</time>
      </trkpt>
      <trkpt lat="48.38467" lon="2.69952">
        <ele>113.59999847412</ele>
        <time>2020-10-15T14:24:06Z</time>
      </trkpt>
      <trkpt lat="48.38468" lon="2.69944">
        <ele>113</ele>
        <time>2020-10-15T14:24:11Z</time>
      </trkpt>
      <trkpt lat="48.3847" lon="2.69937">
        <ele>112.80000305176</ele>
        <time>2020-10-15T14:24:16Z</time>
      </trkpt>
      <trkpt lat="48.3847" lon="2.69931">
        <ele>112.19999694824</ele>
        <time>2020-10-15T14:24:21Z</time>
      </trkpt>
      <trkpt lat="48.38471" lon="2.69923">
        <ele>111.80000305176</ele>
        <time>2020-10-15T14:24:26Z</time>
      </trkpt>
      <trkpt lat="48.38472" lon="2.69917">
        <ele>111.19999694824</ele>
        <time>2020-10-15T14:24:31Z</time>
      </trkpt>
      <trkpt lat="48.38473" lon="2.6991">
        <ele>110.59999847412</ele>
        <time>2020-10-15T14:24:36Z</time>
      </trkpt>
      <trkpt lat="48.38473" lon="2.69904">
        <ele>110.59999847412</ele>
        <time>2020-10-15T14:24:41Z</time>
      </trkpt>
      <trkpt lat="48.38476" lon="2.69897">
        <ele>110.40000152588</ele>
        <time>2020-10-15T14:24:46Z</time>
      </trkpt>
      <trkpt lat="48.38476" lon="2.69891">
        <ele>109.80000305176</ele>
        <time>2020-10-15T14:24:51Z</time>
      </trkpt>
      <trkpt lat="48.38476" lon="2.69886">
        <ele>109</ele>
        <time>2020-10-15T14:24:56Z</time>
      </trkpt>
      <trkpt lat="48.38478" lon="2.69881">
        <ele>108.19999694824</ele>
        <time>2020-10-15T14:25:01Z</time>
      </trkpt>
      <trkpt lat="48.38482" lon="2.69876">
        <ele>107</ele>
        <time>2020-10-15T14:25:06Z</time>
      </trkpt>
      <trkpt lat="48.38483" lon="2.69869">
        <ele>105.80000305176</ele>
        <time>2020-10-15T14:25:11Z</time>
      </trkpt>
      <trkpt lat="48.38484" lon="2.69864">
        <ele>104.80000305176</ele>
        <time>2020-10-15T14:25:16Z</time>
      </trkpt>
      <trkpt lat="48.38485" lon="2.69861">
        <ele>104.19999694824</ele>
        <time>2020-10-15T14:25:21Z</time>
      </trkpt>
      <trkpt lat="48.38487" lon="2.69858">
        <ele>103.59999847412</ele>
        <time>2020-10-15T14:25:26Z</time>
      </trkpt>
      <trkpt lat="48.3849" lon="2.69853">
        <ele>102.40000152588</ele>
        <time>2020-10-15T14:25:31Z</time>
      </trkpt>
      <trkpt lat="48.38488" lon="2.69847">
        <ele>101.59999847412</ele>
        <time>2020-10-15T14:25:36Z</time>
      </trkpt>
      <trkpt lat="48.38486" lon="2.69842">
        <ele>101.19999694824</ele>
        <time>2020-10-15T14:25:41Z</time>
      </trkpt>
      <trkpt lat="48.38483" lon="2.69838">
        <ele>101</ele>
        <time>2020-10-15T14:25:46Z</time>
      </trkpt>
      <trkpt lat="48.38478" lon="2.69835">
        <ele>101</ele>
        <time>2020-10-15T14:25:51Z</time>
      </trkpt>
      <trkpt lat="48.38476" lon="2.69832">
        <ele>100.80000305176</ele>
        <time>2020-10-15T14:25:56Z</time>
      </trkpt>
      <trkpt lat="48.38477" lon="2.69829">
        <ele>100.19999694824</ele>
        <time>2020-10-15T14:26:01Z</time>
      </trkpt>
      <trkpt lat="48.38479" lon="2.69827">
        <ele>99.800003051758</ele>
        <time>2020-10-15T14:26:06Z</time>
      </trkpt>
      <trkpt lat="48.38479" lon="2.69827">
        <ele>99.800003051758</ele>
        <time>2020-10-15T14:26:11Z</time>
      </trkpt>
      <trkpt lat="48.3848" lon="2.69827">
        <ele>99.599998474121</ele>
        <time>2020-10-15T14:26:16Z</time>
      </trkpt>
      <trkpt lat="48.38482" lon="2.69827">
        <ele>99.400001525879</ele>
        <time>2020-10-15T14:26:21Z</time>
      </trkpt>
      <trkpt lat="48.38484" lon="2.69826">
        <ele>99</ele>
        <time>2020-10-15T14:26:26Z</time>
      </trkpt>
      <trkpt lat="48.38484" lon="2.69825">
        <ele>98.599998474121</ele>
        <time>2020-10-15T14:26:31Z</time>
      </trkpt>
      <trkpt lat="48.38485" lon="2.69825">
        <ele>98.599998474121</ele>
        <time>2020-10-15T14:26:36Z</time>
      </trkpt>
      <trkpt lat="48.38484" lon="2.69825">
        <ele>98.400001525879</ele>
        <time>2020-10-15T14:26:41Z</time>
      </trkpt>
      <trkpt lat="48.38484" lon="2.69825">
        <ele>98.400001525879</ele>
        <time>2020-10-15T14:26:46Z</time>
      </trkpt>
      <trkpt lat="48.38484" lon="2.69825">
        <ele>98.400001525879</ele>
        <time>2020-10-15T14:26:51Z</time>
      </trkpt>
      <trkpt lat="48.38486" lon="2.69825">
        <ele>98.400001525879</ele>
        <time>2020-10-15T14:26:56Z</time>
      </trkpt>
      <trkpt lat="48.38486" lon="2.69825">
        <ele>98.400001525879</ele>
        <time>2020-10-15T14:27:01Z</time>
      </trkpt>
      <trkpt lat="48.38487" lon="2.69824">
        <ele>98.400001525879</ele>
        <time>2020-10-15T14:27:06Z</time>
      </trkpt>
      <trkpt lat="48.38487" lon="2.69823">
        <ele>98.400001525879</ele>
        <time>2020-10-15T14:27:11Z</time>
      </trkpt>
      <trkpt lat="48.38486" lon="2.69823">
        <ele>98.400001525879</ele>
        <time>2020-10-15T14:27:16Z</time>
      </trkpt>
      <trkpt lat="48.38486" lon="2.69824">
        <ele>98.199996948242</ele>
        <time>2020-10-15T14:27:21Z</time>
      </trkpt>
      <trkpt lat="48.38487" lon="2.69825">
        <ele>98.400001525879</ele>
        <time>2020-10-15T14:27:26Z</time>
      </trkpt>
      <trkpt lat="48.38486" lon="2.69824">
        <ele>98.400001525879</ele>
        <time>2020-10-15T14:27:31Z</time>
      </trkpt>
      <trkpt lat="48.38485" lon="2.69821">
        <ele>98.199996948242</ele>
        <time>2020-10-15T14:27:36Z</time>
      </trkpt>
      <trkpt lat="48.38486" lon="2.6982">
        <ele>98</ele>
        <time>2020-10-15T14:27:41Z</time>
      </trkpt>
      <trkpt lat="48.38488" lon="2.69819">
        <ele>97.800003051758</ele>
        <time>2020-10-15T14:27:46Z</time>
      </trkpt>
      <trkpt lat="48.3849" lon="2.69819">
        <ele>97.199996948242</ele>
        <time>2020-10-15T14:27:51Z</time>
      </trkpt>
      <trkpt lat="48.38494" lon="2.69816">
        <ele>97</ele>
        <time>2020-10-15T14:27:56Z</time>
      </trkpt>
      <trkpt lat="48.38496" lon="2.69815">
        <ele>96.400001525879</ele>
        <time>2020-10-15T14:28:01Z</time>
      </trkpt>
      <trkpt lat="48.38498" lon="2.69814">
        <ele>96.199996948242</ele>
        <time>2020-10-15T14:28:06Z</time>
      </trkpt>
      <trkpt lat="48.385" lon="2.69809">
        <ele>95.800003051758</ele>
        <time>2020-10-15T14:28:11Z</time>
      </trkpt>
      <trkpt lat="48.38501" lon="2.69805">
        <ele>95.199996948242</ele>
        <time>2020-10-15T14:28:16Z</time>
      </trkpt>
      <trkpt lat="48.38502" lon="2.69806">
        <ele>94.800003051758</ele>
        <time>2020-10-15T14:28:21Z</time>
      </trkpt>
      <trkpt lat="48.38503" lon="2.69808">
        <ele>94.199996948242</ele>
        <time>2020-10-15T14:28:26Z</time>
      </trkpt>
      <trkpt lat="48.38504" lon="2.69812">
        <ele>93.199996948242</ele>
        <time>2020-10-15T14:28:31Z</time>
      </trkpt>
      <trkpt lat="48.38506" lon="2.69817">
        <ele>92</ele>
        <time>2020-10-15T14:28:36Z</time>
      </trkpt>
      <trkpt lat="48.3851" lon="2.69822">
        <ele>91.199996948242</ele>
        <time>2020-10-15T14:28:41Z</time>
      </trkpt>
      <trkpt lat="48.38512" lon="2.69825">
        <ele>90</ele>
        <time>2020-10-15T14:28:46Z</time>
      </trkpt>
      <trkpt lat="48.38515" lon="2.69827">
        <ele>89.199996948242</ele>
        <time>2020-10-15T14:28:51Z</time>
      </trkpt>
      <trkpt lat="48.38518" lon="2.69827">
        <ele>88.199996948242</ele>
        <time>2020-10-15T14:28:56Z</time>
      </trkpt>
      <trkpt lat="48.3852" lon="2.6983">
        <ele>87.400001525879</ele>
        <time>2020-10-15T14:29:01Z</time>
      </trkpt>
      <trkpt lat="48.38525" lon="2.69833">
        <ele>86</ele>
        <time>2020-10-15T14:29:06Z</time>
      </trkpt>
      <trkpt lat="48.38526" lon="2.69833">
        <ele>85</ele>
        <time>2020-10-15T14:29:11Z</time>
      </trkpt>
      <trkpt lat="48.38528" lon="2.69832">
        <ele>84</ele>
        <time>2020-10-15T14:29:16Z</time>
      </trkpt>
      <trkpt lat="48.38532" lon="2.69829">
        <ele>83.199996948242</ele>
        <time>2020-10-15T14:29:21Z</time>
      </trkpt>
      <trkpt lat="48.38534" lon="2.69828">
        <ele>81.800003051758</ele>
        <time>2020-10-15T14:29:26Z</time>
      </trkpt>
      <trkpt lat="48.38537" lon="2.69828">
        <ele>80.800003051758</ele>
        <time>2020-10-15T14:29:31Z</time>
      </trkpt>
      <trkpt lat="48.38543" lon="2.69831">
        <ele>79.800003051758</ele>
        <time>2020-10-15T14:29:36Z</time>
      </trkpt>
      <trkpt lat="48.38546" lon="2.69832">
        <ele>78.599998474121</ele>
        <time>2020-10-15T14:29:41Z</time>
      </trkpt>
      <trkpt lat="48.38547" lon="2.69833">
        <ele>77.599998474121</ele>
        <time>2020-10-15T14:29:46Z</time>
      </trkpt>
      <trkpt lat="48.38549" lon="2.69834">
        <ele>76.400001525879</ele>
        <time>2020-10-15T14:29:51Z</time>
      </trkpt>
      <trkpt lat="48.38554" lon="2.69832">
        <ele>75.400001525879</ele>
        <time>2020-10-15T14:29:56Z</time>
      </trkpt>
      <trkpt lat="48.38559" lon="2.69831">
        <ele>74.599998474121</ele>
        <time>2020-10-15T14:30:01Z</time>
      </trkpt>
      <trkpt lat="48.38564" lon="2.69833">
        <ele>74</ele>
        <time>2020-10-15T14:30:06Z</time>
      </trkpt>
      <trkpt lat="48.38568" lon="2.69834">
        <ele>73.400001525879</ele>
        <time>2020-10-15T14:30:11Z</time>
      </trkpt>
      <trkpt lat="48.38573" lon="2.69835">
        <ele>72.800003051758</ele>
        <time>2020-10-15T14:30:16Z</time>
      </trkpt>
      <trkpt lat="48.38577" lon="2.69835">
        <ele>72.199996948242</ele>
        <time>2020-10-15T14:30:21Z</time>
      </trkpt>
      <trkpt lat="48.38581" lon="2.6984">
        <ele>72</ele>
        <time>2020-10-15T14:30:26Z</time>
      </trkpt>
      <trkpt lat="48.38586" lon="2.6984">
        <ele>71.599998474121</ele>
        <time>2020-10-15T14:30:30Z</time>
      </trkpt>
      <trkpt lat="48.38595" lon="2.69842">
        <ele>71</ele>
        <time>2020-10-15T14:30:37Z</time>
      </trkpt>
      <trkpt lat="48.386" lon="2.69844">
        <ele>70.800003051758</ele>
        <time>2020-10-15T14:30:42Z</time>
      </trkpt>
      <trkpt lat="48.38604" lon="2.69844">
        <ele>70.599998474121</ele>
        <time>2020-10-15T14:30:47Z</time>
      </trkpt>
      <trkpt lat="48.38608" lon="2.69843">
        <ele>70.199996948242</ele>
        <time>2020-10-15T14:30:52Z</time>
      </trkpt>
      <trkpt lat="48.38613" lon="2.69842">
        <ele>70</ele>
        <time>2020-10-15T14:30:57Z</time>
      </trkpt>
      <trkpt lat="48.38618" lon="2.69843">
        <ele>69.800003051758</ele>
        <time>2020-10-15T14:31:02Z</time>
      </trkpt>
      <trkpt lat="48.38623" lon="2.69843">
        <ele>69.400001525879</ele>
        <time>2020-10-15T14:31:07Z</time>
      </trkpt>
      <trkpt lat="48.38628" lon="2.69847">
        <ele>69.400001525879</ele>
        <time>2020-10-15T14:31:12Z</time>
      </trkpt>
      <trkpt lat="48.38632" lon="2.69851">
        <ele>69.199996948242</ele>
        <time>2020-10-15T14:31:17Z</time>
      </trkpt>
      <trkpt lat="48.3864" lon="2.69852">
        <ele>69.199996948242</ele>
        <time>2020-10-15T14:31:22Z</time>
      </trkpt>
      <trkpt lat="48.38646" lon="2.69853">
        <ele>69.199996948242</ele>
        <time>2020-10-15T14:31:27Z</time>
      </trkpt>
      <trkpt lat="48.38649" lon="2.69853">
        <ele>69.400001525879</ele>
        <time>2020-10-15T14:31:32Z</time>
      </trkpt>
      <trkpt lat="48.3865" lon="2.69854">
        <ele>69.400001525879</ele>
        <time>2020-10-15T14:31:37Z</time>
      </trkpt>
      <trkpt lat="48.3865" lon="2.69856">
        <ele>69.400001525879</ele>
        <time>2020-10-15T14:31:42Z</time>
      </trkpt>
      <trkpt lat="48.3865" lon="2.69857">
        <ele>69.599998474121</ele>
        <time>2020-10-15T14:31:47Z</time>
      </trkpt>
      <trkpt lat="48.38654" lon="2.69867">
        <ele>69</ele>
        <time>2020-10-15T14:32:37Z</time>
      </trkpt>
      <trkpt lat="48.38654" lon="2.69861">
        <ele>69</ele>
        <time>2020-10-15T14:32:42Z</time>
      </trkpt>
      <trkpt lat="48.38652" lon="2.69861">
        <ele>69</ele>
        <time>2020-10-15T14:32:47Z</time>
      </trkpt>
      <trkpt lat="48.38652" lon="2.69861">
        <ele>69</ele>
        <time>2020-10-15T14:34:27Z</time>
      </trkpt>
      <trkpt lat="48.38652" lon="2.69861">
        <ele>69</ele>
        <time>2020-10-15T14:34:32Z</time>
      </trkpt>
      <trkpt lat="48.38651" lon="2.69861">
        <ele>69</ele>
        <time>2020-10-15T14:34:37Z</time>
      </trkpt>
      <trkpt lat="48.38658" lon="2.69869">
        <ele>69</ele>
        <time>2020-10-15T14:36:07Z</time>
      </trkpt>
      <trkpt lat="48.38663" lon="2.69871">
        <ele>69.199996948242</ele>
        <time>2020-10-15T14:36:12Z</time>
      </trkpt>
      <trkpt lat="48.38668" lon="2.69871">
        <ele>69.199996948242</ele>
        <time>2020-10-15T14:36:17Z</time>
      </trkpt>
      <trkpt lat="48.38674" lon="2.69873">
        <ele>69.199996948242</ele>
        <time>2020-10-15T14:36:22Z</time>
      </trkpt>
      <trkpt lat="48.38679" lon="2.69875">
        <ele>69.400001525879</ele>
        <time>2020-10-15T14:36:27Z</time>
      </trkpt>
      <trkpt lat="48.38682" lon="2.69876">
        <ele>69.400001525879</ele>
        <time>2020-10-15T14:36:32Z</time>
      </trkpt>
      <trkpt lat="48.38684" lon="2.69878">
        <ele>69.400001525879</ele>
        <time>2020-10-15T14:36:37Z</time>
      </trkpt>
      <trkpt lat="48.38688" lon="2.69881">
        <ele>69.400001525879</ele>
        <time>2020-10-15T14:36:42Z</time>
      </trkpt>
      <trkpt lat="48.3869" lon="2.69884">
        <ele>69.599998474121</ele>
        <time>2020-10-15T14:36:47Z</time>
      </trkpt>
      <trkpt lat="48.38693" lon="2.69886">
        <ele>69.599998474121</ele>
        <time>2020-10-15T14:36:52Z</time>
      </trkpt>
      <trkpt lat="48.38694" lon="2.69886">
        <ele>69.800003051758</ele>
        <time>2020-10-15T14:36:57Z</time>
      </trkpt>
      <trkpt lat="48.38696" lon="2.69886">
        <ele>69.800003051758</ele>
        <time>2020-10-15T14:37:02Z</time>
      </trkpt>
      <trkpt lat="48.38696" lon="2.69885">
        <ele>69.800003051758</ele>
        <time>2020-10-15T14:37:07Z</time>
      </trkpt>
      <trkpt lat="48.38696" lon="2.69883">
        <ele>69.599998474121</ele>
        <time>2020-10-15T14:37:12Z</time>
      </trkpt>
      <trkpt lat="48.38696" lon="2.69883">
        <ele>69.599998474121</ele>
        <time>2020-10-15T14:37:17Z</time>
      </trkpt>
      <trkpt lat="48.38696" lon="2.69883">
        <ele>69.599998474121</ele>
        <time>2020-10-15T14:37:22Z</time>
      </trkpt>
      <trkpt lat="48.38698" lon="2.69882">
        <ele>69.599998474121</ele>
        <time>2020-10-15T14:37:27Z</time>
      </trkpt>
      <trkpt lat="48.38702" lon="2.69885">
        <ele>69.800003051758</ele>
        <time>2020-10-15T14:37:32Z</time>
      </trkpt>
      <trkpt lat="48.38708" lon="2.6989">
        <ele>69.800003051758</ele>
        <time>2020-10-15T14:37:37Z</time>
      </trkpt>
      <trkpt lat="48.38712" lon="2.69894">
        <ele>69.800003051758</ele>
        <time>2020-10-15T14:37:42Z</time>
      </trkpt>
      <trkpt lat="48.38716" lon="2.69896">
        <ele>69.599998474121</ele>
        <time>2020-10-15T14:37:47Z</time>
      </trkpt>
      <trkpt lat="48.38722" lon="2.69898">
        <ele>69.599998474121</ele>
        <time>2020-10-15T14:37:52Z</time>
      </trkpt>
      <trkpt lat="48.38727" lon="2.69901">
        <ele>69.400001525879</ele>
        <time>2020-10-15T14:37:57Z</time>
      </trkpt>
      <trkpt lat="48.38732" lon="2.69903">
        <ele>69.400001525879</ele>
        <time>2020-10-15T14:38:02Z</time>
      </trkpt>
      <trkpt lat="48.38736" lon="2.69907">
        <ele>69</ele>
        <time>2020-10-15T14:38:07Z</time>
      </trkpt>
      <trkpt lat="48.38741" lon="2.69912">
        <ele>68.800003051758</ele>
        <time>2020-10-15T14:38:12Z</time>
      </trkpt>
      <trkpt lat="48.38745" lon="2.69915">
        <ele>68.800003051758</ele>
        <time>2020-10-15T14:38:17Z</time>
      </trkpt>
      <trkpt lat="48.38752" lon="2.69917">
        <ele>68.599998474121</ele>
        <time>2020-10-15T14:38:22Z</time>
      </trkpt>
      <trkpt lat="48.38757" lon="2.69919">
        <ele>68.599998474121</ele>
        <time>2020-10-15T14:38:27Z</time>
      </trkpt>
      <trkpt lat="48.38762" lon="2.69921">
        <ele>68.599998474121</ele>
        <time>2020-10-15T14:38:32Z</time>
      </trkpt>
      <trkpt lat="48.38767" lon="2.69922">
        <ele>68.599998474121</ele>
        <time>2020-10-15T14:38:37Z</time>
      </trkpt>
      <trkpt lat="48.38775" lon="2.69924">
        <ele>68.599998474121</ele>
        <time>2020-10-15T14:38:42Z</time>
      </trkpt>
      <trkpt lat="48.38779" lon="2.69928">
        <ele>68.599998474121</ele>
        <time>2020-10-15T14:38:47Z</time>
      </trkpt>
      <trkpt lat="48.38783" lon="2.6993">
        <ele>68.800003051758</ele>
        <time>2020-10-15T14:38:52Z</time>
      </trkpt>
      <trkpt lat="48.38787" lon="2.69934">
        <ele>68.800003051758</ele>
        <time>2020-10-15T14:38:57Z</time>
      </trkpt>
      <trkpt lat="48.38791" lon="2.69937">
        <ele>68.800003051758</ele>
        <time>2020-10-15T14:39:02Z</time>
      </trkpt>
      <trkpt lat="48.38795" lon="2.69942">
        <ele>68.800003051758</ele>
        <time>2020-10-15T14:39:07Z</time>
      </trkpt>
      <trkpt lat="48.38802" lon="2.69945">
        <ele>68.800003051758</ele>
        <time>2020-10-15T14:39:12Z</time>
      </trkpt>
      <trkpt lat="48.38808" lon="2.69948">
        <ele>69</ele>
        <time>2020-10-15T14:39:17Z</time>
      </trkpt>
      <trkpt lat="48.38813" lon="2.69949">
        <ele>69</ele>
        <time>2020-10-15T14:39:22Z</time>
      </trkpt>
      <trkpt lat="48.38818" lon="2.69952">
        <ele>69</ele>
        <time>2020-10-15T14:39:27Z</time>
      </trkpt>
      <trkpt lat="48.38823" lon="2.69954">
        <ele>69</ele>
        <time>2020-10-15T14:39:32Z</time>
      </trkpt>
      <trkpt lat="48.38829" lon="2.69956">
        <ele>69</ele>
        <time>2020-10-15T14:39:37Z</time>
      </trkpt>
      <trkpt lat="48.38836" lon="2.69959">
        <ele>69</ele>
        <time>2020-10-15T14:39:42Z</time>
      </trkpt>
      <trkpt lat="48.38842" lon="2.69961">
        <ele>69</ele>
        <time>2020-10-15T14:39:47Z</time>
      </trkpt>
      <trkpt lat="48.38848" lon="2.69965">
        <ele>68.800003051758</ele>
        <time>2020-10-15T14:39:52Z</time>
      </trkpt>
      <trkpt lat="48.38853" lon="2.6997">
        <ele>68.800003051758</ele>
        <time>2020-10-15T14:39:57Z</time>
      </trkpt>
      <trkpt lat="48.38858" lon="2.69975">
        <ele>68.800003051758</ele>
        <time>2020-10-15T14:40:02Z</time>
      </trkpt>
      <trkpt lat="48.38862" lon="2.69979">
        <ele>69</ele>
        <time>2020-10-15T14:40:07Z</time>
      </trkpt>
      <trkpt lat="48.38868" lon="2.69986">
        <ele>69</ele>
        <time>2020-10-15T14:40:12Z</time>
      </trkpt>
      <trkpt lat="48.38873" lon="2.6999">
        <ele>69</ele>
        <time>2020-10-15T14:40:17Z</time>
      </trkpt>
      <trkpt lat="48.38877" lon="2.69994">
        <ele>68.599998474121</ele>
        <time>2020-10-15T14:40:22Z</time>
      </trkpt>
      <trkpt lat="48.38882" lon="2.69999">
        <ele>68.800003051758</ele>
        <time>2020-10-15T14:40:27Z</time>
      </trkpt>
      <trkpt lat="48.38886" lon="2.70002">
        <ele>68.599998474121</ele>
        <time>2020-10-15T14:40:32Z</time>
      </trkpt>
      <trkpt lat="48.38893" lon="2.70005">
        <ele>68.199996948242</ele>
        <time>2020-10-15T14:40:37Z</time>
      </trkpt>
      <trkpt lat="48.38898" lon="2.70008">
        <ele>68</ele>
        <time>2020-10-15T14:40:42Z</time>
      </trkpt>
      <trkpt lat="48.38904" lon="2.70011">
        <ele>68</ele>
        <time>2020-10-15T14:40:47Z</time>
      </trkpt>
      <trkpt lat="48.38911" lon="2.70014">
        <ele>67.800003051758</ele>
        <time>2020-10-15T14:40:52Z</time>
      </trkpt>
      <trkpt lat="48.38916" lon="2.70019">
        <ele>67.599998474121</ele>
        <time>2020-10-15T14:40:57Z</time>
      </trkpt>
      <trkpt lat="48.38921" lon="2.70023">
        <ele>67.400001525879</ele>
        <time>2020-10-15T14:41:02Z</time>
      </trkpt>
      <trkpt lat="48.38926" lon="2.70027">
        <ele>67.199996948242</ele>
        <time>2020-10-15T14:41:07Z</time>
      </trkpt>
      <trkpt lat="48.38931" lon="2.7003">
        <ele>67</ele>
        <time>2020-10-15T14:41:12Z</time>
      </trkpt>
      <trkpt lat="48.38936" lon="2.70035">
        <ele>66.800003051758</ele>
        <time>2020-10-15T14:41:17Z</time>
      </trkpt>
      <trkpt lat="48.3894" lon="2.70039">
        <ele>66.800003051758</ele>
        <time>2020-10-15T14:41:22Z</time>
      </trkpt>
      <trkpt lat="48.38943" lon="2.70042">
        <ele>66.800003051758</ele>
        <time>2020-10-15T14:41:27Z</time>
      </trkpt>
      <trkpt lat="48.38944" lon="2.70048">
        <ele>66.800003051758</ele>
        <time>2020-10-15T14:41:32Z</time>
      </trkpt>
      <trkpt lat="48.38943" lon="2.70051">
        <ele>67</ele>
        <time>2020-10-15T14:41:37Z</time>
      </trkpt>
      <trkpt lat="48.38941" lon="2.70053">
        <ele>67.400001525879</ele>
        <time>2020-10-15T14:41:42Z</time>
      </trkpt>
      <trkpt lat="48.38938" lon="2.70057">
        <ele>67.599998474121</ele>
        <time>2020-10-15T14:41:47Z</time>
      </trkpt>
      <trkpt lat="48.38935" lon="2.70062">
        <ele>68</ele>
        <time>2020-10-15T14:41:52Z</time>
      </trkpt>
      <trkpt lat="48.3893" lon="2.70065">
        <ele>68</ele>
        <time>2020-10-15T14:41:57Z</time>
      </trkpt>
      <trkpt lat="48.38925" lon="2.70068">
        <ele>68</ele>
        <time>2020-10-15T14:42:02Z</time>
      </trkpt>
      <trkpt lat="48.3892" lon="2.70073">
        <ele>69</ele>
        <time>2020-10-15T14:42:07Z</time>
      </trkpt>
      <trkpt lat="48.38915" lon="2.70076">
        <ele>69.199996948242</ele>
        <time>2020-10-15T14:42:12Z</time>
      </trkpt>
      <trkpt lat="48.38912" lon="2.70079">
        <ele>69.599998474121</ele>
        <time>2020-10-15T14:42:17Z</time>
      </trkpt>
      <trkpt lat="48.38907" lon="2.70081">
        <ele>70.199996948242</ele>
        <time>2020-10-15T14:42:22Z</time>
      </trkpt>
      <trkpt lat="48.389" lon="2.70081">
        <ele>71.199996948242</ele>
        <time>2020-10-15T14:42:27Z</time>
      </trkpt>
      <trkpt lat="48.38894" lon="2.70081">
        <ele>72.199996948242</ele>
        <time>2020-10-15T14:42:32Z</time>
      </trkpt>
      <trkpt lat="48.38889" lon="2.70085">
        <ele>73</ele>
        <time>2020-10-15T14:42:37Z</time>
      </trkpt>
      <trkpt lat="48.3889" lon="2.70085">
        <ele>73.800003051758</ele>
        <time>2020-10-15T14:42:42Z</time>
      </trkpt>
      <trkpt lat="48.38888" lon="2.70086">
        <ele>73.800003051758</ele>
        <time>2020-10-15T14:42:47Z</time>
      </trkpt>
      <trkpt lat="48.38884" lon="2.70089">
        <ele>73.800003051758</ele>
        <time>2020-10-15T14:42:52Z</time>
      </trkpt>
      <trkpt lat="48.38879" lon="2.70092">
        <ele>74.400001525879</ele>
        <time>2020-10-15T14:42:57Z</time>
      </trkpt>
      <trkpt lat="48.38874" lon="2.70095">
        <ele>75</ele>
        <time>2020-10-15T14:43:02Z</time>
      </trkpt>
      <trkpt lat="48.38873" lon="2.70097">
        <ele>75.599998474121</ele>
        <time>2020-10-15T14:43:07Z</time>
      </trkpt>
      <trkpt lat="48.38869" lon="2.70095">
        <ele>76</ele>
        <time>2020-10-15T14:43:12Z</time>
      </trkpt>
      <trkpt lat="48.38864" lon="2.70096">
        <ele>76.400001525879</ele>
        <time>2020-10-15T14:43:17Z</time>
      </trkpt>
      <trkpt lat="48.3886" lon="2.70097">
        <ele>76.800003051758</ele>
        <time>2020-10-15T14:43:22Z</time>
      </trkpt>
      <trkpt lat="48.38854" lon="2.70095">
        <ele>77.599998474121</ele>
        <time>2020-10-15T14:43:27Z</time>
      </trkpt>
      <trkpt lat="48.3885" lon="2.70093">
        <ele>77.599998474121</ele>
        <time>2020-10-15T14:43:32Z</time>
      </trkpt>
      <trkpt lat="48.38846" lon="2.7009">
        <ele>77.400001525879</ele>
        <time>2020-10-15T14:43:37Z</time>
      </trkpt>
      <trkpt lat="48.38842" lon="2.70087">
        <ele>77.400001525879</ele>
        <time>2020-10-15T14:43:42Z</time>
      </trkpt>
      <trkpt lat="48.38838" lon="2.70086">
        <ele>77.400001525879</ele>
        <time>2020-10-15T14:43:47Z</time>
      </trkpt>
      <trkpt lat="48.38835" lon="2.70087">
        <ele>78</ele>
        <time>2020-10-15T14:43:52Z</time>
      </trkpt>
      <trkpt lat="48.38834" lon="2.70088">
        <ele>78.400001525879</ele>
        <time>2020-10-15T14:43:57Z</time>
      </trkpt>
      <trkpt lat="48.3883" lon="2.70092">
        <ele>79</ele>
        <time>2020-10-15T14:44:02Z</time>
      </trkpt>
      <trkpt lat="48.38828" lon="2.70097">
        <ele>79.800003051758</ele>
        <time>2020-10-15T14:44:07Z</time>
      </trkpt>
      <trkpt lat="48.38828" lon="2.701">
        <ele>80.800003051758</ele>
        <time>2020-10-15T14:44:12Z</time>
      </trkpt>
      <trkpt lat="48.38828" lon="2.70104">
        <ele>83</ele>
        <time>2020-10-15T14:44:22Z</time>
      </trkpt>
      <trkpt lat="48.38829" lon="2.70103">
        <ele>83.800003051758</ele>
        <time>2020-10-15T14:44:27Z</time>
      </trkpt>
      <trkpt lat="48.38828" lon="2.70101">
        <ele>85.400001525879</ele>
        <time>2020-10-15T14:44:37Z</time>
      </trkpt>
      <trkpt lat="48.38819" lon="2.70108">
        <ele>86</ele>
        <time>2020-10-15T14:44:42Z</time>
      </trkpt>
      <trkpt lat="48.38805" lon="2.70123">
        <ele>86.599998474121</ele>
        <time>2020-10-15T14:44:47Z</time>
      </trkpt>
      <trkpt lat="48.38797" lon="2.70132">
        <ele>87.199996948242</ele>
        <time>2020-10-15T14:44:52Z</time>
      </trkpt>
      <trkpt lat="48.38795" lon="2.70137">
        <ele>87.800003051758</ele>
        <time>2020-10-15T14:44:57Z</time>
      </trkpt>
      <trkpt lat="48.38795" lon="2.70142">
        <ele>88.800003051758</ele>
        <time>2020-10-15T14:45:02Z</time>
      </trkpt>
      <trkpt lat="48.38796" lon="2.70147">
        <ele>89.599998474121</ele>
        <time>2020-10-15T14:45:07Z</time>
      </trkpt>
      <trkpt lat="48.38796" lon="2.70151">
        <ele>90.400001525879</ele>
        <time>2020-10-15T14:45:12Z</time>
      </trkpt>
      <trkpt lat="48.38797" lon="2.70156">
        <ele>91.800003051758</ele>
        <time>2020-10-15T14:45:17Z</time>
      </trkpt>
      <trkpt lat="48.38797" lon="2.70162">
        <ele>92.800003051758</ele>
        <time>2020-10-15T14:45:22Z</time>
      </trkpt>
      <trkpt lat="48.38797" lon="2.70168">
        <ele>94</ele>
        <time>2020-10-15T14:45:27Z</time>
      </trkpt>
      <trkpt lat="48.38797" lon="2.70173">
        <ele>95.400001525879</ele>
        <time>2020-10-15T14:45:32Z</time>
      </trkpt>
      <trkpt lat="48.38798" lon="2.70177">
        <ele>96.400001525879</ele>
        <time>2020-10-15T14:45:37Z</time>
      </trkpt>
      <trkpt lat="48.38799" lon="2.7018">
        <ele>97.599998474121</ele>
        <time>2020-10-15T14:45:42Z</time>
      </trkpt>
      <trkpt lat="48.38801" lon="2.70181">
        <ele>98.599998474121</ele>
        <time>2020-10-15T14:45:47Z</time>
      </trkpt>
      <trkpt lat="48.38804" lon="2.70179">
        <ele>99.599998474121</ele>
        <time>2020-10-15T14:45:52Z</time>
      </trkpt>
      <trkpt lat="48.38807" lon="2.70177">
        <ele>100.59999847412</ele>
        <time>2020-10-15T14:45:57Z</time>
      </trkpt>
      <trkpt lat="48.38809" lon="2.70179">
        <ele>101.80000305176</ele>
        <time>2020-10-15T14:46:02Z</time>
      </trkpt>
      <trkpt lat="48.38811" lon="2.70181">
        <ele>102.59999847412</ele>
        <time>2020-10-15T14:46:07Z</time>
      </trkpt>
      <trkpt lat="48.38815" lon="2.70181">
        <ele>103.80000305176</ele>
        <time>2020-10-15T14:46:12Z</time>
      </trkpt>
      <trkpt lat="48.38818" lon="2.70183">
        <ele>105.40000152588</ele>
        <time>2020-10-15T14:46:17Z</time>
      </trkpt>
      <trkpt lat="48.38821" lon="2.70198">
        <ele>108.80000305176</ele>
        <time>2020-10-15T14:49:27Z</time>
      </trkpt>
      <trkpt lat="48.3882" lon="2.70199">
        <ele>108.80000305176</ele>
        <time>2020-10-15T14:49:37Z</time>
      </trkpt>
      <trkpt lat="48.38821" lon="2.70199">
        <ele>108.80000305176</ele>
        <time>2020-10-15T14:49:47Z</time>
      </trkpt>
      <trkpt lat="48.38821" lon="2.70199">
        <ele>108.80000305176</ele>
        <time>2020-10-15T14:49:57Z</time>
      </trkpt>
      <trkpt lat="48.38821" lon="2.70199">
        <ele>108.80000305176</ele>
        <time>2020-10-15T14:50:02Z</time>
      </trkpt>
      <trkpt lat="48.38821" lon="2.70199">
        <ele>108.80000305176</ele>
        <time>2020-10-15T14:50:07Z</time>
      </trkpt>
      <trkpt lat="48.38821" lon="2.70199">
        <ele>108.80000305176</ele>
        <time>2020-10-15T14:50:12Z</time>
      </trkpt>
      <trkpt lat="48.38821" lon="2.70199">
        <ele>108.80000305176</ele>
        <time>2020-10-15T14:50:17Z</time>
      </trkpt>
      <trkpt lat="48.38822" lon="2.70201">
        <ele>108.80000305176</ele>
        <time>2020-10-15T14:50:22Z</time>
      </trkpt>
      <trkpt lat="48.38822" lon="2.70202">
        <ele>108.80000305176</ele>
        <time>2020-10-15T14:50:27Z</time>
      </trkpt>
      <trkpt lat="48.38822" lon="2.70202">
        <ele>108.80000305176</ele>
        <time>2020-10-15T14:50:32Z</time>
      </trkpt>
      <trkpt lat="48.38822" lon="2.70202">
        <ele>108.80000305176</ele>
        <time>2020-10-15T14:50:37Z</time>
      </trkpt>
      <trkpt lat="48.38822" lon="2.702">
        <ele>108.80000305176</ele>
        <time>2020-10-15T14:50:42Z</time>
      </trkpt>
      <trkpt lat="48.38822" lon="2.702">
        <ele>108.80000305176</ele>
        <time>2020-10-15T14:50:47Z</time>
      </trkpt>
      <trkpt lat="48.38822" lon="2.702">
        <ele>108.80000305176</ele>
        <time>2020-10-15T14:50:52Z</time>
      </trkpt>
      <trkpt lat="48.38822" lon="2.702">
        <ele>108.80000305176</ele>
        <time>2020-10-15T14:50:57Z</time>
      </trkpt>
      <trkpt lat="48.38821" lon="2.702">
        <ele>108.80000305176</ele>
        <time>2020-10-15T14:51:02Z</time>
      </trkpt>
      <trkpt lat="48.38822" lon="2.702">
        <ele>108.80000305176</ele>
        <time>2020-10-15T14:51:07Z</time>
      </trkpt>
      <trkpt lat="48.38821" lon="2.70201">
        <ele>108.80000305176</ele>
        <time>2020-10-15T14:51:12Z</time>
      </trkpt>
      <trkpt lat="48.38821" lon="2.70203">
        <ele>108.80000305176</ele>
        <time>2020-10-15T14:51:17Z</time>
      </trkpt>
      <trkpt lat="48.38821" lon="2.70206">
        <ele>108.80000305176</ele>
        <time>2020-10-15T14:51:22Z</time>
      </trkpt>
      <trkpt lat="48.38821" lon="2.70206">
        <ele>108.80000305176</ele>
        <time>2020-10-15T14:51:27Z</time>
      </trkpt>
      <trkpt lat="48.38821" lon="2.70207">
        <ele>108.80000305176</ele>
        <time>2020-10-15T14:51:32Z</time>
      </trkpt>
      <trkpt lat="48.38818" lon="2.7021">
        <ele>108.80000305176</ele>
        <time>2020-10-15T14:52:07Z</time>
      </trkpt>
      <trkpt lat="48.38817" lon="2.70211">
        <ele>108.80000305176</ele>
        <time>2020-10-15T14:52:22Z</time>
      </trkpt>
      <trkpt lat="48.38817" lon="2.70211">
        <ele>108.80000305176</ele>
        <time>2020-10-15T14:52:27Z</time>
      </trkpt>
      <trkpt lat="48.38818" lon="2.70211">
        <ele>108.80000305176</ele>
        <time>2020-10-15T14:52:32Z</time>
      </trkpt>
      <trkpt lat="48.38818" lon="2.70211">
        <ele>108.80000305176</ele>
        <time>2020-10-15T14:52:37Z</time>
      </trkpt>
      <trkpt lat="48.38818" lon="2.70211">
        <ele>108.80000305176</ele>
        <time>2020-10-15T14:52:42Z</time>
      </trkpt>
      <trkpt lat="48.38817" lon="2.70212">
        <ele>108.80000305176</ele>
        <time>2020-10-15T14:55:47Z</time>
      </trkpt>
      <trkpt lat="48.38815" lon="2.70216">
        <ele>108.80000305176</ele>
        <time>2020-10-15T14:55:52Z</time>
      </trkpt>
      <trkpt lat="48.38816" lon="2.7022">
        <ele>108.80000305176</ele>
        <time>2020-10-15T14:55:57Z</time>
      </trkpt>
      <trkpt lat="48.38816" lon="2.70226">
        <ele>108.80000305176</ele>
        <time>2020-10-15T14:56:02Z</time>
      </trkpt>
      <trkpt lat="48.38816" lon="2.70231">
        <ele>108.80000305176</ele>
        <time>2020-10-15T14:56:07Z</time>
      </trkpt>
      <trkpt lat="48.38814" lon="2.70237">
        <ele>108.19999694824</ele>
        <time>2020-10-15T14:56:12Z</time>
      </trkpt>
      <trkpt lat="48.38813" lon="2.70241">
        <ele>107.80000305176</ele>
        <time>2020-10-15T14:56:17Z</time>
      </trkpt>
      <trkpt lat="48.3881" lon="2.70244">
        <ele>107.80000305176</ele>
        <time>2020-10-15T14:56:22Z</time>
      </trkpt>
      <trkpt lat="48.38806" lon="2.70248">
        <ele>108</ele>
        <time>2020-10-15T14:56:27Z</time>
      </trkpt>
      <trkpt lat="48.38801" lon="2.70251">
        <ele>108</ele>
        <time>2020-10-15T14:56:32Z</time>
      </trkpt>
      <trkpt lat="48.38796" lon="2.70255">
        <ele>108.19999694824</ele>
        <time>2020-10-15T14:56:37Z</time>
      </trkpt>
      <trkpt lat="48.38793" lon="2.7026">
        <ele>108.19999694824</ele>
        <time>2020-10-15T14:56:42Z</time>
      </trkpt>
      <trkpt lat="48.38788" lon="2.70266">
        <ele>108.19999694824</ele>
        <time>2020-10-15T14:56:47Z</time>
      </trkpt>
      <trkpt lat="48.38785" lon="2.70271">
        <ele>108.19999694824</ele>
        <time>2020-10-15T14:56:52Z</time>
      </trkpt>
      <trkpt lat="48.38783" lon="2.70277">
        <ele>108.19999694824</ele>
        <time>2020-10-15T14:56:57Z</time>
      </trkpt>
      <trkpt lat="48.38782" lon="2.70285">
        <ele>108.59999847412</ele>
        <time>2020-10-15T14:57:02Z</time>
      </trkpt>
      <trkpt lat="48.38783" lon="2.70293">
        <ele>108.80000305176</ele>
        <time>2020-10-15T14:57:07Z</time>
      </trkpt>
      <trkpt lat="48.38784" lon="2.70298">
        <ele>109.19999694824</ele>
        <time>2020-10-15T14:57:12Z</time>
      </trkpt>
      <trkpt lat="48.38785" lon="2.70306">
        <ele>109.80000305176</ele>
        <time>2020-10-15T14:57:17Z</time>
      </trkpt>
      <trkpt lat="48.38784" lon="2.70312">
        <ele>110.40000152588</ele>
        <time>2020-10-15T14:57:22Z</time>
      </trkpt>
      <trkpt lat="48.38782" lon="2.70318">
        <ele>110.59999847412</ele>
        <time>2020-10-15T14:57:27Z</time>
      </trkpt>
      <trkpt lat="48.38781" lon="2.70323">
        <ele>110.59999847412</ele>
        <time>2020-10-15T14:57:32Z</time>
      </trkpt>
      <trkpt lat="48.38779" lon="2.70329">
        <ele>110.59999847412</ele>
        <time>2020-10-15T14:57:37Z</time>
      </trkpt>
      <trkpt lat="48.38777" lon="2.70336">
        <ele>110.59999847412</ele>
        <time>2020-10-15T14:57:42Z</time>
      </trkpt>
      <trkpt lat="48.38777" lon="2.70343">
        <ele>110.59999847412</ele>
        <time>2020-10-15T14:57:47Z</time>
      </trkpt>
      <trkpt lat="48.38778" lon="2.70351">
        <ele>110.40000152588</ele>
        <time>2020-10-15T14:57:52Z</time>
      </trkpt>
      <trkpt lat="48.38776" lon="2.70358">
        <ele>110.19999694824</ele>
        <time>2020-10-15T14:57:57Z</time>
      </trkpt>
      <trkpt lat="48.38774" lon="2.70364">
        <ele>110.19999694824</ele>
        <time>2020-10-15T14:58:02Z</time>
      </trkpt>
      <trkpt lat="48.38772" lon="2.7037">
        <ele>110.19999694824</ele>
        <time>2020-10-15T14:58:07Z</time>
      </trkpt>
      <trkpt lat="48.38768" lon="2.70375">
        <ele>110.19999694824</ele>
        <time>2020-10-15T14:58:12Z</time>
      </trkpt>
      <trkpt lat="48.38762" lon="2.7038">
        <ele>110.19999694824</ele>
        <time>2020-10-15T14:58:17Z</time>
      </trkpt>
      <trkpt lat="48.38757" lon="2.70384">
        <ele>110.59999847412</ele>
        <time>2020-10-15T14:58:22Z</time>
      </trkpt>
      <trkpt lat="48.38752" lon="2.70386">
        <ele>110.80000305176</ele>
        <time>2020-10-15T14:58:27Z</time>
      </trkpt>
      <trkpt lat="48.38746" lon="2.70389">
        <ele>110.80000305176</ele>
        <time>2020-10-15T14:58:32Z</time>
      </trkpt>
      <trkpt lat="48.3874" lon="2.70394">
        <ele>111.19999694824</ele>
        <time>2020-10-15T14:58:37Z</time>
      </trkpt>
      <trkpt lat="48.38735" lon="2.70399">
        <ele>111.40000152588</ele>
        <time>2020-10-15T14:58:42Z</time>
      </trkpt>
      <trkpt lat="48.38732" lon="2.70403">
        <ele>111.59999847412</ele>
        <time>2020-10-15T14:58:47Z</time>
      </trkpt>
      <trkpt lat="48.38729" lon="2.70408">
        <ele>111.80000305176</ele>
        <time>2020-10-15T14:58:52Z</time>
      </trkpt>
      <trkpt lat="48.38728" lon="2.70414">
        <ele>112</ele>
        <time>2020-10-15T14:58:57Z</time>
      </trkpt>
      <trkpt lat="48.38727" lon="2.70421">
        <ele>112</ele>
        <time>2020-10-15T14:59:02Z</time>
      </trkpt>
      <trkpt lat="48.38726" lon="2.70428">
        <ele>112</ele>
        <time>2020-10-15T14:59:07Z</time>
      </trkpt>
      <trkpt lat="48.38725" lon="2.70435">
        <ele>112.19999694824</ele>
        <time>2020-10-15T14:59:12Z</time>
      </trkpt>
      <trkpt lat="48.38725" lon="2.70441">
        <ele>112.40000152588</ele>
        <time>2020-10-15T14:59:17Z</time>
      </trkpt>
      <trkpt lat="48.38725" lon="2.7045">
        <ele>112.40000152588</ele>
        <time>2020-10-15T14:59:22Z</time>
      </trkpt>
      <trkpt lat="48.38723" lon="2.70458">
        <ele>112.40000152588</ele>
        <time>2020-10-15T14:59:27Z</time>
      </trkpt>
      <trkpt lat="48.38721" lon="2.70466">
        <ele>112.40000152588</ele>
        <time>2020-10-15T14:59:32Z</time>
      </trkpt>
      <trkpt lat="48.38721" lon="2.70476">
        <ele>112.40000152588</ele>
        <time>2020-10-15T14:59:37Z</time>
      </trkpt>
      <trkpt lat="48.38719" lon="2.70483">
        <ele>112.40000152588</ele>
        <time>2020-10-15T14:59:42Z</time>
      </trkpt>
      <trkpt lat="48.38719" lon="2.70491">
        <ele>112.40000152588</ele>
        <time>2020-10-15T14:59:47Z</time>
      </trkpt>
      <trkpt lat="48.38721" lon="2.705">
        <ele>112.59999847412</ele>
        <time>2020-10-15T14:59:52Z</time>
      </trkpt>
      <trkpt lat="48.38722" lon="2.70507">
        <ele>112.80000305176</ele>
        <time>2020-10-15T14:59:57Z</time>
      </trkpt>
      <trkpt lat="48.38725" lon="2.70516">
        <ele>112.80000305176</ele>
        <time>2020-10-15T15:00:02Z</time>
      </trkpt>
      <trkpt lat="48.38725" lon="2.70522">
        <ele>112.80000305176</ele>
        <time>2020-10-15T15:00:07Z</time>
      </trkpt>
      <trkpt lat="48.38723" lon="2.70529">
        <ele>112.80000305176</ele>
        <time>2020-10-15T15:00:12Z</time>
      </trkpt>
      <trkpt lat="48.38722" lon="2.70535">
        <ele>113</ele>
        <time>2020-10-15T15:00:17Z</time>
      </trkpt>
      <trkpt lat="48.38722" lon="2.70544">
        <ele>112.80000305176</ele>
        <time>2020-10-15T15:00:22Z</time>
      </trkpt>
      <trkpt lat="48.38722" lon="2.70553">
        <ele>113</ele>
        <time>2020-10-15T15:00:27Z</time>
      </trkpt>
      <trkpt lat="48.38721" lon="2.70561">
        <ele>112.80000305176</ele>
        <time>2020-10-15T15:00:32Z</time>
      </trkpt>
      <trkpt lat="48.38722" lon="2.70568">
        <ele>112.80000305176</ele>
        <time>2020-10-15T15:00:37Z</time>
      </trkpt>
      <trkpt lat="48.38723" lon="2.70575">
        <ele>112.80000305176</ele>
        <time>2020-10-15T15:00:42Z</time>
      </trkpt>
      <trkpt lat="48.38724" lon="2.70583">
        <ele>112.80000305176</ele>
        <time>2020-10-15T15:00:47Z</time>
      </trkpt>
      <trkpt lat="48.38724" lon="2.7059">
        <ele>112.80000305176</ele>
        <time>2020-10-15T15:00:52Z</time>
      </trkpt>
      <trkpt lat="48.38727" lon="2.70597">
        <ele>112.80000305176</ele>
        <time>2020-10-15T15:00:57Z</time>
      </trkpt>
      <trkpt lat="48.38729" lon="2.70605">
        <ele>112.80000305176</ele>
        <time>2020-10-15T15:01:02Z</time>
      </trkpt>
      <trkpt lat="48.38731" lon="2.70613">
        <ele>112.80000305176</ele>
        <time>2020-10-15T15:01:07Z</time>
      </trkpt>
      <trkpt lat="48.38733" lon="2.70621">
        <ele>112.80000305176</ele>
        <time>2020-10-15T15:01:12Z</time>
      </trkpt>
      <trkpt lat="48.38735" lon="2.70629">
        <ele>112.59999847412</ele>
        <time>2020-10-15T15:01:17Z</time>
      </trkpt>
      <trkpt lat="48.38735" lon="2.70635">
        <ele>112.59999847412</ele>
        <time>2020-10-15T15:01:22Z</time>
      </trkpt>
      <trkpt lat="48.38735" lon="2.70643">
        <ele>112.40000152588</ele>
        <time>2020-10-15T15:01:27Z</time>
      </trkpt>
      <trkpt lat="48.38735" lon="2.70652">
        <ele>112.59999847412</ele>
        <time>2020-10-15T15:01:32Z</time>
      </trkpt>
      <trkpt lat="48.38736" lon="2.70661">
        <ele>112.59999847412</ele>
        <time>2020-10-15T15:01:37Z</time>
      </trkpt>
      <trkpt lat="48.38738" lon="2.7067">
        <ele>112.59999847412</ele>
        <time>2020-10-15T15:01:42Z</time>
      </trkpt>
      <trkpt lat="48.38738" lon="2.70679">
        <ele>112.59999847412</ele>
        <time>2020-10-15T15:01:47Z</time>
      </trkpt>
      <trkpt lat="48.38737" lon="2.70688">
        <ele>112.59999847412</ele>
        <time>2020-10-15T15:01:52Z</time>
      </trkpt>
      <trkpt lat="48.38735" lon="2.70696">
        <ele>112.59999847412</ele>
        <time>2020-10-15T15:01:57Z</time>
      </trkpt>
      <trkpt lat="48.38735" lon="2.70706">
        <ele>112.59999847412</ele>
        <time>2020-10-15T15:02:02Z</time>
      </trkpt>
      <trkpt lat="48.38735" lon="2.70713">
        <ele>112.59999847412</ele>
        <time>2020-10-15T15:02:07Z</time>
      </trkpt>
      <trkpt lat="48.38733" lon="2.70721">
        <ele>112.59999847412</ele>
        <time>2020-10-15T15:02:12Z</time>
      </trkpt>
      <trkpt lat="48.38733" lon="2.70728">
        <ele>112.59999847412</ele>
        <time>2020-10-15T15:02:17Z</time>
      </trkpt>
      <trkpt lat="48.38733" lon="2.70737">
        <ele>112.80000305176</ele>
        <time>2020-10-15T15:02:22Z</time>
      </trkpt>
      <trkpt lat="48.38733" lon="2.70743">
        <ele>112.80000305176</ele>
        <time>2020-10-15T15:02:27Z</time>
      </trkpt>
      <trkpt lat="48.38733" lon="2.70751">
        <ele>112.80000305176</ele>
        <time>2020-10-15T15:02:32Z</time>
      </trkpt>
      <trkpt lat="48.38734" lon="2.70759">
        <ele>112.59999847412</ele>
        <time>2020-10-15T15:02:37Z</time>
      </trkpt>
      <trkpt lat="48.38734" lon="2.70766">
        <ele>112.59999847412</ele>
        <time>2020-10-15T15:02:42Z</time>
      </trkpt>
      <trkpt lat="48.38734" lon="2.70773">
        <ele>112.59999847412</ele>
        <time>2020-10-15T15:02:47Z</time>
      </trkpt>
      <trkpt lat="48.38733" lon="2.70782">
        <ele>112.59999847412</ele>
        <time>2020-10-15T15:02:52Z</time>
      </trkpt>
      <trkpt lat="48.38733" lon="2.70791">
        <ele>112.59999847412</ele>
        <time>2020-10-15T15:02:57Z</time>
      </trkpt>
      <trkpt lat="48.38732" lon="2.70799">
        <ele>112.59999847412</ele>
        <time>2020-10-15T15:03:02Z</time>
      </trkpt>
      <trkpt lat="48.38733" lon="2.70807">
        <ele>112.59999847412</ele>
        <time>2020-10-15T15:03:07Z</time>
      </trkpt>
      <trkpt lat="48.38731" lon="2.70816">
        <ele>112.59999847412</ele>
        <time>2020-10-15T15:03:12Z</time>
      </trkpt>
      <trkpt lat="48.38731" lon="2.70826">
        <ele>112.59999847412</ele>
        <time>2020-10-15T15:03:17Z</time>
      </trkpt>
      <trkpt lat="48.38732" lon="2.70833">
        <ele>112.59999847412</ele>
        <time>2020-10-15T15:03:22Z</time>
      </trkpt>
      <trkpt lat="48.38734" lon="2.7084">
        <ele>112.59999847412</ele>
        <time>2020-10-15T15:03:27Z</time>
      </trkpt>
      <trkpt lat="48.38734" lon="2.70847">
        <ele>112.80000305176</ele>
        <time>2020-10-15T15:03:32Z</time>
      </trkpt>
      <trkpt lat="48.38734" lon="2.70853">
        <ele>112.80000305176</ele>
        <time>2020-10-15T15:03:37Z</time>
      </trkpt>
      <trkpt lat="48.38734" lon="2.70858">
        <ele>112.80000305176</ele>
        <time>2020-10-15T15:03:42Z</time>
      </trkpt>
      <trkpt lat="48.38735" lon="2.70864">
        <ele>112.80000305176</ele>
        <time>2020-10-15T15:03:47Z</time>
      </trkpt>
      <trkpt lat="48.38737" lon="2.70873">
        <ele>112.80000305176</ele>
        <time>2020-10-15T15:03:52Z</time>
      </trkpt>
      <trkpt lat="48.38739" lon="2.70883">
        <ele>112.80000305176</ele>
        <time>2020-10-15T15:03:57Z</time>
      </trkpt>
      <trkpt lat="48.38743" lon="2.70892">
        <ele>113</ele>
        <time>2020-10-15T15:04:02Z</time>
      </trkpt>
      <trkpt lat="48.38746" lon="2.70901">
        <ele>113</ele>
        <time>2020-10-15T15:04:07Z</time>
      </trkpt>
      <trkpt lat="48.38749" lon="2.70908">
        <ele>113</ele>
        <time>2020-10-15T15:04:12Z</time>
      </trkpt>
      <trkpt lat="48.38752" lon="2.70916">
        <ele>112.80000305176</ele>
        <time>2020-10-15T15:04:17Z</time>
      </trkpt>
      <trkpt lat="48.38757" lon="2.70923">
        <ele>112.80000305176</ele>
        <time>2020-10-15T15:04:22Z</time>
      </trkpt>
      <trkpt lat="48.3876" lon="2.70932">
        <ele>113</ele>
        <time>2020-10-15T15:04:27Z</time>
      </trkpt>
      <trkpt lat="48.38764" lon="2.70939">
        <ele>113</ele>
        <time>2020-10-15T15:04:32Z</time>
      </trkpt>
      <trkpt lat="48.38766" lon="2.70947">
        <ele>113</ele>
        <time>2020-10-15T15:04:37Z</time>
      </trkpt>
      <trkpt lat="48.38767" lon="2.70955">
        <ele>112.80000305176</ele>
        <time>2020-10-15T15:04:42Z</time>
      </trkpt>
      <trkpt lat="48.38769" lon="2.70965">
        <ele>112.80000305176</ele>
        <time>2020-10-15T15:04:47Z</time>
      </trkpt>
      <trkpt lat="48.38771" lon="2.70974">
        <ele>113</ele>
        <time>2020-10-15T15:04:52Z</time>
      </trkpt>
      <trkpt lat="48.3877" lon="2.70983">
        <ele>112.80000305176</ele>
        <time>2020-10-15T15:04:57Z</time>
      </trkpt>
      <trkpt lat="48.38769" lon="2.70991">
        <ele>112.80000305176</ele>
        <time>2020-10-15T15:05:02Z</time>
      </trkpt>
      <trkpt lat="48.38769" lon="2.71001">
        <ele>112.59999847412</ele>
        <time>2020-10-15T15:05:07Z</time>
      </trkpt>
      <trkpt lat="48.38769" lon="2.71009">
        <ele>112.59999847412</ele>
        <time>2020-10-15T15:05:12Z</time>
      </trkpt>
      <trkpt lat="48.3877" lon="2.71017">
        <ele>112.59999847412</ele>
        <time>2020-10-15T15:05:17Z</time>
      </trkpt>
      <trkpt lat="48.3877" lon="2.71026">
        <ele>112.59999847412</ele>
        <time>2020-10-15T15:05:22Z</time>
      </trkpt>
      <trkpt lat="48.3877" lon="2.71034">
        <ele>112.59999847412</ele>
        <time>2020-10-15T15:05:27Z</time>
      </trkpt>
      <trkpt lat="48.3877" lon="2.71042">
        <ele>112.59999847412</ele>
        <time>2020-10-15T15:05:32Z</time>
      </trkpt>
      <trkpt lat="48.38769" lon="2.71051">
        <ele>112.59999847412</ele>
        <time>2020-10-15T15:05:37Z</time>
      </trkpt>
      <trkpt lat="48.38768" lon="2.71058">
        <ele>112.59999847412</ele>
        <time>2020-10-15T15:05:42Z</time>
      </trkpt>
      <trkpt lat="48.38764" lon="2.71067">
        <ele>112.40000152588</ele>
        <time>2020-10-15T15:05:47Z</time>
      </trkpt>
      <trkpt lat="48.38761" lon="2.71079">
        <ele>112.19999694824</ele>
        <time>2020-10-15T15:05:52Z</time>
      </trkpt>
      <trkpt lat="48.3876" lon="2.71084">
        <ele>112.40000152588</ele>
        <time>2020-10-15T15:05:57Z</time>
      </trkpt>
      <trkpt lat="48.38757" lon="2.71092">
        <ele>112.19999694824</ele>
        <time>2020-10-15T15:06:02Z</time>
      </trkpt>
      <trkpt lat="48.38754" lon="2.71099">
        <ele>112.19999694824</ele>
        <time>2020-10-15T15:06:07Z</time>
      </trkpt>
      <trkpt lat="48.38752" lon="2.71105">
        <ele>112.19999694824</ele>
        <time>2020-10-15T15:06:12Z</time>
      </trkpt>
      <trkpt lat="48.38749" lon="2.71114">
        <ele>111.80000305176</ele>
        <time>2020-10-15T15:06:17Z</time>
      </trkpt>
      <trkpt lat="48.38748" lon="2.71123">
        <ele>111.80000305176</ele>
        <time>2020-10-15T15:06:22Z</time>
      </trkpt>
      <trkpt lat="48.38747" lon="2.71131">
        <ele>111.80000305176</ele>
        <time>2020-10-15T15:06:27Z</time>
      </trkpt>
      <trkpt lat="48.38746" lon="2.7114">
        <ele>111.80000305176</ele>
        <time>2020-10-15T15:06:32Z</time>
      </trkpt>
      <trkpt lat="48.38747" lon="2.71149">
        <ele>111.59999847412</ele>
        <time>2020-10-15T15:06:37Z</time>
      </trkpt>
      <trkpt lat="48.38747" lon="2.71158">
        <ele>111.40000152588</ele>
        <time>2020-10-15T15:06:42Z</time>
      </trkpt>
      <trkpt lat="48.38749" lon="2.71166">
        <ele>111</ele>
        <time>2020-10-15T15:06:47Z</time>
      </trkpt>
      <trkpt lat="48.38752" lon="2.71174">
        <ele>110.80000305176</ele>
        <time>2020-10-15T15:06:52Z</time>
      </trkpt>
      <trkpt lat="48.38755" lon="2.71182">
        <ele>110.59999847412</ele>
        <time>2020-10-15T15:06:57Z</time>
      </trkpt>
      <trkpt lat="48.3876" lon="2.71185">
        <ele>110</ele>
        <time>2020-10-15T15:07:02Z</time>
      </trkpt>
      <trkpt lat="48.38763" lon="2.71189">
        <ele>109.40000152588</ele>
        <time>2020-10-15T15:07:07Z</time>
      </trkpt>
      <trkpt lat="48.38767" lon="2.71196">
        <ele>109</ele>
        <time>2020-10-15T15:07:12Z</time>
      </trkpt>
      <trkpt lat="48.38773" lon="2.71201">
        <ele>108.40000152588</ele>
        <time>2020-10-15T15:07:17Z</time>
      </trkpt>
      <trkpt lat="48.38776" lon="2.71205">
        <ele>108.40000152588</ele>
        <time>2020-10-15T15:07:22Z</time>
      </trkpt>
      <trkpt lat="48.3878" lon="2.71208">
        <ele>108</ele>
        <time>2020-10-15T15:07:27Z</time>
      </trkpt>
      <trkpt lat="48.38787" lon="2.71211">
        <ele>107.40000152588</ele>
        <time>2020-10-15T15:07:32Z</time>
      </trkpt>
      <trkpt lat="48.38791" lon="2.71212">
        <ele>107</ele>
        <time>2020-10-15T15:07:37Z</time>
      </trkpt>
      <trkpt lat="48.38797" lon="2.71212">
        <ele>106.80000305176</ele>
        <time>2020-10-15T15:07:42Z</time>
      </trkpt>
      <trkpt lat="48.38802" lon="2.7121">
        <ele>106.40000152588</ele>
        <time>2020-10-15T15:07:47Z</time>
      </trkpt>
      <trkpt lat="48.3881" lon="2.71208">
        <ele>106</ele>
        <time>2020-10-15T15:07:52Z</time>
      </trkpt>
      <trkpt lat="48.38817" lon="2.71207">
        <ele>105.59999847412</ele>
        <time>2020-10-15T15:07:57Z</time>
      </trkpt>
      <trkpt lat="48.3882" lon="2.71204">
        <ele>105.59999847412</ele>
        <time>2020-10-15T15:08:02Z</time>
      </trkpt>
      <trkpt lat="48.38825" lon="2.71199">
        <ele>105.40000152588</ele>
        <time>2020-10-15T15:08:07Z</time>
      </trkpt>
      <trkpt lat="48.3883" lon="2.71192">
        <ele>105</ele>
        <time>2020-10-15T15:08:12Z</time>
      </trkpt>
      <trkpt lat="48.38833" lon="2.71187">
        <ele>104.59999847412</ele>
        <time>2020-10-15T15:08:17Z</time>
      </trkpt>
      <trkpt lat="48.38835" lon="2.71181">
        <ele>104.40000152588</ele>
        <time>2020-10-15T15:08:22Z</time>
      </trkpt>
      <trkpt lat="48.38839" lon="2.71173">
        <ele>104</ele>
        <time>2020-10-15T15:08:27Z</time>
      </trkpt>
      <trkpt lat="48.38844" lon="2.71165">
        <ele>103.80000305176</ele>
        <time>2020-10-15T15:08:32Z</time>
      </trkpt>
      <trkpt lat="48.38846" lon="2.71157">
        <ele>103.59999847412</ele>
        <time>2020-10-15T15:08:37Z</time>
      </trkpt>
      <trkpt lat="48.38847" lon="2.71149">
        <ele>103.19999694824</ele>
        <time>2020-10-15T15:08:42Z</time>
      </trkpt>
      <trkpt lat="48.38849" lon="2.7114">
        <ele>102.80000305176</ele>
        <time>2020-10-15T15:08:47Z</time>
      </trkpt>
      <trkpt lat="48.3885" lon="2.7113">
        <ele>102.40000152588</ele>
        <time>2020-10-15T15:08:52Z</time>
      </trkpt>
      <trkpt lat="48.38848" lon="2.71121">
        <ele>102</ele>
        <time>2020-10-15T15:08:57Z</time>
      </trkpt>
      <trkpt lat="48.38847" lon="2.71114">
        <ele>101.80000305176</ele>
        <time>2020-10-15T15:09:02Z</time>
      </trkpt>
      <trkpt lat="48.38848" lon="2.71107">
        <ele>101.40000152588</ele>
        <time>2020-10-15T15:09:07Z</time>
      </trkpt>
      <trkpt lat="48.38849" lon="2.71099">
        <ele>101.19999694824</ele>
        <time>2020-10-15T15:09:12Z</time>
      </trkpt>
      <trkpt lat="48.38849" lon="2.7109">
        <ele>100.59999847412</ele>
        <time>2020-10-15T15:09:17Z</time>
      </trkpt>
      <trkpt lat="48.3885" lon="2.71083">
        <ele>100.19999694824</ele>
        <time>2020-10-15T15:09:22Z</time>
      </trkpt>
      <trkpt lat="48.3885" lon="2.71076">
        <ele>100</ele>
        <time>2020-10-15T15:09:27Z</time>
      </trkpt>
      <trkpt lat="48.38852" lon="2.71069">
        <ele>99.599998474121</ele>
        <time>2020-10-15T15:09:32Z</time>
      </trkpt>
      <trkpt lat="48.38852" lon="2.71061">
        <ele>99.199996948242</ele>
        <time>2020-10-15T15:09:37Z</time>
      </trkpt>
      <trkpt lat="48.38855" lon="2.71051">
        <ele>99</ele>
        <time>2020-10-15T15:09:42Z</time>
      </trkpt>
      <trkpt lat="48.38856" lon="2.71045">
        <ele>98.599998474121</ele>
        <time>2020-10-15T15:09:47Z</time>
      </trkpt>
      <trkpt lat="48.38857" lon="2.71038">
        <ele>98.400001525879</ele>
        <time>2020-10-15T15:09:52Z</time>
      </trkpt>
      <trkpt lat="48.38857" lon="2.71031">
        <ele>98</ele>
        <time>2020-10-15T15:09:57Z</time>
      </trkpt>
      <trkpt lat="48.38857" lon="2.71022">
        <ele>97.800003051758</ele>
        <time>2020-10-15T15:10:02Z</time>
      </trkpt>
      <trkpt lat="48.38856" lon="2.7101">
        <ele>97.400001525879</ele>
        <time>2020-10-15T15:10:07Z</time>
      </trkpt>
      <trkpt lat="48.38854" lon="2.71001">
        <ele>97.199996948242</ele>
        <time>2020-10-15T15:10:12Z</time>
      </trkpt>
      <trkpt lat="48.38854" lon="2.70993">
        <ele>96.800003051758</ele>
        <time>2020-10-15T15:10:17Z</time>
      </trkpt>
      <trkpt lat="48.38854" lon="2.70985">
        <ele>96.199996948242</ele>
        <time>2020-10-15T15:10:22Z</time>
      </trkpt>
      <trkpt lat="48.38852" lon="2.70976">
        <ele>95.800003051758</ele>
        <time>2020-10-15T15:10:27Z</time>
      </trkpt>
      <trkpt lat="48.38852" lon="2.70968">
        <ele>95.400001525879</ele>
        <time>2020-10-15T15:10:32Z</time>
      </trkpt>
      <trkpt lat="48.38852" lon="2.70958">
        <ele>95.199996948242</ele>
        <time>2020-10-15T15:10:37Z</time>
      </trkpt>
      <trkpt lat="48.3885" lon="2.70948">
        <ele>94.800003051758</ele>
        <time>2020-10-15T15:10:42Z</time>
      </trkpt>
      <trkpt lat="48.3885" lon="2.7094">
        <ele>94.599998474121</ele>
        <time>2020-10-15T15:10:47Z</time>
      </trkpt>
      <trkpt lat="48.38852" lon="2.7093">
        <ele>94</ele>
        <time>2020-10-15T15:10:54Z</time>
      </trkpt>
      <trkpt lat="48.38845" lon="2.70897">
        <ele>92.400001525879</ele>
        <time>2020-10-15T15:11:13Z</time>
      </trkpt>
      <trkpt lat="48.38845" lon="2.70888">
        <ele>92</ele>
        <time>2020-10-15T15:11:20Z</time>
      </trkpt>
      <trkpt lat="48.38841" lon="2.70873">
        <ele>91.400001525879</ele>
        <time>2020-10-15T15:11:29Z</time>
      </trkpt>
      <trkpt lat="48.38863" lon="2.70666">
        <ele>83.599998474121</ele>
        <time>2020-10-15T15:13:29Z</time>
      </trkpt>
      <trkpt lat="48.38867" lon="2.70659">
        <ele>83.400001525879</ele>
        <time>2020-10-15T15:13:34Z</time>
      </trkpt>
      <trkpt lat="48.3887" lon="2.70652">
        <ele>83</ele>
        <time>2020-10-15T15:13:39Z</time>
      </trkpt>
      <trkpt lat="48.38872" lon="2.70645">
        <ele>82.800003051758</ele>
        <time>2020-10-15T15:13:44Z</time>
      </trkpt>
      <trkpt lat="48.38875" lon="2.70639">
        <ele>82.400001525879</ele>
        <time>2020-10-15T15:13:49Z</time>
      </trkpt>
      <trkpt lat="48.38877" lon="2.70632">
        <ele>82</ele>
        <time>2020-10-15T15:13:54Z</time>
      </trkpt>
      <trkpt lat="48.38879" lon="2.70626">
        <ele>81.599998474121</ele>
        <time>2020-10-15T15:13:59Z</time>
      </trkpt>
      <trkpt lat="48.38881" lon="2.70619">
        <ele>81.199996948242</ele>
        <time>2020-10-15T15:14:04Z</time>
      </trkpt>
      <trkpt lat="48.38883" lon="2.70611">
        <ele>80.800003051758</ele>
        <time>2020-10-15T15:14:09Z</time>
      </trkpt>
      <trkpt lat="48.38886" lon="2.70604">
        <ele>80.599998474121</ele>
        <time>2020-10-15T15:14:14Z</time>
      </trkpt>
      <trkpt lat="48.38888" lon="2.70597">
        <ele>80.199996948242</ele>
        <time>2020-10-15T15:14:19Z</time>
      </trkpt>
      <trkpt lat="48.38891" lon="2.70592">
        <ele>79.800003051758</ele>
        <time>2020-10-15T15:14:24Z</time>
      </trkpt>
      <trkpt lat="48.38895" lon="2.70584">
        <ele>79.400001525879</ele>
        <time>2020-10-15T15:14:29Z</time>
      </trkpt>
      <trkpt lat="48.38902" lon="2.70576">
        <ele>78.800003051758</ele>
        <time>2020-10-15T15:14:34Z</time>
      </trkpt>
      <trkpt lat="48.38904" lon="2.70568">
        <ele>78.599998474121</ele>
        <time>2020-10-15T15:14:39Z</time>
      </trkpt>
      <trkpt lat="48.38905" lon="2.70562">
        <ele>78.400001525879</ele>
        <time>2020-10-15T15:14:44Z</time>
      </trkpt>
      <trkpt lat="48.38907" lon="2.70555">
        <ele>78.199996948242</ele>
        <time>2020-10-15T15:14:49Z</time>
      </trkpt>
      <trkpt lat="48.38908" lon="2.70549">
        <ele>77.800003051758</ele>
        <time>2020-10-15T15:14:54Z</time>
      </trkpt>
      <trkpt lat="48.38911" lon="2.70541">
        <ele>77.599998474121</ele>
        <time>2020-10-15T15:14:59Z</time>
      </trkpt>
      <trkpt lat="48.38913" lon="2.70532">
        <ele>77.400001525879</ele>
        <time>2020-10-15T15:15:04Z</time>
      </trkpt>
      <trkpt lat="48.38917" lon="2.70525">
        <ele>77.199996948242</ele>
        <time>2020-10-15T15:15:09Z</time>
      </trkpt>
      <trkpt lat="48.38921" lon="2.70517">
        <ele>76.800003051758</ele>
        <time>2020-10-15T15:15:14Z</time>
      </trkpt>
      <trkpt lat="48.38925" lon="2.70508">
        <ele>76.400001525879</ele>
        <time>2020-10-15T15:15:19Z</time>
      </trkpt>
      <trkpt lat="48.38931" lon="2.70503">
        <ele>76.199996948242</ele>
        <time>2020-10-15T15:15:24Z</time>
      </trkpt>
      <trkpt lat="48.38934" lon="2.70497">
        <ele>75.800003051758</ele>
        <time>2020-10-15T15:15:29Z</time>
      </trkpt>
      <trkpt lat="48.38937" lon="2.70491">
        <ele>75.599998474121</ele>
        <time>2020-10-15T15:15:34Z</time>
      </trkpt>
      <trkpt lat="48.3894" lon="2.70482">
        <ele>75.199996948242</ele>
        <time>2020-10-15T15:15:39Z</time>
      </trkpt>
      <trkpt lat="48.3894" lon="2.70474">
        <ele>75</ele>
        <time>2020-10-15T15:15:44Z</time>
      </trkpt>
      <trkpt lat="48.38942" lon="2.70465">
        <ele>75</ele>
        <time>2020-10-15T15:15:49Z</time>
      </trkpt>
      <trkpt lat="48.38945" lon="2.70458">
        <ele>74.400001525879</ele>
        <time>2020-10-15T15:15:54Z</time>
      </trkpt>
      <trkpt lat="48.38947" lon="2.70454">
        <ele>74.400001525879</ele>
        <time>2020-10-15T15:15:59Z</time>
      </trkpt>
      <trkpt lat="48.38948" lon="2.70451">
        <ele>74.199996948242</ele>
        <time>2020-10-15T15:16:04Z</time>
      </trkpt>
      <trkpt lat="48.38949" lon="2.70451">
        <ele>73.800003051758</ele>
        <time>2020-10-15T15:16:09Z</time>
      </trkpt>
      <trkpt lat="48.38948" lon="2.7045">
        <ele>73.800003051758</ele>
        <time>2020-10-15T15:16:14Z</time>
      </trkpt>
      <trkpt lat="48.38949" lon="2.7045">
        <ele>73.800003051758</ele>
        <time>2020-10-15T15:16:19Z</time>
      </trkpt>
      <trkpt lat="48.38949" lon="2.70449">
        <ele>73.800003051758</ele>
        <time>2020-10-15T15:16:24Z</time>
      </trkpt>
      <trkpt lat="48.3895" lon="2.70448">
        <ele>73.599998474121</ele>
        <time>2020-10-15T15:16:34Z</time>
      </trkpt>
      <trkpt lat="48.3895" lon="2.70448">
        <ele>73.599998474121</ele>
        <time>2020-10-15T15:16:39Z</time>
      </trkpt>
      <trkpt lat="48.3895" lon="2.70448">
        <ele>73.599998474121</ele>
        <time>2020-10-15T15:17:44Z</time>
      </trkpt>
      <trkpt lat="48.38949" lon="2.70448">
        <ele>73.599998474121</ele>
        <time>2020-10-15T15:17:49Z</time>
      </trkpt>
      <trkpt lat="48.3895" lon="2.70448">
        <ele>73.599998474121</ele>
        <time>2020-10-15T15:17:54Z</time>
      </trkpt>
      <trkpt lat="48.3895" lon="2.70448">
        <ele>73.599998474121</ele>
        <time>2020-10-15T15:17:59Z</time>
      </trkpt>
      <trkpt lat="48.38949" lon="2.70448">
        <ele>73.599998474121</ele>
        <time>2020-10-15T15:18:09Z</time>
      </trkpt>
      <trkpt lat="48.38949" lon="2.70448">
        <ele>73.599998474121</ele>
        <time>2020-10-15T15:18:14Z</time>
      </trkpt>
      <trkpt lat="48.38949" lon="2.70448">
        <ele>73.599998474121</ele>
        <time>2020-10-15T15:18:19Z</time>
      </trkpt>
      <trkpt lat="48.38949" lon="2.70448">
        <ele>73.599998474121</ele>
        <time>2020-10-15T15:18:24Z</time>
      </trkpt>
      <trkpt lat="48.38951" lon="2.70447">
        <ele>73.599998474121</ele>
        <time>2020-10-15T15:18:54Z</time>
      </trkpt>
      <trkpt lat="48.38954" lon="2.70445">
        <ele>73.599998474121</ele>
        <time>2020-10-15T15:18:59Z</time>
      </trkpt>
      <trkpt lat="48.3896" lon="2.70443">
        <ele>73.599998474121</ele>
        <time>2020-10-15T15:19:04Z</time>
      </trkpt>
      <trkpt lat="48.38964" lon="2.70442">
        <ele>73.599998474121</ele>
        <time>2020-10-15T15:19:09Z</time>
      </trkpt>
      <trkpt lat="48.3897" lon="2.70441">
        <ele>73.599998474121</ele>
        <time>2020-10-15T15:19:14Z</time>
      </trkpt>
      <trkpt lat="48.38976" lon="2.7044">
        <ele>73.599998474121</ele>
        <time>2020-10-15T15:19:19Z</time>
      </trkpt>
      <trkpt lat="48.38982" lon="2.70439">
        <ele>73.599998474121</ele>
        <time>2020-10-15T15:19:24Z</time>
      </trkpt>
      <trkpt lat="48.38989" lon="2.70437">
        <ele>73.599998474121</ele>
        <time>2020-10-15T15:19:29Z</time>
      </trkpt>
      <trkpt lat="48.38996" lon="2.70435">
        <ele>73.599998474121</ele>
        <time>2020-10-15T15:19:34Z</time>
      </trkpt>
      <trkpt lat="48.39001" lon="2.70435">
        <ele>72.599998474121</ele>
        <time>2020-10-15T15:19:39Z</time>
      </trkpt>
      <trkpt lat="48.39006" lon="2.70433">
        <ele>71</ele>
        <time>2020-10-15T15:19:44Z</time>
      </trkpt>
      <trkpt lat="48.39011" lon="2.7043">
        <ele>70.800003051758</ele>
        <time>2020-10-15T15:19:49Z</time>
      </trkpt>
      <trkpt lat="48.39014" lon="2.70429">
        <ele>70.599998474121</ele>
        <time>2020-10-15T15:19:54Z</time>
      </trkpt>
      <trkpt lat="48.39019" lon="2.70429">
        <ele>70.400001525879</ele>
        <time>2020-10-15T15:19:59Z</time>
      </trkpt>
      <trkpt lat="48.39024" lon="2.70427">
        <ele>70.199996948242</ele>
        <time>2020-10-15T15:20:04Z</time>
      </trkpt>
      <trkpt lat="48.39029" lon="2.70426">
        <ele>70</ele>
        <time>2020-10-15T15:20:09Z</time>
      </trkpt>
      <trkpt lat="48.39034" lon="2.70423">
        <ele>69.800003051758</ele>
        <time>2020-10-15T15:20:14Z</time>
      </trkpt>
      <trkpt lat="48.39041" lon="2.70421">
        <ele>69.800003051758</ele>
        <time>2020-10-15T15:20:19Z</time>
      </trkpt>
      <trkpt lat="48.39046" lon="2.70418">
        <ele>69.599998474121</ele>
        <time>2020-10-15T15:20:24Z</time>
      </trkpt>
      <trkpt lat="48.3905" lon="2.70418">
        <ele>69.599998474121</ele>
        <time>2020-10-15T15:20:29Z</time>
      </trkpt>
      <trkpt lat="48.39055" lon="2.70416">
        <ele>69.400001525879</ele>
        <time>2020-10-15T15:20:34Z</time>
      </trkpt>
      <trkpt lat="48.39059" lon="2.70414">
        <ele>69</ele>
        <time>2020-10-15T15:20:39Z</time>
      </trkpt>
      <trkpt lat="48.39065" lon="2.70411">
        <ele>69</ele>
        <time>2020-10-15T15:20:44Z</time>
      </trkpt>
      <trkpt lat="48.39071" lon="2.70409">
        <ele>69</ele>
        <time>2020-10-15T15:20:49Z</time>
      </trkpt>
      <trkpt lat="48.39076" lon="2.70406">
        <ele>68.800003051758</ele>
        <time>2020-10-15T15:20:54Z</time>
      </trkpt>
      <trkpt lat="48.39079" lon="2.70404">
        <ele>68.599998474121</ele>
        <time>2020-10-15T15:20:59Z</time>
      </trkpt>
      <trkpt lat="48.39083" lon="2.70403">
        <ele>68.199996948242</ele>
        <time>2020-10-15T15:21:04Z</time>
      </trkpt>
      <trkpt lat="48.3909" lon="2.70402">
        <ele>68</ele>
        <time>2020-10-15T15:21:09Z</time>
      </trkpt>
      <trkpt lat="48.39097" lon="2.704">
        <ele>67.800003051758</ele>
        <time>2020-10-15T15:21:14Z</time>
      </trkpt>
      <trkpt lat="48.39104" lon="2.70398">
        <ele>67.800003051758</ele>
        <time>2020-10-15T15:21:19Z</time>
      </trkpt>
      <trkpt lat="48.39111" lon="2.70398">
        <ele>67.599998474121</ele>
        <time>2020-10-15T15:21:24Z</time>
      </trkpt>
      <trkpt lat="48.39118" lon="2.70396">
        <ele>67.599998474121</ele>
        <time>2020-10-15T15:21:29Z</time>
      </trkpt>
      <trkpt lat="48.39125" lon="2.70395">
        <ele>67.400001525879</ele>
        <time>2020-10-15T15:21:34Z</time>
      </trkpt>
      <trkpt lat="48.39132" lon="2.70393">
        <ele>67.400001525879</ele>
        <time>2020-10-15T15:21:39Z</time>
      </trkpt>
      <trkpt lat="48.39139" lon="2.70391">
        <ele>67.199996948242</ele>
        <time>2020-10-15T15:21:44Z</time>
      </trkpt>
      <trkpt lat="48.39146" lon="2.70389">
        <ele>67</ele>
        <time>2020-10-15T15:21:49Z</time>
      </trkpt>
      <trkpt lat="48.39154" lon="2.70387">
        <ele>66.599998474121</ele>
        <time>2020-10-15T15:21:54Z</time>
      </trkpt>
      <trkpt lat="48.39159" lon="2.70385">
        <ele>66.599998474121</ele>
        <time>2020-10-15T15:21:59Z</time>
      </trkpt>
      <trkpt lat="48.39165" lon="2.70382">
        <ele>66.599998474121</ele>
        <time>2020-10-15T15:22:04Z</time>
      </trkpt>
      <trkpt lat="48.39171" lon="2.70381">
        <ele>66.800003051758</ele>
        <time>2020-10-15T15:22:09Z</time>
      </trkpt>
      <trkpt lat="48.39177" lon="2.70379">
        <ele>66.800003051758</ele>
        <time>2020-10-15T15:22:14Z</time>
      </trkpt>
      <trkpt lat="48.39184" lon="2.70377">
        <ele>66.800003051758</ele>
        <time>2020-10-15T15:22:19Z</time>
      </trkpt>
      <trkpt lat="48.39189" lon="2.70374">
        <ele>66.599998474121</ele>
        <time>2020-10-15T15:22:24Z</time>
      </trkpt>
      <trkpt lat="48.39194" lon="2.70373">
        <ele>66.599998474121</ele>
        <time>2020-10-15T15:22:29Z</time>
      </trkpt>
      <trkpt lat="48.39199" lon="2.70372">
        <ele>66.400001525879</ele>
        <time>2020-10-15T15:22:34Z</time>
      </trkpt>
      <trkpt lat="48.39205" lon="2.70371">
        <ele>66.400001525879</ele>
        <time>2020-10-15T15:22:39Z</time>
      </trkpt>
      <trkpt lat="48.39209" lon="2.7037">
        <ele>66.400001525879</ele>
        <time>2020-10-15T15:22:44Z</time>
      </trkpt>
      <trkpt lat="48.39214" lon="2.70368">
        <ele>66.400001525879</ele>
        <time>2020-10-15T15:22:49Z</time>
      </trkpt>
      <trkpt lat="48.3922" lon="2.70367">
        <ele>66.400001525879</ele>
        <time>2020-10-15T15:22:54Z</time>
      </trkpt>
      <trkpt lat="48.39225" lon="2.70364">
        <ele>66.199996948242</ele>
        <time>2020-10-15T15:22:59Z</time>
      </trkpt>
      <trkpt lat="48.3923" lon="2.70361">
        <ele>66.199996948242</ele>
        <time>2020-10-15T15:23:04Z</time>
      </trkpt>
      <trkpt lat="48.39236" lon="2.70358">
        <ele>66.199996948242</ele>
        <time>2020-10-15T15:23:09Z</time>
      </trkpt>
      <trkpt lat="48.3924" lon="2.70356">
        <ele>66.199996948242</ele>
        <time>2020-10-15T15:23:14Z</time>
      </trkpt>
      <trkpt lat="48.39247" lon="2.70356">
        <ele>66</ele>
        <time>2020-10-15T15:23:19Z</time>
      </trkpt>
      <trkpt lat="48.39251" lon="2.70354">
        <ele>66</ele>
        <time>2020-10-15T15:23:24Z</time>
      </trkpt>
      <trkpt lat="48.39256" lon="2.70354">
        <ele>66</ele>
        <time>2020-10-15T15:23:29Z</time>
      </trkpt>
      <trkpt lat="48.39257" lon="2.70355">
        <ele>66</ele>
        <time>2020-10-15T15:23:34Z</time>
      </trkpt>
      <trkpt lat="48.39258" lon="2.70355">
        <ele>66</ele>
        <time>2020-10-15T15:23:39Z</time>
      </trkpt>
      <trkpt lat="48.39261" lon="2.70355">
        <ele>66.199996948242</ele>
        <time>2020-10-15T15:23:44Z</time>
      </trkpt>
      <trkpt lat="48.39262" lon="2.70356">
        <ele>66.199996948242</ele>
        <time>2020-10-15T15:23:49Z</time>
      </trkpt>
      <trkpt lat="48.39263" lon="2.70358">
        <ele>66.199996948242</ele>
        <time>2020-10-15T15:23:54Z</time>
      </trkpt>
      <trkpt lat="48.39264" lon="2.7036">
        <ele>66</ele>
        <time>2020-10-15T15:23:59Z</time>
      </trkpt>
      <trkpt lat="48.39264" lon="2.70361">
        <ele>66</ele>
        <time>2020-10-15T15:24:04Z</time>
      </trkpt>
      <trkpt lat="48.39265" lon="2.70361">
        <ele>66</ele>
        <time>2020-10-15T15:24:09Z</time>
      </trkpt>
      <trkpt lat="48.39266" lon="2.70361">
        <ele>66</ele>
        <time>2020-10-15T15:24:14Z</time>
      </trkpt>
      <trkpt lat="48.39266" lon="2.70362">
        <ele>66</ele>
        <time>2020-10-15T15:24:19Z</time>
      </trkpt>
      <trkpt lat="48.39271" lon="2.70362">
        <ele>66.199996948242</ele>
        <time>2020-10-15T15:24:24Z</time>
      </trkpt>
      <trkpt lat="48.39276" lon="2.70359">
        <ele>66</ele>
        <time>2020-10-15T15:24:29Z</time>
      </trkpt>
      <trkpt lat="48.39278" lon="2.70357">
        <ele>65.800003051758</ele>
        <time>2020-10-15T15:24:34Z</time>
      </trkpt>
      <trkpt lat="48.39282" lon="2.70355">
        <ele>65.800003051758</ele>
        <time>2020-10-15T15:24:39Z</time>
      </trkpt>
      <trkpt lat="48.39286" lon="2.70354">
        <ele>65.800003051758</ele>
        <time>2020-10-15T15:24:44Z</time>
      </trkpt>
      <trkpt lat="48.3929" lon="2.70352">
        <ele>65.800003051758</ele>
        <time>2020-10-15T15:24:49Z</time>
      </trkpt>
      <trkpt lat="48.39293" lon="2.7035">
        <ele>65.800003051758</ele>
        <time>2020-10-15T15:24:54Z</time>
      </trkpt>
      <trkpt lat="48.39294" lon="2.7035">
        <ele>65.800003051758</ele>
        <time>2020-10-15T15:24:59Z</time>
      </trkpt>
      <trkpt lat="48.39294" lon="2.7035">
        <ele>65.800003051758</ele>
        <time>2020-10-15T15:25:04Z</time>
      </trkpt>
      <trkpt lat="48.39296" lon="2.70348">
        <ele>65.800003051758</ele>
        <time>2020-10-15T15:25:59Z</time>
      </trkpt>
      <trkpt lat="48.39295" lon="2.70348">
        <ele>65.800003051758</ele>
        <time>2020-10-15T15:26:29Z</time>
      </trkpt>
      <trkpt lat="48.393" lon="2.70347">
        <ele>66</ele>
        <time>2020-10-15T15:33:34Z</time>
      </trkpt>
      <trkpt lat="48.39301" lon="2.70347">
        <ele>66</ele>
        <time>2020-10-15T15:33:39Z</time>
      </trkpt>
      <trkpt lat="48.39303" lon="2.70346">
        <ele>66</ele>
        <time>2020-10-15T15:33:44Z</time>
      </trkpt>
      <trkpt lat="48.39305" lon="2.70345">
        <ele>66</ele>
        <time>2020-10-15T15:33:49Z</time>
      </trkpt>
      <trkpt lat="48.39311" lon="2.70344">
        <ele>66</ele>
        <time>2020-10-15T15:33:54Z</time>
      </trkpt>
      <trkpt lat="48.39318" lon="2.70343">
        <ele>66</ele>
        <time>2020-10-15T15:33:59Z</time>
      </trkpt>
      <trkpt lat="48.39324" lon="2.70344">
        <ele>66</ele>
        <time>2020-10-15T15:34:04Z</time>
      </trkpt>
      <trkpt lat="48.39329" lon="2.70344">
        <ele>65.599998474121</ele>
        <time>2020-10-15T15:34:09Z</time>
      </trkpt>
      <trkpt lat="48.39336" lon="2.70344">
        <ele>65.199996948242</ele>
        <time>2020-10-15T15:34:14Z</time>
      </trkpt>
      <trkpt lat="48.39344" lon="2.70341">
        <ele>65.199996948242</ele>
        <time>2020-10-15T15:34:19Z</time>
      </trkpt>
      <trkpt lat="48.39352" lon="2.70338">
        <ele>65.199996948242</ele>
        <time>2020-10-15T15:34:24Z</time>
      </trkpt>
      <trkpt lat="48.39358" lon="2.70337">
        <ele>65.199996948242</ele>
        <time>2020-10-15T15:34:29Z</time>
      </trkpt>
      <trkpt lat="48.39364" lon="2.70335">
        <ele>65.199996948242</ele>
        <time>2020-10-15T15:34:34Z</time>
      </trkpt>
      <trkpt lat="48.39367" lon="2.70334">
        <ele>65.199996948242</ele>
        <time>2020-10-15T15:34:39Z</time>
      </trkpt>
      <trkpt lat="48.39368" lon="2.70333">
        <ele>65</ele>
        <time>2020-10-15T15:34:44Z</time>
      </trkpt>
      <trkpt lat="48.3937" lon="2.7033">
        <ele>65</ele>
        <time>2020-10-15T15:34:49Z</time>
      </trkpt>
      <trkpt lat="48.39375" lon="2.70328">
        <ele>64.800003051758</ele>
        <time>2020-10-15T15:34:54Z</time>
      </trkpt>
      <trkpt lat="48.39381" lon="2.70325">
        <ele>64.800003051758</ele>
        <time>2020-10-15T15:34:59Z</time>
      </trkpt>
      <trkpt lat="48.39386" lon="2.70323">
        <ele>64.800003051758</ele>
        <time>2020-10-15T15:35:04Z</time>
      </trkpt>
      <trkpt lat="48.39391" lon="2.70319">
        <ele>64.800003051758</ele>
        <time>2020-10-15T15:35:09Z</time>
      </trkpt>
      <trkpt lat="48.39394" lon="2.70317">
        <ele>64.599998474121</ele>
        <time>2020-10-15T15:35:14Z</time>
      </trkpt>
      <trkpt lat="48.39399" lon="2.70315">
        <ele>64.400001525879</ele>
        <time>2020-10-15T15:35:19Z</time>
      </trkpt>
      <trkpt lat="48.39404" lon="2.70312">
        <ele>64.400001525879</ele>
        <time>2020-10-15T15:35:24Z</time>
      </trkpt>
      <trkpt lat="48.39408" lon="2.7031">
        <ele>64.400001525879</ele>
        <time>2020-10-15T15:35:29Z</time>
      </trkpt>
      <trkpt lat="48.39411" lon="2.70306">
        <ele>64.199996948242</ele>
        <time>2020-10-15T15:35:34Z</time>
      </trkpt>
      <trkpt lat="48.39416" lon="2.70305">
        <ele>64.199996948242</ele>
        <time>2020-10-15T15:35:39Z</time>
      </trkpt>
      <trkpt lat="48.39421" lon="2.70308">
        <ele>64</ele>
        <time>2020-10-15T15:35:44Z</time>
      </trkpt>
      <trkpt lat="48.3943" lon="2.70308">
        <ele>64</ele>
        <time>2020-10-15T15:35:49Z</time>
      </trkpt>
      <trkpt lat="48.39436" lon="2.70309">
        <ele>63.799999237061</ele>
        <time>2020-10-15T15:35:54Z</time>
      </trkpt>
      <trkpt lat="48.3944" lon="2.70309">
        <ele>63.799999237061</ele>
        <time>2020-10-15T15:35:59Z</time>
      </trkpt>
      <trkpt lat="48.39443" lon="2.70309">
        <ele>63.599998474121</ele>
        <time>2020-10-15T15:36:04Z</time>
      </trkpt>
      <trkpt lat="48.39447" lon="2.70308">
        <ele>63.400001525879</ele>
        <time>2020-10-15T15:36:09Z</time>
      </trkpt>
      <trkpt lat="48.39452" lon="2.70308">
        <ele>63.400001525879</ele>
        <time>2020-10-15T15:36:14Z</time>
      </trkpt>
      <trkpt lat="48.39459" lon="2.70303">
        <ele>63.400001525879</ele>
        <time>2020-10-15T15:36:19Z</time>
      </trkpt>
      <trkpt lat="48.39466" lon="2.70298">
        <ele>63.200000762939</ele>
        <time>2020-10-15T15:36:24Z</time>
      </trkpt>
      <trkpt lat="48.39472" lon="2.70296">
        <ele>63.200000762939</ele>
        <time>2020-10-15T15:36:29Z</time>
      </trkpt>
      <trkpt lat="48.39477" lon="2.70294">
        <ele>63.200000762939</ele>
        <time>2020-10-15T15:36:34Z</time>
      </trkpt>
      <trkpt lat="48.39484" lon="2.70291">
        <ele>63</ele>
        <time>2020-10-15T15:36:39Z</time>
      </trkpt>
      <trkpt lat="48.3949" lon="2.70285">
        <ele>63</ele>
        <time>2020-10-15T15:36:44Z</time>
      </trkpt>
      <trkpt lat="48.39494" lon="2.70283">
        <ele>62.799999237061</ele>
        <time>2020-10-15T15:36:49Z</time>
      </trkpt>
      <trkpt lat="48.395" lon="2.7028">
        <ele>62.799999237061</ele>
        <time>2020-10-15T15:36:54Z</time>
      </trkpt>
      <trkpt lat="48.39505" lon="2.70282">
        <ele>62.599998474121</ele>
        <time>2020-10-15T15:36:59Z</time>
      </trkpt>
      <trkpt lat="48.39509" lon="2.70282">
        <ele>62.400001525879</ele>
        <time>2020-10-15T15:37:04Z</time>
      </trkpt>
      <trkpt lat="48.39512" lon="2.70283">
        <ele>62.400001525879</ele>
        <time>2020-10-15T15:37:09Z</time>
      </trkpt>
      <trkpt lat="48.39515" lon="2.70283">
        <ele>62.400001525879</ele>
        <time>2020-10-15T15:37:14Z</time>
      </trkpt>
      <trkpt lat="48.39519" lon="2.70285">
        <ele>62.200000762939</ele>
        <time>2020-10-15T15:37:19Z</time>
      </trkpt>
      <trkpt lat="48.39524" lon="2.70284">
        <ele>62</ele>
        <time>2020-10-15T15:37:24Z</time>
      </trkpt>
      <trkpt lat="48.3953" lon="2.70284">
        <ele>62</ele>
        <time>2020-10-15T15:37:29Z</time>
      </trkpt>
      <trkpt lat="48.39535" lon="2.70283">
        <ele>62</ele>
        <time>2020-10-15T15:37:34Z</time>
      </trkpt>
      <trkpt lat="48.39541" lon="2.70281">
        <ele>62</ele>
        <time>2020-10-15T15:37:39Z</time>
      </trkpt>
      <trkpt lat="48.39544" lon="2.70277">
        <ele>61.799999237061</ele>
        <time>2020-10-15T15:37:44Z</time>
      </trkpt>
      <trkpt lat="48.39549" lon="2.70277">
        <ele>61.599998474121</ele>
        <time>2020-10-15T15:37:49Z</time>
      </trkpt>
      <trkpt lat="48.39555" lon="2.70273">
        <ele>61.599998474121</ele>
        <time>2020-10-15T15:37:54Z</time>
      </trkpt>
      <trkpt lat="48.3956" lon="2.70269">
        <ele>61.200000762939</ele>
        <time>2020-10-15T15:37:59Z</time>
      </trkpt>
      <trkpt lat="48.39564" lon="2.70267">
        <ele>61.200000762939</ele>
        <time>2020-10-15T15:38:04Z</time>
      </trkpt>
      <trkpt lat="48.39569" lon="2.70261">
        <ele>61.200000762939</ele>
        <time>2020-10-15T15:38:09Z</time>
      </trkpt>
      <trkpt lat="48.39574" lon="2.70255">
        <ele>61</ele>
        <time>2020-10-15T15:38:14Z</time>
      </trkpt>
      <trkpt lat="48.39581" lon="2.70252">
        <ele>61</ele>
        <time>2020-10-15T15:38:19Z</time>
      </trkpt>
      <trkpt lat="48.39588" lon="2.70249">
        <ele>61</ele>
        <time>2020-10-15T15:38:24Z</time>
      </trkpt>
      <trkpt lat="48.39595" lon="2.7025">
        <ele>61</ele>
        <time>2020-10-15T15:38:29Z</time>
      </trkpt>
      <trkpt lat="48.396" lon="2.70249">
        <ele>60.799999237061</ele>
        <time>2020-10-15T15:38:34Z</time>
      </trkpt>
      <trkpt lat="48.39606" lon="2.70247">
        <ele>60.799999237061</ele>
        <time>2020-10-15T15:38:39Z</time>
      </trkpt>
      <trkpt lat="48.39613" lon="2.70248">
        <ele>60.599998474121</ele>
        <time>2020-10-15T15:38:44Z</time>
      </trkpt>
      <trkpt lat="48.39617" lon="2.70249">
        <ele>60.599998474121</ele>
        <time>2020-10-15T15:38:49Z</time>
      </trkpt>
      <trkpt lat="48.39621" lon="2.70249">
        <ele>60.599998474121</ele>
        <time>2020-10-15T15:38:54Z</time>
      </trkpt>
      <trkpt lat="48.39625" lon="2.70251">
        <ele>60.400001525879</ele>
        <time>2020-10-15T15:38:59Z</time>
      </trkpt>
      <trkpt lat="48.39627" lon="2.70249">
        <ele>60.400001525879</ele>
        <time>2020-10-15T15:39:04Z</time>
      </trkpt>
      <trkpt lat="48.3963" lon="2.70245">
        <ele>60.200000762939</ele>
        <time>2020-10-15T15:39:09Z</time>
      </trkpt>
      <trkpt lat="48.39635" lon="2.70242">
        <ele>60</ele>
        <time>2020-10-15T15:39:14Z</time>
      </trkpt>
      <trkpt lat="48.39638" lon="2.70235">
        <ele>60</ele>
        <time>2020-10-15T15:39:19Z</time>
      </trkpt>
      <trkpt lat="48.39642" lon="2.7023">
        <ele>60</ele>
        <time>2020-10-15T15:39:24Z</time>
      </trkpt>
      <trkpt lat="48.39647" lon="2.70224">
        <ele>60</ele>
        <time>2020-10-15T15:39:29Z</time>
      </trkpt>
      <trkpt lat="48.39649" lon="2.7022">
        <ele>59.799999237061</ele>
        <time>2020-10-15T15:39:34Z</time>
      </trkpt>
      <trkpt lat="48.3965" lon="2.70211">
        <ele>59.799999237061</ele>
        <time>2020-10-15T15:39:39Z</time>
      </trkpt>
      <trkpt lat="48.3965" lon="2.70207">
        <ele>60</ele>
        <time>2020-10-15T15:39:44Z</time>
      </trkpt>
      <trkpt lat="48.3965" lon="2.70205">
        <ele>60</ele>
        <time>2020-10-15T15:39:49Z</time>
      </trkpt>
      <trkpt lat="48.3965" lon="2.70203">
        <ele>60</ele>
        <time>2020-10-15T15:39:54Z</time>
      </trkpt>
      <trkpt lat="48.3965" lon="2.70203">
        <ele>60</ele>
        <time>2020-10-15T15:39:59Z</time>
      </trkpt>
      <trkpt lat="48.39652" lon="2.70202">
        <ele>60</ele>
        <time>2020-10-15T15:40:04Z</time>
      </trkpt>
      <trkpt lat="48.39654" lon="2.702">
        <ele>59.799999237061</ele>
        <time>2020-10-15T15:42:44Z</time>
      </trkpt>
    </trkseg>
  </trk>
</gpx>